<?xml version="1.0" encoding="UTF-8" standalone="no" ?>
<gpx xmlns="http://www.topografix.com/GPX/1/1" xmlns:xsi="http://www.w3.org/2001/XMLSchema-instance" xsi:schemaLocation="http://www.topografix.com/GPX/1/1 http://www.topografix.com/GPX/1/1/gpx.xsd" version="1.1" creator="VisuGPX - https://www.visugpx.com">
  <metadata>
    <name>trail de lapanouse</name>
    <desc><![CDATA[trail de lapanouse de cernon]]></desc>
  </metadata>
  <trk>
    <name><![CDATA[2013-08-09T04:55:19Z]]></name>
    <trkseg>
      <trkpt lat="43.99546" lon="3.09824">
        <ele>530.7851563</ele>
        <time>2013-08-09T04:55:26Z</time>
      </trkpt>
      <trkpt lat="43.99542" lon="3.09819">
        <ele>529.8237305</ele>
        <time>2013-08-09T04:55:33Z</time>
      </trkpt>
      <trkpt lat="43.99541" lon="3.09812">
        <ele>528.3818359</ele>
        <time>2013-08-09T04:55:40Z</time>
      </trkpt>
      <trkpt lat="43.9954" lon="3.09809">
        <ele>528.8625488</ele>
        <time>2013-08-09T04:55:42Z</time>
      </trkpt>
      <trkpt lat="43.99539" lon="3.09796">
        <ele>528.8625488</ele>
        <time>2013-08-09T04:55:50Z</time>
      </trkpt>
      <trkpt lat="43.99538" lon="3.09783">
        <ele>530.3044434</ele>
        <time>2013-08-09T04:55:57Z</time>
      </trkpt>
      <trkpt lat="43.99536" lon="3.09769">
        <ele>529.8237305</ele>
        <time>2013-08-09T04:56:05Z</time>
      </trkpt>
      <trkpt lat="43.99532" lon="3.09758">
        <ele>530.3044434</ele>
        <time>2013-08-09T04:56:13Z</time>
      </trkpt>
      <trkpt lat="43.9953" lon="3.09748">
        <ele>530.3044434</ele>
        <time>2013-08-09T04:56:19Z</time>
      </trkpt>
      <trkpt lat="43.99526" lon="3.09739">
        <ele>529.3431396</ele>
        <time>2013-08-09T04:56:26Z</time>
      </trkpt>
      <trkpt lat="43.99521" lon="3.09732">
        <ele>529.3431396</ele>
        <time>2013-08-09T04:56:32Z</time>
      </trkpt>
      <trkpt lat="43.99518" lon="3.09727">
        <ele>528.8625488</ele>
        <time>2013-08-09T04:56:38Z</time>
      </trkpt>
      <trkpt lat="43.99523" lon="3.0973">
        <ele>526.9398193</ele>
        <time>2013-08-09T04:57:09Z</time>
      </trkpt>
      <trkpt lat="43.99525" lon="3.09732">
        <ele>528.3818359</ele>
        <time>2013-08-09T04:57:14Z</time>
      </trkpt>
      <trkpt lat="43.9953" lon="3.09736">
        <ele>527.4204102</ele>
        <time>2013-08-09T04:57:20Z</time>
      </trkpt>
      <trkpt lat="43.99531" lon="3.09742">
        <ele>532.7077637</ele>
        <time>2013-08-09T04:57:27Z</time>
      </trkpt>
      <trkpt lat="43.99534" lon="3.09746">
        <ele>531.2657471</ele>
        <time>2013-08-09T04:57:51Z</time>
      </trkpt>
      <trkpt lat="43.99536" lon="3.09756">
        <ele>532.2270508</ele>
        <time>2013-08-09T04:57:58Z</time>
      </trkpt>
      <trkpt lat="43.99534" lon="3.09762">
        <ele>537.0336914</ele>
        <time>2013-08-09T04:58:02Z</time>
      </trkpt>
      <trkpt lat="43.99534" lon="3.09765">
        <ele>537.9949951</ele>
        <time>2013-08-09T04:58:04Z</time>
      </trkpt>
      <trkpt lat="43.99534" lon="3.0977">
        <ele>539.4368896</ele>
        <time>2013-08-09T04:58:07Z</time>
      </trkpt>
      <trkpt lat="43.99531" lon="3.09784">
        <ele>541.3594971</ele>
        <time>2013-08-09T04:58:14Z</time>
      </trkpt>
      <trkpt lat="43.9953" lon="3.09787">
        <ele>540.8789063</ele>
        <time>2013-08-09T04:58:15Z</time>
      </trkpt>
      <trkpt lat="43.9953" lon="3.09794">
        <ele>535.5915527</ele>
        <time>2013-08-09T04:58:20Z</time>
      </trkpt>
      <trkpt lat="43.99526" lon="3.09802">
        <ele>530.3044434</ele>
        <time>2013-08-09T04:58:26Z</time>
      </trkpt>
      <trkpt lat="43.99521" lon="3.09806">
        <ele>528.8625488</ele>
        <time>2013-08-09T04:58:30Z</time>
      </trkpt>
      <trkpt lat="43.9951" lon="3.09804">
        <ele>528.3818359</ele>
        <time>2013-08-09T04:58:37Z</time>
      </trkpt>
      <trkpt lat="43.99499" lon="3.09802">
        <ele>531.2657471</ele>
        <time>2013-08-09T04:58:44Z</time>
      </trkpt>
      <trkpt lat="43.99489" lon="3.098">
        <ele>530.3044434</ele>
        <time>2013-08-09T04:58:52Z</time>
      </trkpt>
      <trkpt lat="43.9948" lon="3.09805">
        <ele>527.901001</ele>
        <time>2013-08-09T04:59:00Z</time>
      </trkpt>
      <trkpt lat="43.99474" lon="3.09809">
        <ele>525.9783936</ele>
        <time>2013-08-09T04:59:07Z</time>
      </trkpt>
      <trkpt lat="43.99465" lon="3.09814">
        <ele>527.901001</ele>
        <time>2013-08-09T04:59:14Z</time>
      </trkpt>
      <trkpt lat="43.99456" lon="3.09817">
        <ele>527.4204102</ele>
        <time>2013-08-09T04:59:22Z</time>
      </trkpt>
      <trkpt lat="43.99445" lon="3.09814">
        <ele>528.8625488</ele>
        <time>2013-08-09T04:59:31Z</time>
      </trkpt>
      <trkpt lat="43.99435" lon="3.09811">
        <ele>530.7851563</ele>
        <time>2013-08-09T04:59:40Z</time>
      </trkpt>
      <trkpt lat="43.99428" lon="3.09805">
        <ele>533.1883545</ele>
        <time>2013-08-09T04:59:48Z</time>
      </trkpt>
      <trkpt lat="43.99427" lon="3.09804">
        <ele>533.6689453</ele>
        <time>2013-08-09T04:59:49Z</time>
      </trkpt>
      <trkpt lat="43.99424" lon="3.09798">
        <ele>534.1496582</ele>
        <time>2013-08-09T04:59:55Z</time>
      </trkpt>
      <trkpt lat="43.99421" lon="3.09796">
        <ele>534.6303711</ele>
        <time>2013-08-09T04:59:59Z</time>
      </trkpt>
      <trkpt lat="43.99418" lon="3.09791">
        <ele>536.0723877</ele>
        <time>2013-08-09T05:00:04Z</time>
      </trkpt>
      <trkpt lat="43.99414" lon="3.09788">
        <ele>540.3983154</ele>
        <time>2013-08-09T05:00:09Z</time>
      </trkpt>
      <trkpt lat="43.99408" lon="3.09784">
        <ele>550.4921875</ele>
        <time>2013-08-09T05:00:16Z</time>
      </trkpt>
      <trkpt lat="43.99405" lon="3.0978">
        <ele>548.5693359</ele>
        <time>2013-08-09T05:00:21Z</time>
      </trkpt>
      <trkpt lat="43.99398" lon="3.09779">
        <ele>557.2214355</ele>
        <time>2013-08-09T05:00:27Z</time>
      </trkpt>
      <trkpt lat="43.99392" lon="3.09775">
        <ele>564.9118652</ele>
        <time>2013-08-09T05:00:33Z</time>
      </trkpt>
      <trkpt lat="43.99389" lon="3.09767">
        <ele>562.5085449</ele>
        <time>2013-08-09T05:00:40Z</time>
      </trkpt>
      <trkpt lat="43.99386" lon="3.09764">
        <ele>565.3925781</ele>
        <time>2013-08-09T05:00:44Z</time>
      </trkpt>
      <trkpt lat="43.99383" lon="3.09761">
        <ele>566.3537598</ele>
        <time>2013-08-09T05:00:48Z</time>
      </trkpt>
      <trkpt lat="43.99381" lon="3.09756">
        <ele>566.3537598</ele>
        <time>2013-08-09T05:00:52Z</time>
      </trkpt>
      <trkpt lat="43.99375" lon="3.09752">
        <ele>569.237793</ele>
        <time>2013-08-09T05:00:58Z</time>
      </trkpt>
      <trkpt lat="43.99373" lon="3.09746">
        <ele>564.9118652</ele>
        <time>2013-08-09T05:01:04Z</time>
      </trkpt>
      <trkpt lat="43.99368" lon="3.09739">
        <ele>563.4699707</ele>
        <time>2013-08-09T05:01:13Z</time>
      </trkpt>
      <trkpt lat="43.99364" lon="3.09732">
        <ele>565.3925781</ele>
        <time>2013-08-09T05:01:20Z</time>
      </trkpt>
      <trkpt lat="43.99362" lon="3.09729">
        <ele>568.2763672</ele>
        <time>2013-08-09T05:01:23Z</time>
      </trkpt>
      <trkpt lat="43.99359" lon="3.09724">
        <ele>573.083252</ele>
        <time>2013-08-09T05:01:28Z</time>
      </trkpt>
      <trkpt lat="43.99357" lon="3.09718">
        <ele>574.0444336</ele>
        <time>2013-08-09T05:01:33Z</time>
      </trkpt>
      <trkpt lat="43.99357" lon="3.09712">
        <ele>570.1989746</ele>
        <time>2013-08-09T05:01:37Z</time>
      </trkpt>
      <trkpt lat="43.99356" lon="3.09708">
        <ele>568.2763672</ele>
        <time>2013-08-09T05:01:41Z</time>
      </trkpt>
      <trkpt lat="43.99354" lon="3.097">
        <ele>565.3925781</ele>
        <time>2013-08-09T05:01:50Z</time>
      </trkpt>
      <trkpt lat="43.99352" lon="3.09695">
        <ele>567.7956543</ele>
        <time>2013-08-09T05:01:56Z</time>
      </trkpt>
      <trkpt lat="43.99351" lon="3.0969">
        <ele>569.237793</ele>
        <time>2013-08-09T05:02:00Z</time>
      </trkpt>
      <trkpt lat="43.9935" lon="3.09687">
        <ele>569.237793</ele>
        <time>2013-08-09T05:02:05Z</time>
      </trkpt>
      <trkpt lat="43.99349" lon="3.09682">
        <ele>563.9504395</ele>
        <time>2013-08-09T05:02:11Z</time>
      </trkpt>
      <trkpt lat="43.99345" lon="3.09677">
        <ele>567.3151855</ele>
        <time>2013-08-09T05:02:17Z</time>
      </trkpt>
      <trkpt lat="43.99343" lon="3.09673">
        <ele>569.7185059</ele>
        <time>2013-08-09T05:02:21Z</time>
      </trkpt>
      <trkpt lat="43.99338" lon="3.09667">
        <ele>572.6025391</ele>
        <time>2013-08-09T05:02:28Z</time>
      </trkpt>
      <trkpt lat="43.99335" lon="3.09661">
        <ele>573.083252</ele>
        <time>2013-08-09T05:02:34Z</time>
      </trkpt>
      <trkpt lat="43.99331" lon="3.09654">
        <ele>571.6408691</ele>
        <time>2013-08-09T05:02:40Z</time>
      </trkpt>
      <trkpt lat="43.99327" lon="3.09645">
        <ele>571.1604004</ele>
        <time>2013-08-09T05:02:47Z</time>
      </trkpt>
      <trkpt lat="43.99325" lon="3.09641">
        <ele>570.1989746</ele>
        <time>2013-08-09T05:02:51Z</time>
      </trkpt>
      <trkpt lat="43.99319" lon="3.09631">
        <ele>571.6408691</ele>
        <time>2013-08-09T05:03:00Z</time>
      </trkpt>
      <trkpt lat="43.99316" lon="3.09628">
        <ele>572.1218262</ele>
        <time>2013-08-09T05:03:04Z</time>
      </trkpt>
      <trkpt lat="43.99314" lon="3.09621">
        <ele>572.1218262</ele>
        <time>2013-08-09T05:03:10Z</time>
      </trkpt>
      <trkpt lat="43.99312" lon="3.09614">
        <ele>571.6408691</ele>
        <time>2013-08-09T05:03:16Z</time>
      </trkpt>
      <trkpt lat="43.99308" lon="3.09607">
        <ele>571.6408691</ele>
        <time>2013-08-09T05:03:22Z</time>
      </trkpt>
      <trkpt lat="43.99307" lon="3.09604">
        <ele>572.6025391</ele>
        <time>2013-08-09T05:03:24Z</time>
      </trkpt>
      <trkpt lat="43.99305" lon="3.09597">
        <ele>573.5639648</ele>
        <time>2013-08-09T05:03:29Z</time>
      </trkpt>
      <trkpt lat="43.99303" lon="3.09593">
        <ele>573.5639648</ele>
        <time>2013-08-09T05:03:32Z</time>
      </trkpt>
      <trkpt lat="43.99301" lon="3.09585">
        <ele>573.083252</ele>
        <time>2013-08-09T05:03:39Z</time>
      </trkpt>
      <trkpt lat="43.99298" lon="3.09575">
        <ele>573.083252</ele>
        <time>2013-08-09T05:03:47Z</time>
      </trkpt>
      <trkpt lat="43.99294" lon="3.09567">
        <ele>574.0444336</ele>
        <time>2013-08-09T05:03:54Z</time>
      </trkpt>
      <trkpt lat="43.99292" lon="3.09566">
        <ele>574.5251465</ele>
        <time>2013-08-09T05:03:56Z</time>
      </trkpt>
      <trkpt lat="43.99289" lon="3.0956">
        <ele>575.967041</ele>
        <time>2013-08-09T05:04:00Z</time>
      </trkpt>
      <trkpt lat="43.99287" lon="3.09555">
        <ele>576.4477539</ele>
        <time>2013-08-09T05:04:04Z</time>
      </trkpt>
      <trkpt lat="43.99284" lon="3.09543">
        <ele>577.4091797</ele>
        <time>2013-08-09T05:04:13Z</time>
      </trkpt>
      <trkpt lat="43.99281" lon="3.09533">
        <ele>578.8510742</ele>
        <time>2013-08-09T05:04:20Z</time>
      </trkpt>
      <trkpt lat="43.99277" lon="3.0952">
        <ele>580.2929688</ele>
        <time>2013-08-09T05:04:31Z</time>
      </trkpt>
      <trkpt lat="43.99272" lon="3.09515">
        <ele>581.7348633</ele>
        <time>2013-08-09T05:04:37Z</time>
      </trkpt>
      <trkpt lat="43.99269" lon="3.09512">
        <ele>583.1767578</ele>
        <time>2013-08-09T05:04:41Z</time>
      </trkpt>
      <trkpt lat="43.99262" lon="3.09507">
        <ele>584.1381836</ele>
        <time>2013-08-09T05:04:48Z</time>
      </trkpt>
      <trkpt lat="43.99256" lon="3.09502">
        <ele>584.6188965</ele>
        <time>2013-08-09T05:04:55Z</time>
      </trkpt>
      <trkpt lat="43.99251" lon="3.09498">
        <ele>585.0996094</ele>
        <time>2013-08-09T05:05:00Z</time>
      </trkpt>
      <trkpt lat="43.99249" lon="3.09497">
        <ele>584.6188965</ele>
        <time>2013-08-09T05:05:03Z</time>
      </trkpt>
      <trkpt lat="43.99243" lon="3.09494">
        <ele>584.6188965</ele>
        <time>2013-08-09T05:05:09Z</time>
      </trkpt>
      <trkpt lat="43.99238" lon="3.09491">
        <ele>585.5800781</ele>
        <time>2013-08-09T05:05:15Z</time>
      </trkpt>
      <trkpt lat="43.99235" lon="3.09488">
        <ele>587.5026855</ele>
        <time>2013-08-09T05:05:19Z</time>
      </trkpt>
      <trkpt lat="43.99228" lon="3.09485">
        <ele>585.5800781</ele>
        <time>2013-08-09T05:05:25Z</time>
      </trkpt>
      <trkpt lat="43.99223" lon="3.09481">
        <ele>585.5800781</ele>
        <time>2013-08-09T05:05:31Z</time>
      </trkpt>
      <trkpt lat="43.99219" lon="3.09478">
        <ele>586.5415039</ele>
        <time>2013-08-09T05:05:36Z</time>
      </trkpt>
      <trkpt lat="43.99213" lon="3.09473">
        <ele>589.4255371</ele>
        <time>2013-08-09T05:05:43Z</time>
      </trkpt>
      <trkpt lat="43.99209" lon="3.0947">
        <ele>590.8674316</ele>
        <time>2013-08-09T05:05:48Z</time>
      </trkpt>
      <trkpt lat="43.99205" lon="3.09465">
        <ele>590.3869629</ele>
        <time>2013-08-09T05:05:54Z</time>
      </trkpt>
      <trkpt lat="43.992" lon="3.09461">
        <ele>590.8674316</ele>
        <time>2013-08-09T05:05:59Z</time>
      </trkpt>
      <trkpt lat="43.99192" lon="3.09454">
        <ele>592.3095703</ele>
        <time>2013-08-09T05:06:08Z</time>
      </trkpt>
      <trkpt lat="43.99186" lon="3.09451">
        <ele>592.3095703</ele>
        <time>2013-08-09T05:06:15Z</time>
      </trkpt>
      <trkpt lat="43.99184" lon="3.09451">
        <ele>592.7902832</ele>
        <time>2013-08-09T05:06:17Z</time>
      </trkpt>
      <trkpt lat="43.99176" lon="3.09452">
        <ele>593.7514648</ele>
        <time>2013-08-09T05:06:23Z</time>
      </trkpt>
      <trkpt lat="43.99167" lon="3.09449">
        <ele>595.1933594</ele>
        <time>2013-08-09T05:06:32Z</time>
      </trkpt>
      <trkpt lat="43.99161" lon="3.09445">
        <ele>597.1159668</ele>
        <time>2013-08-09T05:06:39Z</time>
      </trkpt>
      <trkpt lat="43.99154" lon="3.09439">
        <ele>598.5578613</ele>
        <time>2013-08-09T05:06:47Z</time>
      </trkpt>
      <trkpt lat="43.99148" lon="3.09434">
        <ele>600.4807129</ele>
        <time>2013-08-09T05:06:54Z</time>
      </trkpt>
      <trkpt lat="43.9914" lon="3.09429">
        <ele>601.4418945</ele>
        <time>2013-08-09T05:07:01Z</time>
      </trkpt>
      <trkpt lat="43.99132" lon="3.09424">
        <ele>602.8837891</ele>
        <time>2013-08-09T05:07:09Z</time>
      </trkpt>
      <trkpt lat="43.99126" lon="3.09419">
        <ele>604.8066406</ele>
        <time>2013-08-09T05:07:16Z</time>
      </trkpt>
      <trkpt lat="43.99118" lon="3.09415">
        <ele>607.2099609</ele>
        <time>2013-08-09T05:07:23Z</time>
      </trkpt>
      <trkpt lat="43.99117" lon="3.09414">
        <ele>607.2099609</ele>
        <time>2013-08-09T05:07:25Z</time>
      </trkpt>
      <trkpt lat="43.99114" lon="3.09412">
        <ele>606.729248</ele>
        <time>2013-08-09T05:07:28Z</time>
      </trkpt>
      <trkpt lat="43.99107" lon="3.09404">
        <ele>608.6518555</ele>
        <time>2013-08-09T05:07:37Z</time>
      </trkpt>
      <trkpt lat="43.99107" lon="3.09403">
        <ele>608.6518555</ele>
        <time>2013-08-09T05:07:38Z</time>
      </trkpt>
      <trkpt lat="43.99105" lon="3.09398">
        <ele>610.09375</ele>
        <time>2013-08-09T05:07:42Z</time>
      </trkpt>
      <trkpt lat="43.99102" lon="3.09393">
        <ele>611.5358887</ele>
        <time>2013-08-09T05:07:49Z</time>
      </trkpt>
      <trkpt lat="43.99096" lon="3.09391">
        <ele>611.5358887</ele>
        <time>2013-08-09T05:07:55Z</time>
      </trkpt>
      <trkpt lat="43.99089" lon="3.0939">
        <ele>610.09375</ele>
        <time>2013-08-09T05:08:03Z</time>
      </trkpt>
      <trkpt lat="43.99084" lon="3.09387">
        <ele>609.6132813</ele>
        <time>2013-08-09T05:08:08Z</time>
      </trkpt>
      <trkpt lat="43.99077" lon="3.09385">
        <ele>612.4970703</ele>
        <time>2013-08-09T05:08:16Z</time>
      </trkpt>
      <trkpt lat="43.99071" lon="3.09381">
        <ele>614.4196777</ele>
        <time>2013-08-09T05:08:23Z</time>
      </trkpt>
      <trkpt lat="43.99065" lon="3.09378">
        <ele>613.4584961</ele>
        <time>2013-08-09T05:08:30Z</time>
      </trkpt>
      <trkpt lat="43.99062" lon="3.09377">
        <ele>613.9389648</ele>
        <time>2013-08-09T05:08:37Z</time>
      </trkpt>
      <trkpt lat="43.99057" lon="3.0937">
        <ele>614.4196777</ele>
        <time>2013-08-09T05:08:44Z</time>
      </trkpt>
      <trkpt lat="43.99049" lon="3.09363">
        <ele>613.4584961</ele>
        <time>2013-08-09T05:08:53Z</time>
      </trkpt>
      <trkpt lat="43.99045" lon="3.0936">
        <ele>613.9389648</ele>
        <time>2013-08-09T05:08:58Z</time>
      </trkpt>
      <trkpt lat="43.99039" lon="3.09353">
        <ele>612.0166016</ele>
        <time>2013-08-09T05:09:06Z</time>
      </trkpt>
      <trkpt lat="43.99035" lon="3.09347">
        <ele>612.9777832</ele>
        <time>2013-08-09T05:09:12Z</time>
      </trkpt>
      <trkpt lat="43.99029" lon="3.0934">
        <ele>617.3037109</ele>
        <time>2013-08-09T05:09:19Z</time>
      </trkpt>
      <trkpt lat="43.99023" lon="3.09333">
        <ele>619.7070313</ele>
        <time>2013-08-09T05:09:26Z</time>
      </trkpt>
      <trkpt lat="43.99018" lon="3.09329">
        <ele>621.1491699</ele>
        <time>2013-08-09T05:09:32Z</time>
      </trkpt>
      <trkpt lat="43.99012" lon="3.09324">
        <ele>623.5524902</ele>
        <time>2013-08-09T05:09:40Z</time>
      </trkpt>
      <trkpt lat="43.99006" lon="3.0932">
        <ele>624.5136719</ele>
        <time>2013-08-09T05:09:47Z</time>
      </trkpt>
      <trkpt lat="43.98999" lon="3.09317">
        <ele>623.5524902</ele>
        <time>2013-08-09T05:09:55Z</time>
      </trkpt>
      <trkpt lat="43.98994" lon="3.09313">
        <ele>624.5136719</ele>
        <time>2013-08-09T05:10:02Z</time>
      </trkpt>
      <trkpt lat="43.98988" lon="3.09308">
        <ele>627.3977051</ele>
        <time>2013-08-09T05:10:11Z</time>
      </trkpt>
      <trkpt lat="43.98985" lon="3.09305">
        <ele>628.3588867</ele>
        <time>2013-08-09T05:10:16Z</time>
      </trkpt>
      <trkpt lat="43.9898" lon="3.093">
        <ele>631.7233887</ele>
        <time>2013-08-09T05:10:22Z</time>
      </trkpt>
      <trkpt lat="43.98976" lon="3.09295">
        <ele>633.1652832</ele>
        <time>2013-08-09T05:10:29Z</time>
      </trkpt>
      <trkpt lat="43.98973" lon="3.09293">
        <ele>633.6459961</ele>
        <time>2013-08-09T05:10:34Z</time>
      </trkpt>
      <trkpt lat="43.98969" lon="3.09289">
        <ele>634.126709</ele>
        <time>2013-08-09T05:10:40Z</time>
      </trkpt>
      <trkpt lat="43.98964" lon="3.09284">
        <ele>637.4914551</ele>
        <time>2013-08-09T05:10:47Z</time>
      </trkpt>
      <trkpt lat="43.98959" lon="3.09279">
        <ele>638.9335938</ele>
        <time>2013-08-09T05:10:54Z</time>
      </trkpt>
      <trkpt lat="43.98955" lon="3.09275">
        <ele>639.8947754</ele>
        <time>2013-08-09T05:11:01Z</time>
      </trkpt>
      <trkpt lat="43.98952" lon="3.0927">
        <ele>639.8947754</ele>
        <time>2013-08-09T05:11:07Z</time>
      </trkpt>
      <trkpt lat="43.98949" lon="3.09267">
        <ele>640.855957</ele>
        <time>2013-08-09T05:11:12Z</time>
      </trkpt>
      <trkpt lat="43.98943" lon="3.09265">
        <ele>641.8173828</ele>
        <time>2013-08-09T05:11:19Z</time>
      </trkpt>
      <trkpt lat="43.98938" lon="3.09262">
        <ele>639.4140625</ele>
        <time>2013-08-09T05:11:26Z</time>
      </trkpt>
      <trkpt lat="43.98933" lon="3.0926">
        <ele>639.8947754</ele>
        <time>2013-08-09T05:11:33Z</time>
      </trkpt>
      <trkpt lat="43.98929" lon="3.09257">
        <ele>639.4140625</ele>
        <time>2013-08-09T05:11:40Z</time>
      </trkpt>
      <trkpt lat="43.98925" lon="3.09254">
        <ele>643.2592773</ele>
        <time>2013-08-09T05:11:46Z</time>
      </trkpt>
      <trkpt lat="43.9892" lon="3.09249">
        <ele>649.5078125</ele>
        <time>2013-08-09T05:11:52Z</time>
      </trkpt>
      <trkpt lat="43.98915" lon="3.09245">
        <ele>651.9111328</ele>
        <time>2013-08-09T05:11:58Z</time>
      </trkpt>
      <trkpt lat="43.98909" lon="3.0924">
        <ele>651.4304199</ele>
        <time>2013-08-09T05:12:06Z</time>
      </trkpt>
      <trkpt lat="43.98905" lon="3.09236">
        <ele>650.4692383</ele>
        <time>2013-08-09T05:12:12Z</time>
      </trkpt>
      <trkpt lat="43.989" lon="3.09234">
        <ele>649.5078125</ele>
        <time>2013-08-09T05:12:18Z</time>
      </trkpt>
      <trkpt lat="43.98891" lon="3.09236">
        <ele>649.0270996</ele>
        <time>2013-08-09T05:12:27Z</time>
      </trkpt>
      <trkpt lat="43.98886" lon="3.09239">
        <ele>648.5463867</ele>
        <time>2013-08-09T05:12:33Z</time>
      </trkpt>
      <trkpt lat="43.9888" lon="3.09242">
        <ele>648.5463867</ele>
        <time>2013-08-09T05:12:40Z</time>
      </trkpt>
      <trkpt lat="43.98872" lon="3.09247">
        <ele>650.4692383</ele>
        <time>2013-08-09T05:12:47Z</time>
      </trkpt>
      <trkpt lat="43.98871" lon="3.09248">
        <ele>650.4692383</ele>
        <time>2013-08-09T05:12:49Z</time>
      </trkpt>
      <trkpt lat="43.98865" lon="3.09252">
        <ele>649.0270996</ele>
        <time>2013-08-09T05:12:55Z</time>
      </trkpt>
      <trkpt lat="43.98858" lon="3.09258">
        <ele>650.949707</ele>
        <time>2013-08-09T05:13:02Z</time>
      </trkpt>
      <trkpt lat="43.98857" lon="3.09259">
        <ele>651.4304199</ele>
        <time>2013-08-09T05:13:03Z</time>
      </trkpt>
      <trkpt lat="43.98848" lon="3.09263">
        <ele>654.3146973</ele>
        <time>2013-08-09T05:13:11Z</time>
      </trkpt>
      <trkpt lat="43.98842" lon="3.09267">
        <ele>656.7177734</ele>
        <time>2013-08-09T05:13:20Z</time>
      </trkpt>
      <trkpt lat="43.98838" lon="3.09268">
        <ele>657.6791992</ele>
        <time>2013-08-09T05:13:24Z</time>
      </trkpt>
      <trkpt lat="43.98832" lon="3.0927">
        <ele>657.6791992</ele>
        <time>2013-08-09T05:13:31Z</time>
      </trkpt>
      <trkpt lat="43.98826" lon="3.09267">
        <ele>658.1599121</ele>
        <time>2013-08-09T05:13:37Z</time>
      </trkpt>
      <trkpt lat="43.98825" lon="3.09266">
        <ele>658.1599121</ele>
        <time>2013-08-09T05:13:38Z</time>
      </trkpt>
      <trkpt lat="43.98822" lon="3.09259">
        <ele>658.1599121</ele>
        <time>2013-08-09T05:13:43Z</time>
      </trkpt>
      <trkpt lat="43.9882" lon="3.09253">
        <ele>658.1599121</ele>
        <time>2013-08-09T05:13:48Z</time>
      </trkpt>
      <trkpt lat="43.98821" lon="3.09245">
        <ele>655.7565918</ele>
        <time>2013-08-09T05:13:56Z</time>
      </trkpt>
      <trkpt lat="43.98824" lon="3.09238">
        <ele>655.2758789</ele>
        <time>2013-08-09T05:14:03Z</time>
      </trkpt>
      <trkpt lat="43.98828" lon="3.09233">
        <ele>655.7565918</ele>
        <time>2013-08-09T05:14:08Z</time>
      </trkpt>
      <trkpt lat="43.98831" lon="3.09229">
        <ele>656.2370605</ele>
        <time>2013-08-09T05:14:14Z</time>
      </trkpt>
      <trkpt lat="43.98835" lon="3.09224">
        <ele>655.7565918</ele>
        <time>2013-08-09T05:14:19Z</time>
      </trkpt>
      <trkpt lat="43.98838" lon="3.09219">
        <ele>654.3146973</ele>
        <time>2013-08-09T05:14:25Z</time>
      </trkpt>
      <trkpt lat="43.98842" lon="3.09215">
        <ele>653.8339844</ele>
        <time>2013-08-09T05:14:29Z</time>
      </trkpt>
      <trkpt lat="43.98846" lon="3.09211">
        <ele>652.3918457</ele>
        <time>2013-08-09T05:14:33Z</time>
      </trkpt>
      <trkpt lat="43.9885" lon="3.09203">
        <ele>653.8339844</ele>
        <time>2013-08-09T05:14:40Z</time>
      </trkpt>
      <trkpt lat="43.98852" lon="3.09197">
        <ele>652.3918457</ele>
        <time>2013-08-09T05:14:45Z</time>
      </trkpt>
      <trkpt lat="43.9885" lon="3.09191">
        <ele>652.8725586</ele>
        <time>2013-08-09T05:14:50Z</time>
      </trkpt>
      <trkpt lat="43.98845" lon="3.09187">
        <ele>657.1984863</ele>
        <time>2013-08-09T05:14:56Z</time>
      </trkpt>
      <trkpt lat="43.98841" lon="3.09186">
        <ele>659.1210938</ele>
        <time>2013-08-09T05:15:01Z</time>
      </trkpt>
      <trkpt lat="43.98836" lon="3.09181">
        <ele>662.005127</ele>
        <time>2013-08-09T05:15:08Z</time>
      </trkpt>
      <trkpt lat="43.98833" lon="3.09178">
        <ele>662.005127</ele>
        <time>2013-08-09T05:15:13Z</time>
      </trkpt>
      <trkpt lat="43.98831" lon="3.09175">
        <ele>661.5244141</ele>
        <time>2013-08-09T05:15:19Z</time>
      </trkpt>
      <trkpt lat="43.98824" lon="3.09173">
        <ele>661.5244141</ele>
        <time>2013-08-09T05:15:25Z</time>
      </trkpt>
      <trkpt lat="43.98823" lon="3.09172">
        <ele>662.4855957</ele>
        <time>2013-08-09T05:15:26Z</time>
      </trkpt>
      <trkpt lat="43.98818" lon="3.09169">
        <ele>663.4470215</ele>
        <time>2013-08-09T05:15:31Z</time>
      </trkpt>
      <trkpt lat="43.98817" lon="3.09162">
        <ele>664.888916</ele>
        <time>2013-08-09T05:15:35Z</time>
      </trkpt>
      <trkpt lat="43.98815" lon="3.09159">
        <ele>666.8115234</ele>
        <time>2013-08-09T05:15:49Z</time>
      </trkpt>
      <trkpt lat="43.98812" lon="3.09156">
        <ele>665.3696289</ele>
        <time>2013-08-09T05:15:54Z</time>
      </trkpt>
      <trkpt lat="43.98806" lon="3.09153">
        <ele>665.3696289</ele>
        <time>2013-08-09T05:16:00Z</time>
      </trkpt>
      <trkpt lat="43.988" lon="3.09149">
        <ele>666.3308105</ele>
        <time>2013-08-09T05:16:06Z</time>
      </trkpt>
      <trkpt lat="43.98792" lon="3.09144">
        <ele>666.8115234</ele>
        <time>2013-08-09T05:16:13Z</time>
      </trkpt>
      <trkpt lat="43.98785" lon="3.09142">
        <ele>666.8115234</ele>
        <time>2013-08-09T05:16:20Z</time>
      </trkpt>
      <trkpt lat="43.9878" lon="3.09144">
        <ele>666.8115234</ele>
        <time>2013-08-09T05:16:28Z</time>
      </trkpt>
      <trkpt lat="43.98776" lon="3.09146">
        <ele>665.3696289</ele>
        <time>2013-08-09T05:16:34Z</time>
      </trkpt>
      <trkpt lat="43.98768" lon="3.09148">
        <ele>664.4082031</ele>
        <time>2013-08-09T05:16:40Z</time>
      </trkpt>
      <trkpt lat="43.98764" lon="3.09147">
        <ele>664.888916</ele>
        <time>2013-08-09T05:16:45Z</time>
      </trkpt>
      <trkpt lat="43.98757" lon="3.09145">
        <ele>666.3308105</ele>
        <time>2013-08-09T05:16:52Z</time>
      </trkpt>
      <trkpt lat="43.98754" lon="3.09143">
        <ele>666.8115234</ele>
        <time>2013-08-09T05:16:55Z</time>
      </trkpt>
      <trkpt lat="43.98749" lon="3.09137">
        <ele>668.2536621</ele>
        <time>2013-08-09T05:17:01Z</time>
      </trkpt>
      <trkpt lat="43.98743" lon="3.09137">
        <ele>667.7727051</ele>
        <time>2013-08-09T05:17:05Z</time>
      </trkpt>
      <trkpt lat="43.98738" lon="3.09135">
        <ele>667.7727051</ele>
        <time>2013-08-09T05:17:10Z</time>
      </trkpt>
      <trkpt lat="43.9873" lon="3.09133">
        <ele>668.734375</ele>
        <time>2013-08-09T05:17:18Z</time>
      </trkpt>
      <trkpt lat="43.9872" lon="3.09124">
        <ele>669.6958008</ele>
        <time>2013-08-09T05:17:28Z</time>
      </trkpt>
      <trkpt lat="43.98717" lon="3.09121">
        <ele>671.6181641</ele>
        <time>2013-08-09T05:17:31Z</time>
      </trkpt>
      <trkpt lat="43.98708" lon="3.09116">
        <ele>673.5410156</ele>
        <time>2013-08-09T05:17:39Z</time>
      </trkpt>
      <trkpt lat="43.98706" lon="3.09116">
        <ele>674.0214844</ele>
        <time>2013-08-09T05:17:41Z</time>
      </trkpt>
      <trkpt lat="43.987" lon="3.09112">
        <ele>674.5021973</ele>
        <time>2013-08-09T05:17:48Z</time>
      </trkpt>
      <trkpt lat="43.98696" lon="3.09111">
        <ele>674.9829102</ele>
        <time>2013-08-09T05:17:51Z</time>
      </trkpt>
      <trkpt lat="43.98692" lon="3.09107">
        <ele>674.9829102</ele>
        <time>2013-08-09T05:17:55Z</time>
      </trkpt>
      <trkpt lat="43.98688" lon="3.09098">
        <ele>673.5410156</ele>
        <time>2013-08-09T05:18:02Z</time>
      </trkpt>
      <trkpt lat="43.98686" lon="3.09092">
        <ele>672.5795898</ele>
        <time>2013-08-09T05:18:06Z</time>
      </trkpt>
      <trkpt lat="43.98681" lon="3.09081">
        <ele>674.9829102</ele>
        <time>2013-08-09T05:18:13Z</time>
      </trkpt>
      <trkpt lat="43.98676" lon="3.0907">
        <ele>674.9829102</ele>
        <time>2013-08-09T05:18:21Z</time>
      </trkpt>
      <trkpt lat="43.98672" lon="3.0906">
        <ele>675.9440918</ele>
        <time>2013-08-09T05:18:28Z</time>
      </trkpt>
      <trkpt lat="43.98667" lon="3.09051">
        <ele>677.3862305</ele>
        <time>2013-08-09T05:18:35Z</time>
      </trkpt>
      <trkpt lat="43.98663" lon="3.09043">
        <ele>678.828125</ele>
        <time>2013-08-09T05:18:41Z</time>
      </trkpt>
      <trkpt lat="43.98658" lon="3.09036">
        <ele>676.9055176</ele>
        <time>2013-08-09T05:18:47Z</time>
      </trkpt>
      <trkpt lat="43.98653" lon="3.09025">
        <ele>675.4633789</ele>
        <time>2013-08-09T05:18:55Z</time>
      </trkpt>
      <trkpt lat="43.98649" lon="3.09015">
        <ele>672.098877</ele>
        <time>2013-08-09T05:19:03Z</time>
      </trkpt>
      <trkpt lat="43.98647" lon="3.09011">
        <ele>674.0214844</ele>
        <time>2013-08-09T05:19:06Z</time>
      </trkpt>
      <trkpt lat="43.98648" lon="3.09003">
        <ele>674.5021973</ele>
        <time>2013-08-09T05:19:11Z</time>
      </trkpt>
      <trkpt lat="43.98647" lon="3.08995">
        <ele>676.9055176</ele>
        <time>2013-08-09T05:19:17Z</time>
      </trkpt>
      <trkpt lat="43.98645" lon="3.0899">
        <ele>678.828125</ele>
        <time>2013-08-09T05:19:21Z</time>
      </trkpt>
      <trkpt lat="43.98636" lon="3.08981">
        <ele>683.6345215</ele>
        <time>2013-08-09T05:19:29Z</time>
      </trkpt>
      <trkpt lat="43.98629" lon="3.08976">
        <ele>683.6345215</ele>
        <time>2013-08-09T05:19:36Z</time>
      </trkpt>
      <trkpt lat="43.98622" lon="3.08969">
        <ele>682.192627</ele>
        <time>2013-08-09T05:19:43Z</time>
      </trkpt>
      <trkpt lat="43.98621" lon="3.08967">
        <ele>682.6733398</ele>
        <time>2013-08-09T05:19:44Z</time>
      </trkpt>
      <trkpt lat="43.98616" lon="3.08964">
        <ele>684.1154785</ele>
        <time>2013-08-09T05:19:50Z</time>
      </trkpt>
      <trkpt lat="43.98613" lon="3.08962">
        <ele>683.6345215</ele>
        <time>2013-08-09T05:19:53Z</time>
      </trkpt>
      <trkpt lat="43.98607" lon="3.08955">
        <ele>682.192627</ele>
        <time>2013-08-09T05:20:01Z</time>
      </trkpt>
      <trkpt lat="43.98604" lon="3.08952">
        <ele>682.192627</ele>
        <time>2013-08-09T05:20:05Z</time>
      </trkpt>
      <trkpt lat="43.98602" lon="3.08948">
        <ele>682.6733398</ele>
        <time>2013-08-09T05:20:08Z</time>
      </trkpt>
      <trkpt lat="43.98595" lon="3.08942">
        <ele>681.7119141</ele>
        <time>2013-08-09T05:20:16Z</time>
      </trkpt>
      <trkpt lat="43.9859" lon="3.08937">
        <ele>681.2314453</ele>
        <time>2013-08-09T05:20:23Z</time>
      </trkpt>
      <trkpt lat="43.98587" lon="3.08935">
        <ele>682.6733398</ele>
        <time>2013-08-09T05:20:28Z</time>
      </trkpt>
      <trkpt lat="43.98583" lon="3.08931">
        <ele>682.192627</ele>
        <time>2013-08-09T05:20:33Z</time>
      </trkpt>
      <trkpt lat="43.98578" lon="3.08926">
        <ele>683.1538086</ele>
        <time>2013-08-09T05:20:40Z</time>
      </trkpt>
      <trkpt lat="43.98576" lon="3.08922">
        <ele>682.192627</ele>
        <time>2013-08-09T05:20:46Z</time>
      </trkpt>
      <trkpt lat="43.98572" lon="3.08919">
        <ele>684.1154785</ele>
        <time>2013-08-09T05:20:51Z</time>
      </trkpt>
      <trkpt lat="43.98568" lon="3.08914">
        <ele>685.0769043</ele>
        <time>2013-08-09T05:20:57Z</time>
      </trkpt>
      <trkpt lat="43.98563" lon="3.08912">
        <ele>685.557373</ele>
        <time>2013-08-09T05:21:02Z</time>
      </trkpt>
      <trkpt lat="43.98557" lon="3.0891">
        <ele>687.4799805</ele>
        <time>2013-08-09T05:21:09Z</time>
      </trkpt>
      <trkpt lat="43.98549" lon="3.08914">
        <ele>689.4025879</ele>
        <time>2013-08-09T05:21:16Z</time>
      </trkpt>
      <trkpt lat="43.98548" lon="3.08912">
        <ele>689.8833008</ele>
        <time>2013-08-09T05:21:18Z</time>
      </trkpt>
      <trkpt lat="43.98542" lon="3.08904">
        <ele>691.3251953</ele>
        <time>2013-08-09T05:21:26Z</time>
      </trkpt>
      <trkpt lat="43.98541" lon="3.08903">
        <ele>691.3251953</ele>
        <time>2013-08-09T05:21:28Z</time>
      </trkpt>
      <trkpt lat="43.98536" lon="3.08904">
        <ele>692.767334</ele>
        <time>2013-08-09T05:21:32Z</time>
      </trkpt>
      <trkpt lat="43.98531" lon="3.08909">
        <ele>693.7285156</ele>
        <time>2013-08-09T05:21:38Z</time>
      </trkpt>
      <trkpt lat="43.98529" lon="3.08913">
        <ele>694.2092285</ele>
        <time>2013-08-09T05:21:42Z</time>
      </trkpt>
      <trkpt lat="43.98522" lon="3.0892">
        <ele>695.1704102</ele>
        <time>2013-08-09T05:21:51Z</time>
      </trkpt>
      <trkpt lat="43.98518" lon="3.08919">
        <ele>695.1704102</ele>
        <time>2013-08-09T05:21:57Z</time>
      </trkpt>
      <trkpt lat="43.98511" lon="3.08919">
        <ele>697.0930176</ele>
        <time>2013-08-09T05:22:04Z</time>
      </trkpt>
      <trkpt lat="43.98505" lon="3.08918">
        <ele>699.9770508</ele>
        <time>2013-08-09T05:22:11Z</time>
      </trkpt>
      <trkpt lat="43.98499" lon="3.08917">
        <ele>700.9384766</ele>
        <time>2013-08-09T05:22:19Z</time>
      </trkpt>
      <trkpt lat="43.98495" lon="3.08917">
        <ele>702.3803711</ele>
        <time>2013-08-09T05:22:25Z</time>
      </trkpt>
      <trkpt lat="43.9849" lon="3.08915">
        <ele>702.861084</ele>
        <time>2013-08-09T05:22:31Z</time>
      </trkpt>
      <trkpt lat="43.98486" lon="3.0891">
        <ele>703.8225098</ele>
        <time>2013-08-09T05:22:38Z</time>
      </trkpt>
      <trkpt lat="43.9848" lon="3.08903">
        <ele>706.7062988</ele>
        <time>2013-08-09T05:22:46Z</time>
      </trkpt>
      <trkpt lat="43.98478" lon="3.089">
        <ele>707.1870117</ele>
        <time>2013-08-09T05:22:49Z</time>
      </trkpt>
      <trkpt lat="43.98471" lon="3.08891">
        <ele>709.590332</ele>
        <time>2013-08-09T05:22:57Z</time>
      </trkpt>
      <trkpt lat="43.98468" lon="3.08888">
        <ele>709.590332</ele>
        <time>2013-08-09T05:23:00Z</time>
      </trkpt>
      <trkpt lat="43.98463" lon="3.08881">
        <ele>710.0708008</ele>
        <time>2013-08-09T05:23:07Z</time>
      </trkpt>
      <trkpt lat="43.98456" lon="3.08875">
        <ele>711.9936523</ele>
        <time>2013-08-09T05:23:13Z</time>
      </trkpt>
      <trkpt lat="43.98455" lon="3.0887">
        <ele>712.4741211</ele>
        <time>2013-08-09T05:23:16Z</time>
      </trkpt>
      <trkpt lat="43.98453" lon="3.08869">
        <ele>712.4741211</ele>
        <time>2013-08-09T05:23:18Z</time>
      </trkpt>
      <trkpt lat="43.98451" lon="3.08862">
        <ele>711.9936523</ele>
        <time>2013-08-09T05:23:23Z</time>
      </trkpt>
      <trkpt lat="43.98449" lon="3.08859">
        <ele>711.5129395</ele>
        <time>2013-08-09T05:23:26Z</time>
      </trkpt>
      <trkpt lat="43.98448" lon="3.08857">
        <ele>711.5129395</ele>
        <time>2013-08-09T05:23:28Z</time>
      </trkpt>
      <trkpt lat="43.98447" lon="3.08855">
        <ele>711.9936523</ele>
        <time>2013-08-09T05:23:30Z</time>
      </trkpt>
      <trkpt lat="43.98444" lon="3.08854">
        <ele>712.954834</ele>
        <time>2013-08-09T05:23:33Z</time>
      </trkpt>
      <trkpt lat="43.98439" lon="3.0885">
        <ele>716.3195801</ele>
        <time>2013-08-09T05:23:39Z</time>
      </trkpt>
      <trkpt lat="43.98436" lon="3.08846">
        <ele>716.3195801</ele>
        <time>2013-08-09T05:23:44Z</time>
      </trkpt>
      <trkpt lat="43.98431" lon="3.08843">
        <ele>716.800293</ele>
        <time>2013-08-09T05:23:49Z</time>
      </trkpt>
      <trkpt lat="43.9843" lon="3.0884">
        <ele>716.800293</ele>
        <time>2013-08-09T05:23:51Z</time>
      </trkpt>
      <trkpt lat="43.98428" lon="3.08836">
        <ele>715.8388672</ele>
        <time>2013-08-09T05:23:54Z</time>
      </trkpt>
      <trkpt lat="43.98421" lon="3.08831">
        <ele>717.2810059</ele>
        <time>2013-08-09T05:24:00Z</time>
      </trkpt>
      <trkpt lat="43.98421" lon="3.08829">
        <ele>717.7614746</ele>
        <time>2013-08-09T05:24:01Z</time>
      </trkpt>
      <trkpt lat="43.98416" lon="3.08828">
        <ele>718.2421875</ele>
        <time>2013-08-09T05:24:05Z</time>
      </trkpt>
      <trkpt lat="43.98411" lon="3.0882">
        <ele>719.6843262</ele>
        <time>2013-08-09T05:24:12Z</time>
      </trkpt>
      <trkpt lat="43.98404" lon="3.08813">
        <ele>724.0100098</ele>
        <time>2013-08-09T05:24:19Z</time>
      </trkpt>
      <trkpt lat="43.984" lon="3.08808">
        <ele>724.4907227</ele>
        <time>2013-08-09T05:24:25Z</time>
      </trkpt>
      <trkpt lat="43.98393" lon="3.08802">
        <ele>723.529541</ele>
        <time>2013-08-09T05:24:32Z</time>
      </trkpt>
      <trkpt lat="43.98389" lon="3.088">
        <ele>724.0100098</ele>
        <time>2013-08-09T05:24:36Z</time>
      </trkpt>
      <trkpt lat="43.98388" lon="3.08792">
        <ele>722.0874023</ele>
        <time>2013-08-09T05:24:43Z</time>
      </trkpt>
      <trkpt lat="43.98386" lon="3.08787">
        <ele>718.7229004</ele>
        <time>2013-08-09T05:24:49Z</time>
      </trkpt>
      <trkpt lat="43.98381" lon="3.08779">
        <ele>718.2421875</ele>
        <time>2013-08-09T05:24:56Z</time>
      </trkpt>
      <trkpt lat="43.98379" lon="3.08777">
        <ele>717.7614746</ele>
        <time>2013-08-09T05:24:58Z</time>
      </trkpt>
      <trkpt lat="43.98377" lon="3.08774">
        <ele>719.2036133</ele>
        <time>2013-08-09T05:25:01Z</time>
      </trkpt>
      <trkpt lat="43.98373" lon="3.0877">
        <ele>721.1262207</ele>
        <time>2013-08-09T05:25:05Z</time>
      </trkpt>
      <trkpt lat="43.98372" lon="3.08768">
        <ele>719.6843262</ele>
        <time>2013-08-09T05:25:07Z</time>
      </trkpt>
      <trkpt lat="43.98364" lon="3.08761">
        <ele>723.529541</ele>
        <time>2013-08-09T05:25:15Z</time>
      </trkpt>
      <trkpt lat="43.98356" lon="3.08757">
        <ele>725.9326172</ele>
        <time>2013-08-09T05:25:22Z</time>
      </trkpt>
      <trkpt lat="43.98353" lon="3.08753">
        <ele>726.894043</ele>
        <time>2013-08-09T05:25:26Z</time>
      </trkpt>
      <trkpt lat="43.98349" lon="3.0875">
        <ele>727.8552246</ele>
        <time>2013-08-09T05:25:30Z</time>
      </trkpt>
      <trkpt lat="43.98341" lon="3.08747">
        <ele>729.2971191</ele>
        <time>2013-08-09T05:25:37Z</time>
      </trkpt>
      <trkpt lat="43.98336" lon="3.08745">
        <ele>728.8166504</ele>
        <time>2013-08-09T05:25:42Z</time>
      </trkpt>
      <trkpt lat="43.98332" lon="3.08743">
        <ele>729.2971191</ele>
        <time>2013-08-09T05:25:46Z</time>
      </trkpt>
      <trkpt lat="43.98325" lon="3.0874">
        <ele>730.2585449</ele>
        <time>2013-08-09T05:25:53Z</time>
      </trkpt>
      <trkpt lat="43.98322" lon="3.08738">
        <ele>730.2585449</ele>
        <time>2013-08-09T05:25:56Z</time>
      </trkpt>
      <trkpt lat="43.98317" lon="3.08734">
        <ele>730.2585449</ele>
        <time>2013-08-09T05:26:02Z</time>
      </trkpt>
      <trkpt lat="43.9831" lon="3.08729">
        <ele>731.2199707</ele>
        <time>2013-08-09T05:26:10Z</time>
      </trkpt>
      <trkpt lat="43.98303" lon="3.08724">
        <ele>732.1813965</ele>
        <time>2013-08-09T05:26:17Z</time>
      </trkpt>
      <trkpt lat="43.983" lon="3.08723">
        <ele>732.6621094</ele>
        <time>2013-08-09T05:26:20Z</time>
      </trkpt>
      <trkpt lat="43.98296" lon="3.08722">
        <ele>734.1040039</ele>
        <time>2013-08-09T05:26:25Z</time>
      </trkpt>
      <trkpt lat="43.9829" lon="3.08718">
        <ele>733.623291</ele>
        <time>2013-08-09T05:26:31Z</time>
      </trkpt>
      <trkpt lat="43.98288" lon="3.08715">
        <ele>734.5847168</ele>
        <time>2013-08-09T05:26:34Z</time>
      </trkpt>
      <trkpt lat="43.98282" lon="3.08714">
        <ele>736.0266113</ele>
        <time>2013-08-09T05:26:39Z</time>
      </trkpt>
      <trkpt lat="43.98278" lon="3.08714">
        <ele>736.987793</ele>
        <time>2013-08-09T05:26:43Z</time>
      </trkpt>
      <trkpt lat="43.98273" lon="3.0871">
        <ele>737.9492188</ele>
        <time>2013-08-09T05:26:48Z</time>
      </trkpt>
      <trkpt lat="43.98263" lon="3.0871">
        <ele>738.4299316</ele>
        <time>2013-08-09T05:26:57Z</time>
      </trkpt>
      <trkpt lat="43.98255" lon="3.08707">
        <ele>737.9492188</ele>
        <time>2013-08-09T05:27:05Z</time>
      </trkpt>
      <trkpt lat="43.98253" lon="3.08707">
        <ele>738.4299316</ele>
        <time>2013-08-09T05:27:07Z</time>
      </trkpt>
      <trkpt lat="43.98247" lon="3.0871">
        <ele>739.3911133</ele>
        <time>2013-08-09T05:27:12Z</time>
      </trkpt>
      <trkpt lat="43.98243" lon="3.08711">
        <ele>740.3525391</ele>
        <time>2013-08-09T05:27:15Z</time>
      </trkpt>
      <trkpt lat="43.98241" lon="3.08709">
        <ele>739.8718262</ele>
        <time>2013-08-09T05:27:18Z</time>
      </trkpt>
      <trkpt lat="43.98234" lon="3.08712">
        <ele>741.7944336</ele>
        <time>2013-08-09T05:27:24Z</time>
      </trkpt>
      <trkpt lat="43.98228" lon="3.08712">
        <ele>741.7944336</ele>
        <time>2013-08-09T05:27:31Z</time>
      </trkpt>
      <trkpt lat="43.98225" lon="3.08713">
        <ele>743.2363281</ele>
        <time>2013-08-09T05:27:34Z</time>
      </trkpt>
      <trkpt lat="43.98221" lon="3.08717">
        <ele>743.717041</ele>
        <time>2013-08-09T05:27:40Z</time>
      </trkpt>
      <trkpt lat="43.98215" lon="3.08719">
        <ele>742.7558594</ele>
        <time>2013-08-09T05:27:46Z</time>
      </trkpt>
      <trkpt lat="43.98212" lon="3.08719">
        <ele>740.8330078</ele>
        <time>2013-08-09T05:27:51Z</time>
      </trkpt>
      <trkpt lat="43.98207" lon="3.08718">
        <ele>736.5073242</ele>
        <time>2013-08-09T05:27:57Z</time>
      </trkpt>
      <trkpt lat="43.982" lon="3.08718">
        <ele>733.623291</ele>
        <time>2013-08-09T05:28:03Z</time>
      </trkpt>
      <trkpt lat="43.98196" lon="3.08718">
        <ele>732.6621094</ele>
        <time>2013-08-09T05:28:07Z</time>
      </trkpt>
      <trkpt lat="43.9819" lon="3.08706">
        <ele>738.4299316</ele>
        <time>2013-08-09T05:28:15Z</time>
      </trkpt>
      <trkpt lat="43.98181" lon="3.08703">
        <ele>743.2363281</ele>
        <time>2013-08-09T05:28:22Z</time>
      </trkpt>
      <trkpt lat="43.98175" lon="3.08701">
        <ele>742.2751465</ele>
        <time>2013-08-09T05:28:30Z</time>
      </trkpt>
      <trkpt lat="43.98167" lon="3.08697">
        <ele>746.6010742</ele>
        <time>2013-08-09T05:28:37Z</time>
      </trkpt>
      <trkpt lat="43.98166" lon="3.08697">
        <ele>747.081543</ele>
        <time>2013-08-09T05:28:38Z</time>
      </trkpt>
      <trkpt lat="43.98163" lon="3.08697">
        <ele>749.0043945</ele>
        <time>2013-08-09T05:28:41Z</time>
      </trkpt>
      <trkpt lat="43.98155" lon="3.08697">
        <ele>750.4465332</ele>
        <time>2013-08-09T05:28:47Z</time>
      </trkpt>
      <trkpt lat="43.98155" lon="3.08696">
        <ele>750.4465332</ele>
        <time>2013-08-09T05:28:48Z</time>
      </trkpt>
      <trkpt lat="43.98146" lon="3.08693">
        <ele>752.3688965</ele>
        <time>2013-08-09T05:28:56Z</time>
      </trkpt>
      <trkpt lat="43.98144" lon="3.08694">
        <ele>754.291748</ele>
        <time>2013-08-09T05:29:00Z</time>
      </trkpt>
      <trkpt lat="43.98143" lon="3.08694">
        <ele>754.7722168</ele>
        <time>2013-08-09T05:29:01Z</time>
      </trkpt>
      <trkpt lat="43.98139" lon="3.08695">
        <ele>755.7336426</ele>
        <time>2013-08-09T05:29:06Z</time>
      </trkpt>
      <trkpt lat="43.98134" lon="3.08698">
        <ele>755.2529297</ele>
        <time>2013-08-09T05:29:12Z</time>
      </trkpt>
      <trkpt lat="43.98132" lon="3.08699">
        <ele>753.3303223</ele>
        <time>2013-08-09T05:29:14Z</time>
      </trkpt>
      <trkpt lat="43.98125" lon="3.087">
        <ele>754.291748</ele>
        <time>2013-08-09T05:29:19Z</time>
      </trkpt>
      <trkpt lat="43.98122" lon="3.087">
        <ele>753.3303223</ele>
        <time>2013-08-09T05:29:22Z</time>
      </trkpt>
      <trkpt lat="43.98117" lon="3.08701">
        <ele>752.3688965</ele>
        <time>2013-08-09T05:29:28Z</time>
      </trkpt>
      <trkpt lat="43.98111" lon="3.08703">
        <ele>750.4465332</ele>
        <time>2013-08-09T05:29:34Z</time>
      </trkpt>
      <trkpt lat="43.98107" lon="3.08705">
        <ele>750.927002</ele>
        <time>2013-08-09T05:29:38Z</time>
      </trkpt>
      <trkpt lat="43.98105" lon="3.08706">
        <ele>752.3688965</ele>
        <time>2013-08-09T05:29:40Z</time>
      </trkpt>
      <trkpt lat="43.981" lon="3.08715">
        <ele>755.2529297</ele>
        <time>2013-08-09T05:29:48Z</time>
      </trkpt>
      <trkpt lat="43.98097" lon="3.0872">
        <ele>756.6948242</ele>
        <time>2013-08-09T05:29:53Z</time>
      </trkpt>
      <trkpt lat="43.98092" lon="3.08724">
        <ele>759.5788574</ele>
        <time>2013-08-09T05:29:57Z</time>
      </trkpt>
      <trkpt lat="43.98088" lon="3.0873">
        <ele>763.4240723</ele>
        <time>2013-08-09T05:30:03Z</time>
      </trkpt>
      <trkpt lat="43.98085" lon="3.08733">
        <ele>766.3081055</ele>
        <time>2013-08-09T05:30:06Z</time>
      </trkpt>
      <trkpt lat="43.98081" lon="3.08741">
        <ele>765.3469238</ele>
        <time>2013-08-09T05:30:13Z</time>
      </trkpt>
      <trkpt lat="43.98077" lon="3.08746">
        <ele>765.8276367</ele>
        <time>2013-08-09T05:30:19Z</time>
      </trkpt>
      <trkpt lat="43.98074" lon="3.08751">
        <ele>765.8276367</ele>
        <time>2013-08-09T05:30:24Z</time>
      </trkpt>
      <trkpt lat="43.9807" lon="3.08755">
        <ele>765.8276367</ele>
        <time>2013-08-09T05:30:29Z</time>
      </trkpt>
      <trkpt lat="43.98066" lon="3.0876">
        <ele>766.7888184</ele>
        <time>2013-08-09T05:30:35Z</time>
      </trkpt>
      <trkpt lat="43.98061" lon="3.08762">
        <ele>764.8662109</ele>
        <time>2013-08-09T05:30:41Z</time>
      </trkpt>
      <trkpt lat="43.98056" lon="3.08765">
        <ele>764.385498</ele>
        <time>2013-08-09T05:30:49Z</time>
      </trkpt>
      <trkpt lat="43.98053" lon="3.08768">
        <ele>766.7888184</ele>
        <time>2013-08-09T05:30:53Z</time>
      </trkpt>
      <trkpt lat="43.98051" lon="3.08772">
        <ele>770.1533203</ele>
        <time>2013-08-09T05:30:57Z</time>
      </trkpt>
      <trkpt lat="43.98046" lon="3.08775">
        <ele>771.5952148</ele>
        <time>2013-08-09T05:31:02Z</time>
      </trkpt>
      <trkpt lat="43.98042" lon="3.08779">
        <ele>771.5952148</ele>
        <time>2013-08-09T05:31:08Z</time>
      </trkpt>
      <trkpt lat="43.9804" lon="3.08781">
        <ele>772.5566406</ele>
        <time>2013-08-09T05:31:12Z</time>
      </trkpt>
      <trkpt lat="43.98036" lon="3.08784">
        <ele>772.0759277</ele>
        <time>2013-08-09T05:31:18Z</time>
      </trkpt>
      <trkpt lat="43.98031" lon="3.08789">
        <ele>771.5952148</ele>
        <time>2013-08-09T05:31:24Z</time>
      </trkpt>
      <trkpt lat="43.98027" lon="3.08792">
        <ele>771.1147461</ele>
        <time>2013-08-09T05:31:29Z</time>
      </trkpt>
      <trkpt lat="43.98025" lon="3.08794">
        <ele>771.1147461</ele>
        <time>2013-08-09T05:31:31Z</time>
      </trkpt>
      <trkpt lat="43.98023" lon="3.08795">
        <ele>771.5952148</ele>
        <time>2013-08-09T05:31:33Z</time>
      </trkpt>
      <trkpt lat="43.98018" lon="3.08801">
        <ele>773.5180664</ele>
        <time>2013-08-09T05:31:40Z</time>
      </trkpt>
      <trkpt lat="43.98013" lon="3.08809">
        <ele>774.9599609</ele>
        <time>2013-08-09T05:31:45Z</time>
      </trkpt>
      <trkpt lat="43.98011" lon="3.08813">
        <ele>774.9599609</ele>
        <time>2013-08-09T05:31:48Z</time>
      </trkpt>
      <trkpt lat="43.98007" lon="3.0882">
        <ele>774.9599609</ele>
        <time>2013-08-09T05:31:54Z</time>
      </trkpt>
      <trkpt lat="43.98005" lon="3.08823">
        <ele>774.9599609</ele>
        <time>2013-08-09T05:31:57Z</time>
      </trkpt>
      <trkpt lat="43.97998" lon="3.08831">
        <ele>775.4404297</ele>
        <time>2013-08-09T05:32:04Z</time>
      </trkpt>
      <trkpt lat="43.97996" lon="3.08832">
        <ele>775.9211426</ele>
        <time>2013-08-09T05:32:07Z</time>
      </trkpt>
      <trkpt lat="43.97992" lon="3.08842">
        <ele>779.7663574</ele>
        <time>2013-08-09T05:32:14Z</time>
      </trkpt>
      <trkpt lat="43.97983" lon="3.08851">
        <ele>784.0925293</ele>
        <time>2013-08-09T05:32:22Z</time>
      </trkpt>
      <trkpt lat="43.97978" lon="3.0886">
        <ele>783.6118164</ele>
        <time>2013-08-09T05:32:29Z</time>
      </trkpt>
      <trkpt lat="43.97975" lon="3.08866">
        <ele>784.0925293</ele>
        <time>2013-08-09T05:32:35Z</time>
      </trkpt>
      <trkpt lat="43.97971" lon="3.08876">
        <ele>785.0539551</ele>
        <time>2013-08-09T05:32:42Z</time>
      </trkpt>
      <trkpt lat="43.97967" lon="3.08888">
        <ele>787.4570313</ele>
        <time>2013-08-09T05:32:50Z</time>
      </trkpt>
      <trkpt lat="43.97967" lon="3.08897">
        <ele>789.3796387</ele>
        <time>2013-08-09T05:32:56Z</time>
      </trkpt>
      <trkpt lat="43.97967" lon="3.08902">
        <ele>790.3410645</ele>
        <time>2013-08-09T05:32:59Z</time>
      </trkpt>
      <trkpt lat="43.97966" lon="3.08904">
        <ele>790.8215332</ele>
        <time>2013-08-09T05:33:01Z</time>
      </trkpt>
      <trkpt lat="43.97965" lon="3.08909">
        <ele>791.782959</ele>
        <time>2013-08-09T05:33:05Z</time>
      </trkpt>
      <trkpt lat="43.97962" lon="3.08915">
        <ele>791.782959</ele>
        <time>2013-08-09T05:33:10Z</time>
      </trkpt>
      <trkpt lat="43.97956" lon="3.08912">
        <ele>792.7443848</ele>
        <time>2013-08-09T05:33:16Z</time>
      </trkpt>
      <trkpt lat="43.97954" lon="3.0891">
        <ele>792.2636719</ele>
        <time>2013-08-09T05:33:18Z</time>
      </trkpt>
      <trkpt lat="43.9795" lon="3.08905">
        <ele>792.7443848</ele>
        <time>2013-08-09T05:33:23Z</time>
      </trkpt>
      <trkpt lat="43.97945" lon="3.08901">
        <ele>792.7443848</ele>
        <time>2013-08-09T05:33:30Z</time>
      </trkpt>
      <trkpt lat="43.97942" lon="3.08898">
        <ele>793.7055664</ele>
        <time>2013-08-09T05:33:35Z</time>
      </trkpt>
      <trkpt lat="43.97938" lon="3.08895">
        <ele>793.7055664</ele>
        <time>2013-08-09T05:33:40Z</time>
      </trkpt>
      <trkpt lat="43.97933" lon="3.08892">
        <ele>793.2248535</ele>
        <time>2013-08-09T05:33:45Z</time>
      </trkpt>
      <trkpt lat="43.9793" lon="3.08889">
        <ele>792.7443848</ele>
        <time>2013-08-09T05:33:49Z</time>
      </trkpt>
      <trkpt lat="43.97924" lon="3.08886">
        <ele>793.2248535</ele>
        <time>2013-08-09T05:33:55Z</time>
      </trkpt>
      <trkpt lat="43.97921" lon="3.08886">
        <ele>793.7055664</ele>
        <time>2013-08-09T05:33:57Z</time>
      </trkpt>
      <trkpt lat="43.97916" lon="3.08883">
        <ele>794.1862793</ele>
        <time>2013-08-09T05:34:04Z</time>
      </trkpt>
      <trkpt lat="43.97913" lon="3.08879">
        <ele>795.1474609</ele>
        <time>2013-08-09T05:34:08Z</time>
      </trkpt>
      <trkpt lat="43.97908" lon="3.08872">
        <ele>795.1474609</ele>
        <time>2013-08-09T05:34:15Z</time>
      </trkpt>
      <trkpt lat="43.97906" lon="3.0887">
        <ele>796.1091309</ele>
        <time>2013-08-09T05:34:17Z</time>
      </trkpt>
      <trkpt lat="43.97902" lon="3.08861">
        <ele>796.1091309</ele>
        <time>2013-08-09T05:34:23Z</time>
      </trkpt>
      <trkpt lat="43.97897" lon="3.08855">
        <ele>798.0317383</ele>
        <time>2013-08-09T05:34:29Z</time>
      </trkpt>
      <trkpt lat="43.97894" lon="3.08848">
        <ele>802.3574219</ele>
        <time>2013-08-09T05:34:34Z</time>
      </trkpt>
      <trkpt lat="43.97891" lon="3.08843">
        <ele>803.3188477</ele>
        <time>2013-08-09T05:34:38Z</time>
      </trkpt>
      <trkpt lat="43.9789" lon="3.08835">
        <ele>802.3574219</ele>
        <time>2013-08-09T05:34:43Z</time>
      </trkpt>
      <trkpt lat="43.97889" lon="3.08828">
        <ele>802.8381348</ele>
        <time>2013-08-09T05:34:47Z</time>
      </trkpt>
      <trkpt lat="43.97888" lon="3.08823">
        <ele>803.3188477</ele>
        <time>2013-08-09T05:34:50Z</time>
      </trkpt>
      <trkpt lat="43.97889" lon="3.08817">
        <ele>802.8381348</ele>
        <time>2013-08-09T05:34:54Z</time>
      </trkpt>
      <trkpt lat="43.97887" lon="3.08808">
        <ele>803.3188477</ele>
        <time>2013-08-09T05:35:00Z</time>
      </trkpt>
      <trkpt lat="43.97887" lon="3.08806">
        <ele>805.2414551</ele>
        <time>2013-08-09T05:35:10Z</time>
      </trkpt>
      <trkpt lat="43.9789" lon="3.08801">
        <ele>804.2802734</ele>
        <time>2013-08-09T05:35:19Z</time>
      </trkpt>
      <trkpt lat="43.97896" lon="3.08797">
        <ele>804.2802734</ele>
        <time>2013-08-09T05:35:25Z</time>
      </trkpt>
      <trkpt lat="43.979" lon="3.08794">
        <ele>803.7995605</ele>
        <time>2013-08-09T05:35:29Z</time>
      </trkpt>
      <trkpt lat="43.97909" lon="3.08794">
        <ele>803.7995605</ele>
        <time>2013-08-09T05:35:36Z</time>
      </trkpt>
      <trkpt lat="43.97915" lon="3.08793">
        <ele>803.7995605</ele>
        <time>2013-08-09T05:35:41Z</time>
      </trkpt>
      <trkpt lat="43.9792" lon="3.08792">
        <ele>803.3188477</ele>
        <time>2013-08-09T05:35:46Z</time>
      </trkpt>
      <trkpt lat="43.9793" lon="3.08794">
        <ele>802.3574219</ele>
        <time>2013-08-09T05:35:52Z</time>
      </trkpt>
      <trkpt lat="43.97936" lon="3.08793">
        <ele>801.8769531</ele>
        <time>2013-08-09T05:35:57Z</time>
      </trkpt>
      <trkpt lat="43.97942" lon="3.0879">
        <ele>798.9929199</ele>
        <time>2013-08-09T05:36:02Z</time>
      </trkpt>
      <trkpt lat="43.97944" lon="3.08789">
        <ele>798.512207</ele>
        <time>2013-08-09T05:36:03Z</time>
      </trkpt>
      <trkpt lat="43.9795" lon="3.08785">
        <ele>797.5510254</ele>
        <time>2013-08-09T05:36:08Z</time>
      </trkpt>
      <trkpt lat="43.97954" lon="3.08782">
        <ele>797.0703125</ele>
        <time>2013-08-09T05:36:11Z</time>
      </trkpt>
      <trkpt lat="43.97959" lon="3.08772">
        <ele>796.5898438</ele>
        <time>2013-08-09T05:36:18Z</time>
      </trkpt>
      <trkpt lat="43.9796" lon="3.08765">
        <ele>795.1474609</ele>
        <time>2013-08-09T05:36:23Z</time>
      </trkpt>
      <trkpt lat="43.9796" lon="3.08759">
        <ele>795.1474609</ele>
        <time>2013-08-09T05:36:27Z</time>
      </trkpt>
      <trkpt lat="43.9796" lon="3.08749">
        <ele>797.0703125</ele>
        <time>2013-08-09T05:36:33Z</time>
      </trkpt>
      <trkpt lat="43.97963" lon="3.08745">
        <ele>798.0317383</ele>
        <time>2013-08-09T05:36:36Z</time>
      </trkpt>
      <trkpt lat="43.97965" lon="3.08743">
        <ele>798.9929199</ele>
        <time>2013-08-09T05:36:38Z</time>
      </trkpt>
      <trkpt lat="43.97968" lon="3.08741">
        <ele>798.512207</ele>
        <time>2013-08-09T05:36:41Z</time>
      </trkpt>
      <trkpt lat="43.97975" lon="3.08737">
        <ele>798.0317383</ele>
        <time>2013-08-09T05:36:49Z</time>
      </trkpt>
      <trkpt lat="43.97976" lon="3.08736">
        <ele>798.512207</ele>
        <time>2013-08-09T05:36:50Z</time>
      </trkpt>
      <trkpt lat="43.97984" lon="3.08731">
        <ele>800.9155273</ele>
        <time>2013-08-09T05:36:57Z</time>
      </trkpt>
      <trkpt lat="43.97987" lon="3.08728">
        <ele>802.3574219</ele>
        <time>2013-08-09T05:37:00Z</time>
      </trkpt>
      <trkpt lat="43.9799" lon="3.08721">
        <ele>803.7995605</ele>
        <time>2013-08-09T05:37:07Z</time>
      </trkpt>
      <trkpt lat="43.97991" lon="3.0872">
        <ele>804.2802734</ele>
        <time>2013-08-09T05:37:08Z</time>
      </trkpt>
      <trkpt lat="43.97995" lon="3.08713">
        <ele>803.7995605</ele>
        <time>2013-08-09T05:37:15Z</time>
      </trkpt>
      <trkpt lat="43.97996" lon="3.08706">
        <ele>804.2802734</ele>
        <time>2013-08-09T05:37:20Z</time>
      </trkpt>
      <trkpt lat="43.97997" lon="3.08703">
        <ele>803.7995605</ele>
        <time>2013-08-09T05:37:22Z</time>
      </trkpt>
      <trkpt lat="43.97999" lon="3.08699">
        <ele>805.2414551</ele>
        <time>2013-08-09T05:37:26Z</time>
      </trkpt>
      <trkpt lat="43.98003" lon="3.08691">
        <ele>806.2026367</ele>
        <time>2013-08-09T05:37:32Z</time>
      </trkpt>
      <trkpt lat="43.98005" lon="3.08686">
        <ele>806.6833496</ele>
        <time>2013-08-09T05:37:36Z</time>
      </trkpt>
      <trkpt lat="43.98008" lon="3.08679">
        <ele>805.722168</ele>
        <time>2013-08-09T05:37:41Z</time>
      </trkpt>
      <trkpt lat="43.98011" lon="3.08674">
        <ele>806.6833496</ele>
        <time>2013-08-09T05:37:45Z</time>
      </trkpt>
      <trkpt lat="43.98012" lon="3.08671">
        <ele>806.6833496</ele>
        <time>2013-08-09T05:37:48Z</time>
      </trkpt>
      <trkpt lat="43.98011" lon="3.08664">
        <ele>808.605957</ele>
        <time>2013-08-09T05:37:52Z</time>
      </trkpt>
      <trkpt lat="43.98009" lon="3.08658">
        <ele>809.0866699</ele>
        <time>2013-08-09T05:37:56Z</time>
      </trkpt>
      <trkpt lat="43.98007" lon="3.08655">
        <ele>809.0866699</ele>
        <time>2013-08-09T05:37:59Z</time>
      </trkpt>
      <trkpt lat="43.98003" lon="3.08647">
        <ele>808.605957</ele>
        <time>2013-08-09T05:38:05Z</time>
      </trkpt>
      <trkpt lat="43.97999" lon="3.0864">
        <ele>808.605957</ele>
        <time>2013-08-09T05:38:09Z</time>
      </trkpt>
      <trkpt lat="43.97995" lon="3.08635">
        <ele>809.0866699</ele>
        <time>2013-08-09T05:38:14Z</time>
      </trkpt>
      <trkpt lat="43.97992" lon="3.08629">
        <ele>807.6447754</ele>
        <time>2013-08-09T05:38:19Z</time>
      </trkpt>
      <trkpt lat="43.97988" lon="3.08624">
        <ele>806.2026367</ele>
        <time>2013-08-09T05:38:24Z</time>
      </trkpt>
      <trkpt lat="43.97986" lon="3.0862">
        <ele>807.6447754</ele>
        <time>2013-08-09T05:38:28Z</time>
      </trkpt>
      <trkpt lat="43.97982" lon="3.08616">
        <ele>807.1640625</ele>
        <time>2013-08-09T05:38:32Z</time>
      </trkpt>
      <trkpt lat="43.97978" lon="3.08612">
        <ele>806.2026367</ele>
        <time>2013-08-09T05:38:37Z</time>
      </trkpt>
      <trkpt lat="43.97974" lon="3.08606">
        <ele>805.722168</ele>
        <time>2013-08-09T05:38:42Z</time>
      </trkpt>
      <trkpt lat="43.97971" lon="3.08598">
        <ele>805.722168</ele>
        <time>2013-08-09T05:38:47Z</time>
      </trkpt>
      <trkpt lat="43.9797" lon="3.08591">
        <ele>806.2026367</ele>
        <time>2013-08-09T05:38:51Z</time>
      </trkpt>
      <trkpt lat="43.97976" lon="3.08585">
        <ele>805.722168</ele>
        <time>2013-08-09T05:38:58Z</time>
      </trkpt>
      <trkpt lat="43.97985" lon="3.08584">
        <ele>807.6447754</ele>
        <time>2013-08-09T05:39:07Z</time>
      </trkpt>
      <trkpt lat="43.97993" lon="3.08582">
        <ele>809.0866699</ele>
        <time>2013-08-09T05:39:14Z</time>
      </trkpt>
      <trkpt lat="43.98" lon="3.08585">
        <ele>809.5673828</ele>
        <time>2013-08-09T05:39:21Z</time>
      </trkpt>
      <trkpt lat="43.98005" lon="3.08585">
        <ele>809.5673828</ele>
        <time>2013-08-09T05:39:26Z</time>
      </trkpt>
      <trkpt lat="43.98012" lon="3.08584">
        <ele>810.5285645</ele>
        <time>2013-08-09T05:39:32Z</time>
      </trkpt>
      <trkpt lat="43.98017" lon="3.08584">
        <ele>811.0092773</ele>
        <time>2013-08-09T05:39:37Z</time>
      </trkpt>
      <trkpt lat="43.98024" lon="3.08579">
        <ele>812.9321289</ele>
        <time>2013-08-09T05:39:45Z</time>
      </trkpt>
      <trkpt lat="43.98029" lon="3.08579">
        <ele>812.451416</ele>
        <time>2013-08-09T05:39:50Z</time>
      </trkpt>
      <trkpt lat="43.98036" lon="3.08582">
        <ele>811.9707031</ele>
        <time>2013-08-09T05:39:56Z</time>
      </trkpt>
      <trkpt lat="43.98038" lon="3.08581">
        <ele>812.451416</ele>
        <time>2013-08-09T05:39:58Z</time>
      </trkpt>
      <trkpt lat="43.98041" lon="3.08574">
        <ele>811.9707031</ele>
        <time>2013-08-09T05:40:04Z</time>
      </trkpt>
      <trkpt lat="43.98044" lon="3.08572">
        <ele>811.0092773</ele>
        <time>2013-08-09T05:40:08Z</time>
      </trkpt>
      <trkpt lat="43.98049" lon="3.08569">
        <ele>809.0866699</ele>
        <time>2013-08-09T05:40:14Z</time>
      </trkpt>
      <trkpt lat="43.98053" lon="3.08562">
        <ele>808.605957</ele>
        <time>2013-08-09T05:40:20Z</time>
      </trkpt>
      <trkpt lat="43.98058" lon="3.08559">
        <ele>808.1254883</ele>
        <time>2013-08-09T05:40:26Z</time>
      </trkpt>
      <trkpt lat="43.9806" lon="3.08557">
        <ele>807.6447754</ele>
        <time>2013-08-09T05:40:28Z</time>
      </trkpt>
      <trkpt lat="43.98062" lon="3.08553">
        <ele>807.6447754</ele>
        <time>2013-08-09T05:40:31Z</time>
      </trkpt>
      <trkpt lat="43.98064" lon="3.08551">
        <ele>807.6447754</ele>
        <time>2013-08-09T05:40:33Z</time>
      </trkpt>
      <trkpt lat="43.98065" lon="3.08547">
        <ele>805.722168</ele>
        <time>2013-08-09T05:40:36Z</time>
      </trkpt>
      <trkpt lat="43.98072" lon="3.08542">
        <ele>804.7607422</ele>
        <time>2013-08-09T05:40:43Z</time>
      </trkpt>
      <trkpt lat="43.98076" lon="3.08541">
        <ele>803.7995605</ele>
        <time>2013-08-09T05:40:46Z</time>
      </trkpt>
      <trkpt lat="43.98079" lon="3.08542">
        <ele>801.8769531</ele>
        <time>2013-08-09T05:40:49Z</time>
      </trkpt>
      <trkpt lat="43.98084" lon="3.08548">
        <ele>799.4736328</ele>
        <time>2013-08-09T05:40:55Z</time>
      </trkpt>
      <trkpt lat="43.98085" lon="3.08548">
        <ele>800.9155273</ele>
        <time>2013-08-09T05:41:02Z</time>
      </trkpt>
      <trkpt lat="43.98086" lon="3.08548">
        <ele>800.9155273</ele>
        <time>2013-08-09T05:41:04Z</time>
      </trkpt>
      <trkpt lat="43.98095" lon="3.08548">
        <ele>798.9929199</ele>
        <time>2013-08-09T05:41:10Z</time>
      </trkpt>
      <trkpt lat="43.98103" lon="3.08548">
        <ele>798.512207</ele>
        <time>2013-08-09T05:41:15Z</time>
      </trkpt>
      <trkpt lat="43.98109" lon="3.08544">
        <ele>797.5510254</ele>
        <time>2013-08-09T05:41:19Z</time>
      </trkpt>
      <trkpt lat="43.98116" lon="3.08544">
        <ele>798.0317383</ele>
        <time>2013-08-09T05:41:24Z</time>
      </trkpt>
      <trkpt lat="43.9812" lon="3.08544">
        <ele>798.9929199</ele>
        <time>2013-08-09T05:41:28Z</time>
      </trkpt>
      <trkpt lat="43.98124" lon="3.08544">
        <ele>799.9543457</ele>
        <time>2013-08-09T05:41:31Z</time>
      </trkpt>
      <trkpt lat="43.98133" lon="3.08544">
        <ele>800.9155273</ele>
        <time>2013-08-09T05:41:38Z</time>
      </trkpt>
      <trkpt lat="43.98137" lon="3.08544">
        <ele>801.8769531</ele>
        <time>2013-08-09T05:41:42Z</time>
      </trkpt>
      <trkpt lat="43.98144" lon="3.08544">
        <ele>802.8381348</ele>
        <time>2013-08-09T05:41:48Z</time>
      </trkpt>
      <trkpt lat="43.98151" lon="3.08543">
        <ele>803.7995605</ele>
        <time>2013-08-09T05:41:54Z</time>
      </trkpt>
      <trkpt lat="43.98155" lon="3.0854">
        <ele>803.7995605</ele>
        <time>2013-08-09T05:41:58Z</time>
      </trkpt>
      <trkpt lat="43.98161" lon="3.08539">
        <ele>804.2802734</ele>
        <time>2013-08-09T05:42:04Z</time>
      </trkpt>
      <trkpt lat="43.98164" lon="3.08538">
        <ele>804.2802734</ele>
        <time>2013-08-09T05:42:06Z</time>
      </trkpt>
      <trkpt lat="43.98168" lon="3.08536">
        <ele>805.722168</ele>
        <time>2013-08-09T05:42:13Z</time>
      </trkpt>
      <trkpt lat="43.98171" lon="3.08536">
        <ele>805.2414551</ele>
        <time>2013-08-09T05:42:24Z</time>
      </trkpt>
      <trkpt lat="43.98179" lon="3.08533">
        <ele>805.2414551</ele>
        <time>2013-08-09T05:42:31Z</time>
      </trkpt>
      <trkpt lat="43.98188" lon="3.08527">
        <ele>804.7607422</ele>
        <time>2013-08-09T05:42:38Z</time>
      </trkpt>
      <trkpt lat="43.98194" lon="3.08522">
        <ele>805.2414551</ele>
        <time>2013-08-09T05:42:43Z</time>
      </trkpt>
      <trkpt lat="43.98203" lon="3.08516">
        <ele>805.722168</ele>
        <time>2013-08-09T05:42:50Z</time>
      </trkpt>
      <trkpt lat="43.98212" lon="3.08512">
        <ele>806.2026367</ele>
        <time>2013-08-09T05:42:57Z</time>
      </trkpt>
      <trkpt lat="43.98221" lon="3.08507">
        <ele>806.6833496</ele>
        <time>2013-08-09T05:43:04Z</time>
      </trkpt>
      <trkpt lat="43.98228" lon="3.08504">
        <ele>805.2414551</ele>
        <time>2013-08-09T05:43:09Z</time>
      </trkpt>
      <trkpt lat="43.98235" lon="3.08499">
        <ele>804.7607422</ele>
        <time>2013-08-09T05:43:15Z</time>
      </trkpt>
      <trkpt lat="43.98241" lon="3.08494">
        <ele>804.7607422</ele>
        <time>2013-08-09T05:43:20Z</time>
      </trkpt>
      <trkpt lat="43.9825" lon="3.08489">
        <ele>804.2802734</ele>
        <time>2013-08-09T05:43:27Z</time>
      </trkpt>
      <trkpt lat="43.98259" lon="3.08482">
        <ele>802.8381348</ele>
        <time>2013-08-09T05:43:34Z</time>
      </trkpt>
      <trkpt lat="43.9826" lon="3.08481">
        <ele>802.8381348</ele>
        <time>2013-08-09T05:43:35Z</time>
      </trkpt>
      <trkpt lat="43.98271" lon="3.08473">
        <ele>803.3188477</ele>
        <time>2013-08-09T05:43:43Z</time>
      </trkpt>
      <trkpt lat="43.98279" lon="3.08465">
        <ele>802.3574219</ele>
        <time>2013-08-09T05:43:50Z</time>
      </trkpt>
      <trkpt lat="43.98286" lon="3.08455">
        <ele>802.3574219</ele>
        <time>2013-08-09T05:43:57Z</time>
      </trkpt>
      <trkpt lat="43.98291" lon="3.0845">
        <ele>802.3574219</ele>
        <time>2013-08-09T05:44:01Z</time>
      </trkpt>
      <trkpt lat="43.98296" lon="3.08442">
        <ele>801.3962402</ele>
        <time>2013-08-09T05:44:07Z</time>
      </trkpt>
      <trkpt lat="43.983" lon="3.08436">
        <ele>802.3574219</ele>
        <time>2013-08-09T05:44:11Z</time>
      </trkpt>
      <trkpt lat="43.98306" lon="3.08429">
        <ele>801.3962402</ele>
        <time>2013-08-09T05:44:17Z</time>
      </trkpt>
      <trkpt lat="43.98314" lon="3.08423">
        <ele>801.3962402</ele>
        <time>2013-08-09T05:44:24Z</time>
      </trkpt>
      <trkpt lat="43.9832" lon="3.08421">
        <ele>800.9155273</ele>
        <time>2013-08-09T05:44:28Z</time>
      </trkpt>
      <trkpt lat="43.98331" lon="3.08418">
        <ele>798.512207</ele>
        <time>2013-08-09T05:44:36Z</time>
      </trkpt>
      <trkpt lat="43.98339" lon="3.08416">
        <ele>797.5510254</ele>
        <time>2013-08-09T05:44:41Z</time>
      </trkpt>
      <trkpt lat="43.98347" lon="3.08417">
        <ele>796.5898438</ele>
        <time>2013-08-09T05:44:47Z</time>
      </trkpt>
      <trkpt lat="43.98354" lon="3.08419">
        <ele>795.6281738</ele>
        <time>2013-08-09T05:44:53Z</time>
      </trkpt>
      <trkpt lat="43.98361" lon="3.08424">
        <ele>793.7055664</ele>
        <time>2013-08-09T05:45:00Z</time>
      </trkpt>
      <trkpt lat="43.98364" lon="3.08426">
        <ele>792.7443848</ele>
        <time>2013-08-09T05:45:03Z</time>
      </trkpt>
      <trkpt lat="43.98373" lon="3.08428">
        <ele>789.8603516</ele>
        <time>2013-08-09T05:45:11Z</time>
      </trkpt>
      <trkpt lat="43.98378" lon="3.08431">
        <ele>788.8991699</ele>
        <time>2013-08-09T05:45:15Z</time>
      </trkpt>
      <trkpt lat="43.98387" lon="3.08435">
        <ele>788.418457</ele>
        <time>2013-08-09T05:45:22Z</time>
      </trkpt>
      <trkpt lat="43.98392" lon="3.08438">
        <ele>787.4570313</ele>
        <time>2013-08-09T05:45:27Z</time>
      </trkpt>
      <trkpt lat="43.98399" lon="3.08447">
        <ele>785.5344238</ele>
        <time>2013-08-09T05:45:34Z</time>
      </trkpt>
      <trkpt lat="43.98402" lon="3.0845">
        <ele>784.0925293</ele>
        <time>2013-08-09T05:45:38Z</time>
      </trkpt>
      <trkpt lat="43.98404" lon="3.08453">
        <ele>783.1311035</ele>
        <time>2013-08-09T05:45:41Z</time>
      </trkpt>
      <trkpt lat="43.98406" lon="3.08454">
        <ele>782.6506348</ele>
        <time>2013-08-09T05:45:43Z</time>
      </trkpt>
      <trkpt lat="43.98408" lon="3.08457">
        <ele>782.1699219</ele>
        <time>2013-08-09T05:45:49Z</time>
      </trkpt>
      <trkpt lat="43.98409" lon="3.08456">
        <ele>782.6506348</ele>
        <time>2013-08-09T05:45:56Z</time>
      </trkpt>
      <trkpt lat="43.98409" lon="3.08457">
        <ele>783.1311035</ele>
        <time>2013-08-09T05:46:04Z</time>
      </trkpt>
      <trkpt lat="43.98409" lon="3.08457">
        <ele>783.6118164</ele>
        <time>2013-08-09T05:46:11Z</time>
      </trkpt>
      <trkpt lat="43.98409" lon="3.08458">
        <ele>784.5732422</ele>
        <time>2013-08-09T05:46:24Z</time>
      </trkpt>
      <trkpt lat="43.9841" lon="3.08457">
        <ele>784.0925293</ele>
        <time>2013-08-09T05:46:39Z</time>
      </trkpt>
      <trkpt lat="43.9841" lon="3.08457">
        <ele>784.0925293</ele>
        <time>2013-08-09T05:46:46Z</time>
      </trkpt>
      <trkpt lat="43.9841" lon="3.08457">
        <ele>784.0925293</ele>
        <time>2013-08-09T05:46:52Z</time>
      </trkpt>
      <trkpt lat="43.98411" lon="3.08458">
        <ele>783.6118164</ele>
        <time>2013-08-09T05:47:03Z</time>
      </trkpt>
      <trkpt lat="43.98412" lon="3.08459">
        <ele>783.1311035</ele>
        <time>2013-08-09T05:47:04Z</time>
      </trkpt>
      <trkpt lat="43.9842" lon="3.08462">
        <ele>781.2087402</ele>
        <time>2013-08-09T05:47:08Z</time>
      </trkpt>
      <trkpt lat="43.98423" lon="3.08464">
        <ele>780.7280273</ele>
        <time>2013-08-09T05:47:10Z</time>
      </trkpt>
      <trkpt lat="43.98425" lon="3.08465">
        <ele>779.2856445</ele>
        <time>2013-08-09T05:47:12Z</time>
      </trkpt>
      <trkpt lat="43.98431" lon="3.08469">
        <ele>776.4018555</ele>
        <time>2013-08-09T05:47:19Z</time>
      </trkpt>
      <trkpt lat="43.98435" lon="3.08471">
        <ele>775.4404297</ele>
        <time>2013-08-09T05:47:22Z</time>
      </trkpt>
      <trkpt lat="43.98444" lon="3.08472">
        <ele>773.5180664</ele>
        <time>2013-08-09T05:47:28Z</time>
      </trkpt>
      <trkpt lat="43.98451" lon="3.08475">
        <ele>771.1147461</ele>
        <time>2013-08-09T05:47:34Z</time>
      </trkpt>
      <trkpt lat="43.98457" lon="3.08476">
        <ele>770.6340332</ele>
        <time>2013-08-09T05:47:39Z</time>
      </trkpt>
      <trkpt lat="43.98462" lon="3.0848">
        <ele>768.7114258</ele>
        <time>2013-08-09T05:47:43Z</time>
      </trkpt>
      <trkpt lat="43.98471" lon="3.08481">
        <ele>767.2695313</ele>
        <time>2013-08-09T05:47:49Z</time>
      </trkpt>
      <trkpt lat="43.98475" lon="3.08482">
        <ele>767.2695313</ele>
        <time>2013-08-09T05:47:53Z</time>
      </trkpt>
      <trkpt lat="43.98481" lon="3.08483">
        <ele>764.385498</ele>
        <time>2013-08-09T05:47:58Z</time>
      </trkpt>
      <trkpt lat="43.98488" lon="3.08486">
        <ele>761.9821777</ele>
        <time>2013-08-09T05:48:04Z</time>
      </trkpt>
      <trkpt lat="43.98496" lon="3.08489">
        <ele>761.5014648</ele>
        <time>2013-08-09T05:48:11Z</time>
      </trkpt>
      <trkpt lat="43.985" lon="3.08489">
        <ele>760.5400391</ele>
        <time>2013-08-09T05:48:15Z</time>
      </trkpt>
      <trkpt lat="43.98507" lon="3.08492">
        <ele>757.1755371</ele>
        <time>2013-08-09T05:48:21Z</time>
      </trkpt>
      <trkpt lat="43.98511" lon="3.08494">
        <ele>755.2529297</ele>
        <time>2013-08-09T05:48:26Z</time>
      </trkpt>
      <trkpt lat="43.98516" lon="3.08493">
        <ele>754.291748</ele>
        <time>2013-08-09T05:48:31Z</time>
      </trkpt>
      <trkpt lat="43.98518" lon="3.08493">
        <ele>753.8110352</ele>
        <time>2013-08-09T05:48:32Z</time>
      </trkpt>
      <trkpt lat="43.98527" lon="3.08492">
        <ele>752.8496094</ele>
        <time>2013-08-09T05:48:38Z</time>
      </trkpt>
      <trkpt lat="43.9853" lon="3.08498">
        <ele>750.4465332</ele>
        <time>2013-08-09T05:48:42Z</time>
      </trkpt>
      <trkpt lat="43.98533" lon="3.08501">
        <ele>749.4851074</ele>
        <time>2013-08-09T05:48:44Z</time>
      </trkpt>
      <trkpt lat="43.98538" lon="3.08512">
        <ele>745.6396484</ele>
        <time>2013-08-09T05:48:51Z</time>
      </trkpt>
      <trkpt lat="43.98539" lon="3.08515">
        <ele>744.1977539</ele>
        <time>2013-08-09T05:48:53Z</time>
      </trkpt>
      <trkpt lat="43.98543" lon="3.0852">
        <ele>742.2751465</ele>
        <time>2013-08-09T05:48:58Z</time>
      </trkpt>
      <trkpt lat="43.98547" lon="3.08522">
        <ele>742.7558594</ele>
        <time>2013-08-09T05:49:01Z</time>
      </trkpt>
      <trkpt lat="43.98553" lon="3.08528">
        <ele>742.2751465</ele>
        <time>2013-08-09T05:49:06Z</time>
      </trkpt>
      <trkpt lat="43.98555" lon="3.08529">
        <ele>741.7944336</ele>
        <time>2013-08-09T05:49:07Z</time>
      </trkpt>
      <trkpt lat="43.98559" lon="3.08533">
        <ele>740.8330078</ele>
        <time>2013-08-09T05:49:10Z</time>
      </trkpt>
      <trkpt lat="43.98562" lon="3.0854">
        <ele>740.3525391</ele>
        <time>2013-08-09T05:49:16Z</time>
      </trkpt>
      <trkpt lat="43.98568" lon="3.08546">
        <ele>738.4299316</ele>
        <time>2013-08-09T05:49:22Z</time>
      </trkpt>
      <trkpt lat="43.98569" lon="3.08547">
        <ele>737.9492188</ele>
        <time>2013-08-09T05:49:23Z</time>
      </trkpt>
      <trkpt lat="43.98573" lon="3.0855">
        <ele>737.9492188</ele>
        <time>2013-08-09T05:49:27Z</time>
      </trkpt>
      <trkpt lat="43.98579" lon="3.08556">
        <ele>736.987793</ele>
        <time>2013-08-09T05:49:36Z</time>
      </trkpt>
      <trkpt lat="43.98582" lon="3.08559">
        <ele>735.0654297</ele>
        <time>2013-08-09T05:49:40Z</time>
      </trkpt>
      <trkpt lat="43.98586" lon="3.08561">
        <ele>735.0654297</ele>
        <time>2013-08-09T05:49:43Z</time>
      </trkpt>
      <trkpt lat="43.98587" lon="3.0857">
        <ele>732.1813965</ele>
        <time>2013-08-09T05:49:48Z</time>
      </trkpt>
      <trkpt lat="43.98591" lon="3.08579">
        <ele>731.7004395</ele>
        <time>2013-08-09T05:49:56Z</time>
      </trkpt>
      <trkpt lat="43.98593" lon="3.08579">
        <ele>729.2971191</ele>
        <time>2013-08-09T05:50:02Z</time>
      </trkpt>
      <trkpt lat="43.98597" lon="3.08577">
        <ele>727.3747559</ele>
        <time>2013-08-09T05:50:07Z</time>
      </trkpt>
      <trkpt lat="43.98603" lon="3.08576">
        <ele>725.4519043</ele>
        <time>2013-08-09T05:50:12Z</time>
      </trkpt>
      <trkpt lat="43.98604" lon="3.08576">
        <ele>725.4519043</ele>
        <time>2013-08-09T05:50:13Z</time>
      </trkpt>
      <trkpt lat="43.98611" lon="3.08577">
        <ele>724.9714355</ele>
        <time>2013-08-09T05:50:20Z</time>
      </trkpt>
      <trkpt lat="43.98615" lon="3.08578">
        <ele>725.4519043</ele>
        <time>2013-08-09T05:50:23Z</time>
      </trkpt>
      <trkpt lat="43.98621" lon="3.08575">
        <ele>724.9714355</ele>
        <time>2013-08-09T05:50:28Z</time>
      </trkpt>
      <trkpt lat="43.98627" lon="3.08574">
        <ele>724.0100098</ele>
        <time>2013-08-09T05:50:34Z</time>
      </trkpt>
      <trkpt lat="43.98633" lon="3.08577">
        <ele>719.2036133</ele>
        <time>2013-08-09T05:50:40Z</time>
      </trkpt>
      <trkpt lat="43.98642" lon="3.08578">
        <ele>719.2036133</ele>
        <time>2013-08-09T05:50:46Z</time>
      </trkpt>
      <trkpt lat="43.9865" lon="3.08574">
        <ele>717.2810059</ele>
        <time>2013-08-09T05:50:53Z</time>
      </trkpt>
      <trkpt lat="43.98656" lon="3.0857">
        <ele>716.3195801</ele>
        <time>2013-08-09T05:50:58Z</time>
      </trkpt>
      <trkpt lat="43.9866" lon="3.08569">
        <ele>716.3195801</ele>
        <time>2013-08-09T05:51:01Z</time>
      </trkpt>
      <trkpt lat="43.98664" lon="3.08574">
        <ele>714.3967285</ele>
        <time>2013-08-09T05:51:06Z</time>
      </trkpt>
      <trkpt lat="43.98666" lon="3.08577">
        <ele>713.9160156</ele>
        <time>2013-08-09T05:51:08Z</time>
      </trkpt>
      <trkpt lat="43.98674" lon="3.08584">
        <ele>710.5515137</ele>
        <time>2013-08-09T05:51:17Z</time>
      </trkpt>
      <trkpt lat="43.98679" lon="3.08591">
        <ele>710.0708008</ele>
        <time>2013-08-09T05:51:23Z</time>
      </trkpt>
      <trkpt lat="43.98682" lon="3.08602">
        <ele>708.6289063</ele>
        <time>2013-08-09T05:51:30Z</time>
      </trkpt>
      <trkpt lat="43.98685" lon="3.08613">
        <ele>708.1484375</ele>
        <time>2013-08-09T05:51:36Z</time>
      </trkpt>
      <trkpt lat="43.98687" lon="3.08619">
        <ele>708.1484375</ele>
        <time>2013-08-09T05:51:39Z</time>
      </trkpt>
      <trkpt lat="43.98687" lon="3.0862">
        <ele>708.1484375</ele>
        <time>2013-08-09T05:51:40Z</time>
      </trkpt>
      <trkpt lat="43.98691" lon="3.08626">
        <ele>708.1484375</ele>
        <time>2013-08-09T05:51:44Z</time>
      </trkpt>
      <trkpt lat="43.987" lon="3.08632">
        <ele>706.7062988</ele>
        <time>2013-08-09T05:51:50Z</time>
      </trkpt>
      <trkpt lat="43.98706" lon="3.08634">
        <ele>706.7062988</ele>
        <time>2013-08-09T05:51:54Z</time>
      </trkpt>
      <trkpt lat="43.98708" lon="3.08636">
        <ele>706.2255859</ele>
        <time>2013-08-09T05:51:56Z</time>
      </trkpt>
      <trkpt lat="43.9871" lon="3.08637">
        <ele>705.7451172</ele>
        <time>2013-08-09T05:51:58Z</time>
      </trkpt>
      <trkpt lat="43.9872" lon="3.08636">
        <ele>703.8225098</ele>
        <time>2013-08-09T05:52:06Z</time>
      </trkpt>
      <trkpt lat="43.98728" lon="3.08632">
        <ele>703.3417969</ele>
        <time>2013-08-09T05:52:12Z</time>
      </trkpt>
      <trkpt lat="43.98736" lon="3.08628">
        <ele>701.8999023</ele>
        <time>2013-08-09T05:52:18Z</time>
      </trkpt>
      <trkpt lat="43.98737" lon="3.08626">
        <ele>701.8999023</ele>
        <time>2013-08-09T05:52:19Z</time>
      </trkpt>
      <trkpt lat="43.98743" lon="3.0862">
        <ele>700.9384766</ele>
        <time>2013-08-09T05:52:24Z</time>
      </trkpt>
      <trkpt lat="43.98747" lon="3.08616">
        <ele>700.4580078</ele>
        <time>2013-08-09T05:52:28Z</time>
      </trkpt>
      <trkpt lat="43.98749" lon="3.08616">
        <ele>699.9770508</ele>
        <time>2013-08-09T05:52:29Z</time>
      </trkpt>
      <trkpt lat="43.98751" lon="3.08615">
        <ele>699.4963379</ele>
        <time>2013-08-09T05:52:31Z</time>
      </trkpt>
      <trkpt lat="43.98755" lon="3.08614">
        <ele>698.0544434</ele>
        <time>2013-08-09T05:52:34Z</time>
      </trkpt>
      <trkpt lat="43.98761" lon="3.08614">
        <ele>696.1318359</ele>
        <time>2013-08-09T05:52:38Z</time>
      </trkpt>
      <trkpt lat="43.98765" lon="3.08614">
        <ele>695.1704102</ele>
        <time>2013-08-09T05:52:41Z</time>
      </trkpt>
      <trkpt lat="43.9877" lon="3.08614">
        <ele>694.2092285</ele>
        <time>2013-08-09T05:52:46Z</time>
      </trkpt>
      <trkpt lat="43.98779" lon="3.08614">
        <ele>693.7285156</ele>
        <time>2013-08-09T05:52:53Z</time>
      </trkpt>
      <trkpt lat="43.9878" lon="3.08614">
        <ele>693.7285156</ele>
        <time>2013-08-09T05:52:54Z</time>
      </trkpt>
      <trkpt lat="43.98789" lon="3.08614">
        <ele>693.7285156</ele>
        <time>2013-08-09T05:53:00Z</time>
      </trkpt>
      <trkpt lat="43.98795" lon="3.08616">
        <ele>692.767334</ele>
        <time>2013-08-09T05:53:04Z</time>
      </trkpt>
      <trkpt lat="43.98804" lon="3.08616">
        <ele>691.3251953</ele>
        <time>2013-08-09T05:53:11Z</time>
      </trkpt>
      <trkpt lat="43.98812" lon="3.08615">
        <ele>688.4414063</ele>
        <time>2013-08-09T05:53:17Z</time>
      </trkpt>
      <trkpt lat="43.98817" lon="3.08615">
        <ele>687.4799805</ele>
        <time>2013-08-09T05:53:20Z</time>
      </trkpt>
      <trkpt lat="43.98827" lon="3.08615">
        <ele>685.0769043</ele>
        <time>2013-08-09T05:53:28Z</time>
      </trkpt>
      <trkpt lat="43.98834" lon="3.08616">
        <ele>684.5961914</ele>
        <time>2013-08-09T05:53:33Z</time>
      </trkpt>
      <trkpt lat="43.98843" lon="3.08616">
        <ele>683.1538086</ele>
        <time>2013-08-09T05:53:40Z</time>
      </trkpt>
      <trkpt lat="43.98854" lon="3.08615">
        <ele>682.192627</ele>
        <time>2013-08-09T05:53:48Z</time>
      </trkpt>
      <trkpt lat="43.98859" lon="3.08614">
        <ele>681.7119141</ele>
        <time>2013-08-09T05:53:51Z</time>
      </trkpt>
      <trkpt lat="43.98864" lon="3.08613">
        <ele>681.2314453</ele>
        <time>2013-08-09T05:53:55Z</time>
      </trkpt>
      <trkpt lat="43.98869" lon="3.08612">
        <ele>680.2700195</ele>
        <time>2013-08-09T05:53:59Z</time>
      </trkpt>
      <trkpt lat="43.98873" lon="3.08612">
        <ele>679.7893066</ele>
        <time>2013-08-09T05:54:02Z</time>
      </trkpt>
      <trkpt lat="43.98881" lon="3.08612">
        <ele>678.828125</ele>
        <time>2013-08-09T05:54:08Z</time>
      </trkpt>
      <trkpt lat="43.9889" lon="3.0861">
        <ele>676.9055176</ele>
        <time>2013-08-09T05:54:15Z</time>
      </trkpt>
      <trkpt lat="43.98892" lon="3.0861">
        <ele>676.4248047</ele>
        <time>2013-08-09T05:54:16Z</time>
      </trkpt>
      <trkpt lat="43.98897" lon="3.08615">
        <ele>674.9829102</ele>
        <time>2013-08-09T05:54:20Z</time>
      </trkpt>
      <trkpt lat="43.98903" lon="3.08623">
        <ele>673.5410156</ele>
        <time>2013-08-09T05:54:25Z</time>
      </trkpt>
      <trkpt lat="43.98904" lon="3.08624">
        <ele>673.5410156</ele>
        <time>2013-08-09T05:54:26Z</time>
      </trkpt>
      <trkpt lat="43.98911" lon="3.08631">
        <ele>674.5021973</ele>
        <time>2013-08-09T05:54:32Z</time>
      </trkpt>
      <trkpt lat="43.98918" lon="3.0864">
        <ele>674.0214844</ele>
        <time>2013-08-09T05:54:39Z</time>
      </trkpt>
      <trkpt lat="43.98925" lon="3.08646">
        <ele>672.5795898</ele>
        <time>2013-08-09T05:54:46Z</time>
      </trkpt>
      <trkpt lat="43.98932" lon="3.0865">
        <ele>670.6569824</ele>
        <time>2013-08-09T05:54:52Z</time>
      </trkpt>
      <trkpt lat="43.98934" lon="3.08652">
        <ele>669.6958008</ele>
        <time>2013-08-09T05:54:54Z</time>
      </trkpt>
      <trkpt lat="43.98939" lon="3.0866">
        <ele>668.734375</ele>
        <time>2013-08-09T05:55:00Z</time>
      </trkpt>
      <trkpt lat="43.9895" lon="3.08669">
        <ele>667.7727051</ele>
        <time>2013-08-09T05:55:07Z</time>
      </trkpt>
      <trkpt lat="43.98952" lon="3.08669">
        <ele>667.7727051</ele>
        <time>2013-08-09T05:55:08Z</time>
      </trkpt>
      <trkpt lat="43.98958" lon="3.08674">
        <ele>665.8503418</ele>
        <time>2013-08-09T05:55:13Z</time>
      </trkpt>
      <trkpt lat="43.98961" lon="3.08678">
        <ele>662.9663086</ele>
        <time>2013-08-09T05:55:16Z</time>
      </trkpt>
      <trkpt lat="43.98968" lon="3.08681">
        <ele>662.9663086</ele>
        <time>2013-08-09T05:55:21Z</time>
      </trkpt>
      <trkpt lat="43.98977" lon="3.08688">
        <ele>662.005127</ele>
        <time>2013-08-09T05:55:28Z</time>
      </trkpt>
      <trkpt lat="43.98979" lon="3.08691">
        <ele>661.0437012</ele>
        <time>2013-08-09T05:55:30Z</time>
      </trkpt>
      <trkpt lat="43.98985" lon="3.08702">
        <ele>660.5629883</ele>
        <time>2013-08-09T05:55:37Z</time>
      </trkpt>
      <trkpt lat="43.9899" lon="3.0871">
        <ele>661.5244141</ele>
        <time>2013-08-09T05:55:43Z</time>
      </trkpt>
      <trkpt lat="43.98993" lon="3.08711">
        <ele>661.5244141</ele>
        <time>2013-08-09T05:55:46Z</time>
      </trkpt>
      <trkpt lat="43.98999" lon="3.0871">
        <ele>662.4855957</ele>
        <time>2013-08-09T05:55:50Z</time>
      </trkpt>
      <trkpt lat="43.99003" lon="3.08709">
        <ele>661.0437012</ele>
        <time>2013-08-09T05:55:53Z</time>
      </trkpt>
      <trkpt lat="43.99007" lon="3.08712">
        <ele>661.0437012</ele>
        <time>2013-08-09T05:55:57Z</time>
      </trkpt>
      <trkpt lat="43.9901" lon="3.08712">
        <ele>660.5629883</ele>
        <time>2013-08-09T05:56:03Z</time>
      </trkpt>
      <trkpt lat="43.99013" lon="3.08713">
        <ele>660.5629883</ele>
        <time>2013-08-09T05:56:07Z</time>
      </trkpt>
      <trkpt lat="43.99023" lon="3.08716">
        <ele>662.005127</ele>
        <time>2013-08-09T05:56:13Z</time>
      </trkpt>
      <trkpt lat="43.99033" lon="3.08719">
        <ele>661.0437012</ele>
        <time>2013-08-09T05:56:19Z</time>
      </trkpt>
      <trkpt lat="43.99041" lon="3.08723">
        <ele>659.1210938</ele>
        <time>2013-08-09T05:56:24Z</time>
      </trkpt>
      <trkpt lat="43.99048" lon="3.08729">
        <ele>656.2370605</ele>
        <time>2013-08-09T05:56:30Z</time>
      </trkpt>
      <trkpt lat="43.99049" lon="3.0873">
        <ele>655.2758789</ele>
        <time>2013-08-09T05:56:31Z</time>
      </trkpt>
      <trkpt lat="43.99054" lon="3.08735">
        <ele>652.3918457</ele>
        <time>2013-08-09T05:56:37Z</time>
      </trkpt>
      <trkpt lat="43.99058" lon="3.08738">
        <ele>651.4304199</ele>
        <time>2013-08-09T05:56:40Z</time>
      </trkpt>
      <trkpt lat="43.99061" lon="3.08744">
        <ele>649.5078125</ele>
        <time>2013-08-09T05:56:44Z</time>
      </trkpt>
      <trkpt lat="43.99061" lon="3.08749">
        <ele>648.5463867</ele>
        <time>2013-08-09T05:56:47Z</time>
      </trkpt>
      <trkpt lat="43.9906" lon="3.08753">
        <ele>647.5852051</ele>
        <time>2013-08-09T05:56:49Z</time>
      </trkpt>
      <trkpt lat="43.99058" lon="3.0876">
        <ele>645.6625977</ele>
        <time>2013-08-09T05:56:53Z</time>
      </trkpt>
      <trkpt lat="43.99059" lon="3.08775">
        <ele>645.6625977</ele>
        <time>2013-08-09T05:57:00Z</time>
      </trkpt>
      <trkpt lat="43.9906" lon="3.08784">
        <ele>646.6240234</ele>
        <time>2013-08-09T05:57:04Z</time>
      </trkpt>
      <trkpt lat="43.99061" lon="3.08792">
        <ele>647.5852051</ele>
        <time>2013-08-09T05:57:07Z</time>
      </trkpt>
      <trkpt lat="43.99067" lon="3.08796">
        <ele>646.6240234</ele>
        <time>2013-08-09T05:57:13Z</time>
      </trkpt>
      <trkpt lat="43.99072" lon="3.08791">
        <ele>646.1433105</ele>
        <time>2013-08-09T05:57:18Z</time>
      </trkpt>
      <trkpt lat="43.99074" lon="3.08786">
        <ele>645.6625977</ele>
        <time>2013-08-09T05:57:21Z</time>
      </trkpt>
      <trkpt lat="43.99079" lon="3.08776">
        <ele>644.7011719</ele>
        <time>2013-08-09T05:57:27Z</time>
      </trkpt>
      <trkpt lat="43.99081" lon="3.0877">
        <ele>643.7399902</ele>
        <time>2013-08-09T05:57:31Z</time>
      </trkpt>
      <trkpt lat="43.99084" lon="3.08759">
        <ele>642.2980957</ele>
        <time>2013-08-09T05:57:37Z</time>
      </trkpt>
      <trkpt lat="43.99086" lon="3.08752">
        <ele>639.8947754</ele>
        <time>2013-08-09T05:57:42Z</time>
      </trkpt>
      <trkpt lat="43.99086" lon="3.08744">
        <ele>636.5302734</ele>
        <time>2013-08-09T05:57:47Z</time>
      </trkpt>
      <trkpt lat="43.99083" lon="3.08732">
        <ele>635.5686035</ele>
        <time>2013-08-09T05:57:53Z</time>
      </trkpt>
      <trkpt lat="43.99079" lon="3.08722">
        <ele>634.6074219</ele>
        <time>2013-08-09T05:57:58Z</time>
      </trkpt>
      <trkpt lat="43.99076" lon="3.08714">
        <ele>634.126709</ele>
        <time>2013-08-09T05:58:02Z</time>
      </trkpt>
      <trkpt lat="43.9907" lon="3.08702">
        <ele>634.126709</ele>
        <time>2013-08-09T05:58:11Z</time>
      </trkpt>
      <trkpt lat="43.99065" lon="3.08693">
        <ele>635.5686035</ele>
        <time>2013-08-09T05:58:17Z</time>
      </trkpt>
      <trkpt lat="43.99057" lon="3.0868">
        <ele>637.972168</ele>
        <time>2013-08-09T05:58:26Z</time>
      </trkpt>
      <trkpt lat="43.99051" lon="3.08673">
        <ele>639.8947754</ele>
        <time>2013-08-09T05:58:32Z</time>
      </trkpt>
      <trkpt lat="43.9905" lon="3.08671">
        <ele>640.855957</ele>
        <time>2013-08-09T05:58:34Z</time>
      </trkpt>
      <trkpt lat="43.99042" lon="3.0866">
        <ele>643.2592773</ele>
        <time>2013-08-09T05:58:42Z</time>
      </trkpt>
      <trkpt lat="43.99041" lon="3.08658">
        <ele>643.7399902</ele>
        <time>2013-08-09T05:58:43Z</time>
      </trkpt>
      <trkpt lat="43.99032" lon="3.08646">
        <ele>644.7011719</ele>
        <time>2013-08-09T05:58:50Z</time>
      </trkpt>
      <trkpt lat="43.99026" lon="3.08634">
        <ele>645.6625977</ele>
        <time>2013-08-09T05:58:56Z</time>
      </trkpt>
      <trkpt lat="43.99031" lon="3.08625">
        <ele>647.1044922</ele>
        <time>2013-08-09T05:59:02Z</time>
      </trkpt>
      <trkpt lat="43.99037" lon="3.08621">
        <ele>646.6240234</ele>
        <time>2013-08-09T05:59:07Z</time>
      </trkpt>
      <trkpt lat="43.99041" lon="3.08618">
        <ele>646.6240234</ele>
        <time>2013-08-09T05:59:10Z</time>
      </trkpt>
      <trkpt lat="43.99052" lon="3.08612">
        <ele>647.5852051</ele>
        <time>2013-08-09T05:59:19Z</time>
      </trkpt>
      <trkpt lat="43.99059" lon="3.0861">
        <ele>649.5078125</ele>
        <time>2013-08-09T05:59:25Z</time>
      </trkpt>
      <trkpt lat="43.99065" lon="3.0861">
        <ele>650.4692383</ele>
        <time>2013-08-09T05:59:29Z</time>
      </trkpt>
      <trkpt lat="43.99077" lon="3.08613">
        <ele>651.4304199</ele>
        <time>2013-08-09T05:59:37Z</time>
      </trkpt>
      <trkpt lat="43.99087" lon="3.08609">
        <ele>651.4304199</ele>
        <time>2013-08-09T05:59:44Z</time>
      </trkpt>
      <trkpt lat="43.99096" lon="3.08608">
        <ele>650.949707</ele>
        <time>2013-08-09T05:59:51Z</time>
      </trkpt>
      <trkpt lat="43.991" lon="3.08608">
        <ele>650.4692383</ele>
        <time>2013-08-09T05:59:54Z</time>
      </trkpt>
      <trkpt lat="43.99104" lon="3.08608">
        <ele>650.949707</ele>
        <time>2013-08-09T05:59:58Z</time>
      </trkpt>
      <trkpt lat="43.99115" lon="3.08608">
        <ele>652.8725586</ele>
        <time>2013-08-09T06:00:05Z</time>
      </trkpt>
      <trkpt lat="43.99122" lon="3.0861">
        <ele>653.3532715</ele>
        <time>2013-08-09T06:00:10Z</time>
      </trkpt>
      <trkpt lat="43.99131" lon="3.0861">
        <ele>653.8339844</ele>
        <time>2013-08-09T06:00:16Z</time>
      </trkpt>
      <trkpt lat="43.99132" lon="3.0861">
        <ele>653.8339844</ele>
        <time>2013-08-09T06:00:17Z</time>
      </trkpt>
      <trkpt lat="43.99141" lon="3.08608">
        <ele>654.3146973</ele>
        <time>2013-08-09T06:00:24Z</time>
      </trkpt>
      <trkpt lat="43.99143" lon="3.08607">
        <ele>653.8339844</ele>
        <time>2013-08-09T06:00:26Z</time>
      </trkpt>
      <trkpt lat="43.99149" lon="3.08601">
        <ele>654.3146973</ele>
        <time>2013-08-09T06:00:31Z</time>
      </trkpt>
      <trkpt lat="43.99153" lon="3.08595">
        <ele>653.8339844</ele>
        <time>2013-08-09T06:00:36Z</time>
      </trkpt>
      <trkpt lat="43.99157" lon="3.08581">
        <ele>653.8339844</ele>
        <time>2013-08-09T06:00:44Z</time>
      </trkpt>
      <trkpt lat="43.99158" lon="3.08573">
        <ele>653.8339844</ele>
        <time>2013-08-09T06:00:48Z</time>
      </trkpt>
      <trkpt lat="43.99161" lon="3.08564">
        <ele>654.3146973</ele>
        <time>2013-08-09T06:00:53Z</time>
      </trkpt>
      <trkpt lat="43.99163" lon="3.08555">
        <ele>653.8339844</ele>
        <time>2013-08-09T06:00:58Z</time>
      </trkpt>
      <trkpt lat="43.99164" lon="3.08549">
        <ele>654.3146973</ele>
        <time>2013-08-09T06:01:01Z</time>
      </trkpt>
      <trkpt lat="43.99165" lon="3.08545">
        <ele>654.3146973</ele>
        <time>2013-08-09T06:01:03Z</time>
      </trkpt>
      <trkpt lat="43.99168" lon="3.08534">
        <ele>653.8339844</ele>
        <time>2013-08-09T06:01:09Z</time>
      </trkpt>
      <trkpt lat="43.99168" lon="3.08524">
        <ele>653.8339844</ele>
        <time>2013-08-09T06:01:14Z</time>
      </trkpt>
      <trkpt lat="43.9917" lon="3.08517">
        <ele>653.8339844</ele>
        <time>2013-08-09T06:01:18Z</time>
      </trkpt>
      <trkpt lat="43.99169" lon="3.08509">
        <ele>653.3532715</ele>
        <time>2013-08-09T06:01:22Z</time>
      </trkpt>
      <trkpt lat="43.99167" lon="3.085">
        <ele>652.3918457</ele>
        <time>2013-08-09T06:01:27Z</time>
      </trkpt>
      <trkpt lat="43.99164" lon="3.0849">
        <ele>654.3146973</ele>
        <time>2013-08-09T06:01:33Z</time>
      </trkpt>
      <trkpt lat="43.99163" lon="3.08486">
        <ele>654.3146973</ele>
        <time>2013-08-09T06:01:35Z</time>
      </trkpt>
      <trkpt lat="43.99161" lon="3.08472">
        <ele>654.795166</ele>
        <time>2013-08-09T06:01:43Z</time>
      </trkpt>
      <trkpt lat="43.9916" lon="3.08462">
        <ele>654.795166</ele>
        <time>2013-08-09T06:01:48Z</time>
      </trkpt>
      <trkpt lat="43.99155" lon="3.08444">
        <ele>656.7177734</ele>
        <time>2013-08-09T06:01:57Z</time>
      </trkpt>
      <trkpt lat="43.99152" lon="3.08432">
        <ele>656.7177734</ele>
        <time>2013-08-09T06:02:04Z</time>
      </trkpt>
      <trkpt lat="43.99148" lon="3.08424">
        <ele>657.6791992</ele>
        <time>2013-08-09T06:02:10Z</time>
      </trkpt>
      <trkpt lat="43.99146" lon="3.08418">
        <ele>657.6791992</ele>
        <time>2013-08-09T06:02:14Z</time>
      </trkpt>
      <trkpt lat="43.99144" lon="3.0841">
        <ele>658.1599121</ele>
        <time>2013-08-09T06:02:19Z</time>
      </trkpt>
      <trkpt lat="43.9914" lon="3.08398">
        <ele>657.6791992</ele>
        <time>2013-08-09T06:02:26Z</time>
      </trkpt>
      <trkpt lat="43.9914" lon="3.08384">
        <ele>656.7177734</ele>
        <time>2013-08-09T06:02:33Z</time>
      </trkpt>
      <trkpt lat="43.99141" lon="3.08369">
        <ele>654.795166</ele>
        <time>2013-08-09T06:02:41Z</time>
      </trkpt>
      <trkpt lat="43.99142" lon="3.08363">
        <ele>653.3532715</ele>
        <time>2013-08-09T06:02:44Z</time>
      </trkpt>
      <trkpt lat="43.99144" lon="3.08351">
        <ele>653.3532715</ele>
        <time>2013-08-09T06:02:51Z</time>
      </trkpt>
      <trkpt lat="43.99143" lon="3.08338">
        <ele>651.9111328</ele>
        <time>2013-08-09T06:02:58Z</time>
      </trkpt>
      <trkpt lat="43.99146" lon="3.08326">
        <ele>656.2370605</ele>
        <time>2013-08-09T06:03:06Z</time>
      </trkpt>
      <trkpt lat="43.9915" lon="3.08316">
        <ele>657.1984863</ele>
        <time>2013-08-09T06:03:13Z</time>
      </trkpt>
      <trkpt lat="43.99151" lon="3.08315">
        <ele>657.1984863</ele>
        <time>2013-08-09T06:03:14Z</time>
      </trkpt>
      <trkpt lat="43.99155" lon="3.08305">
        <ele>657.6791992</ele>
        <time>2013-08-09T06:03:20Z</time>
      </trkpt>
      <trkpt lat="43.99159" lon="3.08296">
        <ele>657.6791992</ele>
        <time>2013-08-09T06:03:26Z</time>
      </trkpt>
      <trkpt lat="43.99161" lon="3.08288">
        <ele>657.6791992</ele>
        <time>2013-08-09T06:03:31Z</time>
      </trkpt>
      <trkpt lat="43.99164" lon="3.08273">
        <ele>659.6018066</ele>
        <time>2013-08-09T06:03:39Z</time>
      </trkpt>
      <trkpt lat="43.99164" lon="3.08264">
        <ele>661.5244141</ele>
        <time>2013-08-09T06:03:44Z</time>
      </trkpt>
      <trkpt lat="43.99163" lon="3.0825">
        <ele>663.9274902</ele>
        <time>2013-08-09T06:03:52Z</time>
      </trkpt>
      <trkpt lat="43.99161" lon="3.08238">
        <ele>667.2922363</ele>
        <time>2013-08-09T06:03:59Z</time>
      </trkpt>
      <trkpt lat="43.99159" lon="3.08225">
        <ele>668.734375</ele>
        <time>2013-08-09T06:04:07Z</time>
      </trkpt>
      <trkpt lat="43.99155" lon="3.0821">
        <ele>669.2150879</ele>
        <time>2013-08-09T06:04:16Z</time>
      </trkpt>
      <trkpt lat="43.99155" lon="3.08208">
        <ele>669.2150879</ele>
        <time>2013-08-09T06:04:17Z</time>
      </trkpt>
      <trkpt lat="43.99154" lon="3.08198">
        <ele>669.2150879</ele>
        <time>2013-08-09T06:04:23Z</time>
      </trkpt>
      <trkpt lat="43.99154" lon="3.08195">
        <ele>669.2150879</ele>
        <time>2013-08-09T06:04:25Z</time>
      </trkpt>
      <trkpt lat="43.99154" lon="3.08188">
        <ele>667.7727051</ele>
        <time>2013-08-09T06:04:30Z</time>
      </trkpt>
      <trkpt lat="43.99157" lon="3.0818">
        <ele>666.8115234</ele>
        <time>2013-08-09T06:04:36Z</time>
      </trkpt>
      <trkpt lat="43.99162" lon="3.08171">
        <ele>666.8115234</ele>
        <time>2013-08-09T06:04:42Z</time>
      </trkpt>
      <trkpt lat="43.99166" lon="3.08167">
        <ele>666.3308105</ele>
        <time>2013-08-09T06:04:46Z</time>
      </trkpt>
      <trkpt lat="43.99172" lon="3.08165">
        <ele>666.3308105</ele>
        <time>2013-08-09T06:04:51Z</time>
      </trkpt>
      <trkpt lat="43.9918" lon="3.08166">
        <ele>665.8503418</ele>
        <time>2013-08-09T06:04:57Z</time>
      </trkpt>
      <trkpt lat="43.99186" lon="3.08164">
        <ele>665.3696289</ele>
        <time>2013-08-09T06:05:02Z</time>
      </trkpt>
      <trkpt lat="43.99196" lon="3.08158">
        <ele>665.3696289</ele>
        <time>2013-08-09T06:05:09Z</time>
      </trkpt>
      <trkpt lat="43.99205" lon="3.08148">
        <ele>665.8503418</ele>
        <time>2013-08-09T06:05:17Z</time>
      </trkpt>
      <trkpt lat="43.99208" lon="3.08143">
        <ele>666.3308105</ele>
        <time>2013-08-09T06:05:20Z</time>
      </trkpt>
      <trkpt lat="43.99214" lon="3.08134">
        <ele>666.3308105</ele>
        <time>2013-08-09T06:05:26Z</time>
      </trkpt>
      <trkpt lat="43.9922" lon="3.08119">
        <ele>664.888916</ele>
        <time>2013-08-09T06:05:34Z</time>
      </trkpt>
      <trkpt lat="43.99225" lon="3.08109">
        <ele>662.005127</ele>
        <time>2013-08-09T06:05:40Z</time>
      </trkpt>
      <trkpt lat="43.99229" lon="3.08099">
        <ele>662.005127</ele>
        <time>2013-08-09T06:05:46Z</time>
      </trkpt>
      <trkpt lat="43.99234" lon="3.08088">
        <ele>661.0437012</ele>
        <time>2013-08-09T06:05:53Z</time>
      </trkpt>
      <trkpt lat="43.99239" lon="3.08073">
        <ele>661.5244141</ele>
        <time>2013-08-09T06:06:01Z</time>
      </trkpt>
      <trkpt lat="43.9924" lon="3.08062">
        <ele>661.5244141</ele>
        <time>2013-08-09T06:06:07Z</time>
      </trkpt>
      <trkpt lat="43.99238" lon="3.08047">
        <ele>661.0437012</ele>
        <time>2013-08-09T06:06:14Z</time>
      </trkpt>
      <trkpt lat="43.99234" lon="3.0804">
        <ele>661.0437012</ele>
        <time>2013-08-09T06:06:18Z</time>
      </trkpt>
      <trkpt lat="43.9923" lon="3.08027">
        <ele>660.5629883</ele>
        <time>2013-08-09T06:06:25Z</time>
      </trkpt>
      <trkpt lat="43.99228" lon="3.08025">
        <ele>661.0437012</ele>
        <time>2013-08-09T06:06:26Z</time>
      </trkpt>
      <trkpt lat="43.99225" lon="3.08015">
        <ele>661.5244141</ele>
        <time>2013-08-09T06:06:31Z</time>
      </trkpt>
      <trkpt lat="43.99223" lon="3.08007">
        <ele>661.0437012</ele>
        <time>2013-08-09T06:06:36Z</time>
      </trkpt>
      <trkpt lat="43.99225" lon="3.08">
        <ele>661.0437012</ele>
        <time>2013-08-09T06:06:40Z</time>
      </trkpt>
      <trkpt lat="43.99226" lon="3.07995">
        <ele>660.5629883</ele>
        <time>2013-08-09T06:06:43Z</time>
      </trkpt>
      <trkpt lat="43.99232" lon="3.07986">
        <ele>660.0822754</ele>
        <time>2013-08-09T06:06:52Z</time>
      </trkpt>
      <trkpt lat="43.99236" lon="3.0798">
        <ele>661.0437012</ele>
        <time>2013-08-09T06:06:58Z</time>
      </trkpt>
      <trkpt lat="43.99243" lon="3.07973">
        <ele>662.9663086</ele>
        <time>2013-08-09T06:07:05Z</time>
      </trkpt>
      <trkpt lat="43.9925" lon="3.07966">
        <ele>664.888916</ele>
        <time>2013-08-09T06:07:12Z</time>
      </trkpt>
      <trkpt lat="43.99254" lon="3.07959">
        <ele>665.8503418</ele>
        <time>2013-08-09T06:07:17Z</time>
      </trkpt>
      <trkpt lat="43.99257" lon="3.07951">
        <ele>667.2922363</ele>
        <time>2013-08-09T06:07:22Z</time>
      </trkpt>
      <trkpt lat="43.99263" lon="3.07942">
        <ele>667.7727051</ele>
        <time>2013-08-09T06:07:29Z</time>
      </trkpt>
      <trkpt lat="43.99266" lon="3.07935">
        <ele>668.2536621</ele>
        <time>2013-08-09T06:07:33Z</time>
      </trkpt>
      <trkpt lat="43.99269" lon="3.0792">
        <ele>668.2536621</ele>
        <time>2013-08-09T06:07:42Z</time>
      </trkpt>
      <trkpt lat="43.9927" lon="3.07909">
        <ele>668.734375</ele>
        <time>2013-08-09T06:07:48Z</time>
      </trkpt>
      <trkpt lat="43.99271" lon="3.07903">
        <ele>668.734375</ele>
        <time>2013-08-09T06:07:51Z</time>
      </trkpt>
      <trkpt lat="43.99272" lon="3.07896">
        <ele>669.2150879</ele>
        <time>2013-08-09T06:07:55Z</time>
      </trkpt>
      <trkpt lat="43.99272" lon="3.07886">
        <ele>670.6569824</ele>
        <time>2013-08-09T06:08:00Z</time>
      </trkpt>
      <trkpt lat="43.99273" lon="3.07882">
        <ele>671.1376953</ele>
        <time>2013-08-09T06:08:03Z</time>
      </trkpt>
      <trkpt lat="43.99273" lon="3.07878">
        <ele>671.1376953</ele>
        <time>2013-08-09T06:08:05Z</time>
      </trkpt>
      <trkpt lat="43.99275" lon="3.07867">
        <ele>672.098877</ele>
        <time>2013-08-09T06:08:11Z</time>
      </trkpt>
      <trkpt lat="43.99276" lon="3.07854">
        <ele>672.5795898</ele>
        <time>2013-08-09T06:08:19Z</time>
      </trkpt>
      <trkpt lat="43.99276" lon="3.07842">
        <ele>672.5795898</ele>
        <time>2013-08-09T06:08:26Z</time>
      </trkpt>
      <trkpt lat="43.99277" lon="3.0783">
        <ele>674.9829102</ele>
        <time>2013-08-09T06:08:33Z</time>
      </trkpt>
      <trkpt lat="43.99277" lon="3.07816">
        <ele>677.3862305</ele>
        <time>2013-08-09T06:08:42Z</time>
      </trkpt>
      <trkpt lat="43.99277" lon="3.07802">
        <ele>678.3474121</ele>
        <time>2013-08-09T06:08:50Z</time>
      </trkpt>
      <trkpt lat="43.99278" lon="3.07791">
        <ele>679.3085938</ele>
        <time>2013-08-09T06:08:57Z</time>
      </trkpt>
      <trkpt lat="43.99278" lon="3.07782">
        <ele>679.7893066</ele>
        <time>2013-08-09T06:09:02Z</time>
      </trkpt>
      <trkpt lat="43.99278" lon="3.07775">
        <ele>680.2700195</ele>
        <time>2013-08-09T06:09:06Z</time>
      </trkpt>
      <trkpt lat="43.99277" lon="3.07762">
        <ele>680.7507324</ele>
        <time>2013-08-09T06:09:13Z</time>
      </trkpt>
      <trkpt lat="43.99273" lon="3.07746">
        <ele>682.192627</ele>
        <time>2013-08-09T06:09:22Z</time>
      </trkpt>
      <trkpt lat="43.99272" lon="3.07731">
        <ele>684.1154785</ele>
        <time>2013-08-09T06:09:30Z</time>
      </trkpt>
      <trkpt lat="43.99273" lon="3.07717">
        <ele>684.1154785</ele>
        <time>2013-08-09T06:09:37Z</time>
      </trkpt>
      <trkpt lat="43.99273" lon="3.07703">
        <ele>685.0769043</ele>
        <time>2013-08-09T06:09:45Z</time>
      </trkpt>
      <trkpt lat="43.99274" lon="3.07691">
        <ele>685.557373</ele>
        <time>2013-08-09T06:09:51Z</time>
      </trkpt>
      <trkpt lat="43.99279" lon="3.07678">
        <ele>685.557373</ele>
        <time>2013-08-09T06:09:59Z</time>
      </trkpt>
      <trkpt lat="43.99285" lon="3.07665">
        <ele>684.5961914</ele>
        <time>2013-08-09T06:10:07Z</time>
      </trkpt>
      <trkpt lat="43.99291" lon="3.07653">
        <ele>684.1154785</ele>
        <time>2013-08-09T06:10:15Z</time>
      </trkpt>
      <trkpt lat="43.99294" lon="3.0765">
        <ele>683.6345215</ele>
        <time>2013-08-09T06:10:18Z</time>
      </trkpt>
      <trkpt lat="43.99302" lon="3.07638">
        <ele>684.1154785</ele>
        <time>2013-08-09T06:10:27Z</time>
      </trkpt>
      <trkpt lat="43.99307" lon="3.07627">
        <ele>684.5961914</ele>
        <time>2013-08-09T06:10:34Z</time>
      </trkpt>
      <trkpt lat="43.9931" lon="3.07619">
        <ele>685.0769043</ele>
        <time>2013-08-09T06:10:39Z</time>
      </trkpt>
      <trkpt lat="43.99312" lon="3.07611">
        <ele>685.557373</ele>
        <time>2013-08-09T06:10:44Z</time>
      </trkpt>
      <trkpt lat="43.99315" lon="3.07598">
        <ele>685.557373</ele>
        <time>2013-08-09T06:10:51Z</time>
      </trkpt>
      <trkpt lat="43.99316" lon="3.07595">
        <ele>685.557373</ele>
        <time>2013-08-09T06:10:53Z</time>
      </trkpt>
      <trkpt lat="43.99316" lon="3.07591">
        <ele>686.0380859</ele>
        <time>2013-08-09T06:10:55Z</time>
      </trkpt>
      <trkpt lat="43.99318" lon="3.07584">
        <ele>686.5187988</ele>
        <time>2013-08-09T06:10:59Z</time>
      </trkpt>
      <trkpt lat="43.99321" lon="3.07572">
        <ele>686.0380859</ele>
        <time>2013-08-09T06:11:04Z</time>
      </trkpt>
      <trkpt lat="43.99323" lon="3.07562">
        <ele>686.5187988</ele>
        <time>2013-08-09T06:11:10Z</time>
      </trkpt>
      <trkpt lat="43.99324" lon="3.07553">
        <ele>686.9992676</ele>
        <time>2013-08-09T06:11:15Z</time>
      </trkpt>
      <trkpt lat="43.99324" lon="3.07551">
        <ele>686.9992676</ele>
        <time>2013-08-09T06:11:16Z</time>
      </trkpt>
      <trkpt lat="43.99329" lon="3.07538">
        <ele>686.9992676</ele>
        <time>2013-08-09T06:11:24Z</time>
      </trkpt>
      <trkpt lat="43.99335" lon="3.07526">
        <ele>687.9606934</ele>
        <time>2013-08-09T06:11:32Z</time>
      </trkpt>
      <trkpt lat="43.99336" lon="3.07524">
        <ele>687.9606934</ele>
        <time>2013-08-09T06:11:33Z</time>
      </trkpt>
      <trkpt lat="43.9934" lon="3.07512">
        <ele>688.9221191</ele>
        <time>2013-08-09T06:11:40Z</time>
      </trkpt>
      <trkpt lat="43.99347" lon="3.07498">
        <ele>689.4025879</ele>
        <time>2013-08-09T06:11:49Z</time>
      </trkpt>
      <trkpt lat="43.99352" lon="3.07484">
        <ele>689.8833008</ele>
        <time>2013-08-09T06:11:57Z</time>
      </trkpt>
      <trkpt lat="43.99359" lon="3.07474">
        <ele>689.8833008</ele>
        <time>2013-08-09T06:12:04Z</time>
      </trkpt>
      <trkpt lat="43.99365" lon="3.07464">
        <ele>689.4025879</ele>
        <time>2013-08-09T06:12:11Z</time>
      </trkpt>
      <trkpt lat="43.99367" lon="3.07457">
        <ele>689.4025879</ele>
        <time>2013-08-09T06:12:15Z</time>
      </trkpt>
      <trkpt lat="43.9937" lon="3.07452">
        <ele>688.9221191</ele>
        <time>2013-08-09T06:12:19Z</time>
      </trkpt>
      <trkpt lat="43.99375" lon="3.07438">
        <ele>688.4414063</ele>
        <time>2013-08-09T06:12:27Z</time>
      </trkpt>
      <trkpt lat="43.9938" lon="3.07426">
        <ele>687.4799805</ele>
        <time>2013-08-09T06:12:34Z</time>
      </trkpt>
      <trkpt lat="43.99384" lon="3.07418">
        <ele>686.5187988</ele>
        <time>2013-08-09T06:12:39Z</time>
      </trkpt>
      <trkpt lat="43.99388" lon="3.07409">
        <ele>685.557373</ele>
        <time>2013-08-09T06:12:44Z</time>
      </trkpt>
      <trkpt lat="43.99393" lon="3.07397">
        <ele>684.1154785</ele>
        <time>2013-08-09T06:12:51Z</time>
      </trkpt>
      <trkpt lat="43.99397" lon="3.07389">
        <ele>683.1538086</ele>
        <time>2013-08-09T06:12:56Z</time>
      </trkpt>
      <trkpt lat="43.99398" lon="3.07388">
        <ele>682.6733398</ele>
        <time>2013-08-09T06:12:57Z</time>
      </trkpt>
      <trkpt lat="43.99402" lon="3.07382">
        <ele>682.192627</ele>
        <time>2013-08-09T06:13:01Z</time>
      </trkpt>
      <trkpt lat="43.99407" lon="3.07374">
        <ele>681.2314453</ele>
        <time>2013-08-09T06:13:07Z</time>
      </trkpt>
      <trkpt lat="43.99406" lon="3.07368">
        <ele>681.2314453</ele>
        <time>2013-08-09T06:13:11Z</time>
      </trkpt>
      <trkpt lat="43.99404" lon="3.07366">
        <ele>682.192627</ele>
        <time>2013-08-09T06:13:13Z</time>
      </trkpt>
      <trkpt lat="43.99405" lon="3.07365">
        <ele>683.6345215</ele>
        <time>2013-08-09T06:13:19Z</time>
      </trkpt>
      <trkpt lat="43.99404" lon="3.07361">
        <ele>684.1154785</ele>
        <time>2013-08-09T06:13:22Z</time>
      </trkpt>
      <trkpt lat="43.99405" lon="3.07358">
        <ele>684.1154785</ele>
        <time>2013-08-09T06:13:23Z</time>
      </trkpt>
      <trkpt lat="43.99402" lon="3.07343">
        <ele>687.4799805</ele>
        <time>2013-08-09T06:13:30Z</time>
      </trkpt>
      <trkpt lat="43.99401" lon="3.07334">
        <ele>688.4414063</ele>
        <time>2013-08-09T06:13:35Z</time>
      </trkpt>
      <trkpt lat="43.99398" lon="3.07318">
        <ele>689.8833008</ele>
        <time>2013-08-09T06:13:44Z</time>
      </trkpt>
      <trkpt lat="43.99399" lon="3.07305">
        <ele>690.3640137</ele>
        <time>2013-08-09T06:13:51Z</time>
      </trkpt>
      <trkpt lat="43.99401" lon="3.07299">
        <ele>689.8833008</ele>
        <time>2013-08-09T06:13:55Z</time>
      </trkpt>
      <trkpt lat="43.99404" lon="3.07287">
        <ele>689.8833008</ele>
        <time>2013-08-09T06:14:02Z</time>
      </trkpt>
      <trkpt lat="43.99407" lon="3.07277">
        <ele>690.3640137</ele>
        <time>2013-08-09T06:14:08Z</time>
      </trkpt>
      <trkpt lat="43.99409" lon="3.07262">
        <ele>690.8444824</ele>
        <time>2013-08-09T06:14:15Z</time>
      </trkpt>
      <trkpt lat="43.9941" lon="3.07245">
        <ele>691.3251953</ele>
        <time>2013-08-09T06:14:23Z</time>
      </trkpt>
      <trkpt lat="43.9941" lon="3.07234">
        <ele>691.8059082</ele>
        <time>2013-08-09T06:14:29Z</time>
      </trkpt>
      <trkpt lat="43.9941" lon="3.07219">
        <ele>691.3251953</ele>
        <time>2013-08-09T06:14:36Z</time>
      </trkpt>
      <trkpt lat="43.99409" lon="3.07208">
        <ele>691.3251953</ele>
        <time>2013-08-09T06:14:42Z</time>
      </trkpt>
      <trkpt lat="43.99409" lon="3.07203">
        <ele>692.2866211</ele>
        <time>2013-08-09T06:14:45Z</time>
      </trkpt>
      <trkpt lat="43.99407" lon="3.07196">
        <ele>693.2478027</ele>
        <time>2013-08-09T06:14:49Z</time>
      </trkpt>
      <trkpt lat="43.99403" lon="3.07183">
        <ele>695.1704102</ele>
        <time>2013-08-09T06:14:58Z</time>
      </trkpt>
      <trkpt lat="43.99397" lon="3.07171">
        <ele>696.6125488</ele>
        <time>2013-08-09T06:15:06Z</time>
      </trkpt>
      <trkpt lat="43.99392" lon="3.07157">
        <ele>697.5737305</ele>
        <time>2013-08-09T06:15:14Z</time>
      </trkpt>
      <trkpt lat="43.99386" lon="3.07144">
        <ele>698.0544434</ele>
        <time>2013-08-09T06:15:22Z</time>
      </trkpt>
      <trkpt lat="43.99386" lon="3.07143">
        <ele>698.0544434</ele>
        <time>2013-08-09T06:15:23Z</time>
      </trkpt>
      <trkpt lat="43.99386" lon="3.07135">
        <ele>698.0544434</ele>
        <time>2013-08-09T06:15:27Z</time>
      </trkpt>
      <trkpt lat="43.99388" lon="3.07126">
        <ele>696.1318359</ele>
        <time>2013-08-09T06:15:32Z</time>
      </trkpt>
      <trkpt lat="43.9939" lon="3.07119">
        <ele>695.651123</ele>
        <time>2013-08-09T06:15:36Z</time>
      </trkpt>
      <trkpt lat="43.9939" lon="3.07115">
        <ele>695.651123</ele>
        <time>2013-08-09T06:15:38Z</time>
      </trkpt>
      <trkpt lat="43.99384" lon="3.07105">
        <ele>693.7285156</ele>
        <time>2013-08-09T06:15:45Z</time>
      </trkpt>
      <trkpt lat="43.99382" lon="3.071">
        <ele>693.2478027</ele>
        <time>2013-08-09T06:15:48Z</time>
      </trkpt>
      <trkpt lat="43.99379" lon="3.07088">
        <ele>692.767334</ele>
        <time>2013-08-09T06:15:54Z</time>
      </trkpt>
      <trkpt lat="43.99379" lon="3.07084">
        <ele>693.2478027</ele>
        <time>2013-08-09T06:15:56Z</time>
      </trkpt>
      <trkpt lat="43.9938" lon="3.07076">
        <ele>692.767334</ele>
        <time>2013-08-09T06:16:00Z</time>
      </trkpt>
      <trkpt lat="43.99384" lon="3.07064">
        <ele>691.3251953</ele>
        <time>2013-08-09T06:16:06Z</time>
      </trkpt>
      <trkpt lat="43.99388" lon="3.07055">
        <ele>690.3640137</ele>
        <time>2013-08-09T06:16:11Z</time>
      </trkpt>
      <trkpt lat="43.99388" lon="3.07053">
        <ele>690.3640137</ele>
        <time>2013-08-09T06:16:12Z</time>
      </trkpt>
      <trkpt lat="43.99391" lon="3.07037">
        <ele>689.8833008</ele>
        <time>2013-08-09T06:16:20Z</time>
      </trkpt>
      <trkpt lat="43.99393" lon="3.07025">
        <ele>689.8833008</ele>
        <time>2013-08-09T06:16:26Z</time>
      </trkpt>
      <trkpt lat="43.99395" lon="3.07013">
        <ele>689.4025879</ele>
        <time>2013-08-09T06:16:32Z</time>
      </trkpt>
      <trkpt lat="43.99396" lon="3.07009">
        <ele>688.9221191</ele>
        <time>2013-08-09T06:16:34Z</time>
      </trkpt>
      <trkpt lat="43.99398" lon="3.07001">
        <ele>687.9606934</ele>
        <time>2013-08-09T06:16:39Z</time>
      </trkpt>
      <trkpt lat="43.99399" lon="3.06993">
        <ele>686.5187988</ele>
        <time>2013-08-09T06:16:43Z</time>
      </trkpt>
      <trkpt lat="43.99398" lon="3.06981">
        <ele>686.0380859</ele>
        <time>2013-08-09T06:16:50Z</time>
      </trkpt>
      <trkpt lat="43.99392" lon="3.06966">
        <ele>688.9221191</ele>
        <time>2013-08-09T06:16:59Z</time>
      </trkpt>
      <trkpt lat="43.99387" lon="3.06958">
        <ele>690.3640137</ele>
        <time>2013-08-09T06:17:05Z</time>
      </trkpt>
      <trkpt lat="43.9938" lon="3.06949">
        <ele>692.2866211</ele>
        <time>2013-08-09T06:17:12Z</time>
      </trkpt>
      <trkpt lat="43.99374" lon="3.06942">
        <ele>693.7285156</ele>
        <time>2013-08-09T06:17:18Z</time>
      </trkpt>
      <trkpt lat="43.99367" lon="3.06934">
        <ele>695.1704102</ele>
        <time>2013-08-09T06:17:25Z</time>
      </trkpt>
      <trkpt lat="43.99361" lon="3.06928">
        <ele>696.1318359</ele>
        <time>2013-08-09T06:17:31Z</time>
      </trkpt>
      <trkpt lat="43.99352" lon="3.06921">
        <ele>698.0544434</ele>
        <time>2013-08-09T06:17:39Z</time>
      </trkpt>
      <trkpt lat="43.99345" lon="3.06914">
        <ele>699.4963379</ele>
        <time>2013-08-09T06:17:46Z</time>
      </trkpt>
      <trkpt lat="43.99337" lon="3.06907">
        <ele>700.4580078</ele>
        <time>2013-08-09T06:17:53Z</time>
      </trkpt>
      <trkpt lat="43.9933" lon="3.06902">
        <ele>700.9384766</ele>
        <time>2013-08-09T06:17:59Z</time>
      </trkpt>
      <trkpt lat="43.99329" lon="3.06901">
        <ele>700.9384766</ele>
        <time>2013-08-09T06:18:00Z</time>
      </trkpt>
      <trkpt lat="43.99324" lon="3.06899">
        <ele>701.4191895</ele>
        <time>2013-08-09T06:18:05Z</time>
      </trkpt>
      <trkpt lat="43.99322" lon="3.06899">
        <ele>701.4191895</ele>
        <time>2013-08-09T06:18:07Z</time>
      </trkpt>
      <trkpt lat="43.9931" lon="3.06896">
        <ele>703.3417969</ele>
        <time>2013-08-09T06:18:17Z</time>
      </trkpt>
      <trkpt lat="43.99298" lon="3.06895">
        <ele>705.2644043</ele>
        <time>2013-08-09T06:18:27Z</time>
      </trkpt>
      <trkpt lat="43.99296" lon="3.06894">
        <ele>705.7451172</ele>
        <time>2013-08-09T06:18:29Z</time>
      </trkpt>
      <trkpt lat="43.99291" lon="3.06894">
        <ele>707.1870117</ele>
        <time>2013-08-09T06:18:34Z</time>
      </trkpt>
      <trkpt lat="43.99287" lon="3.06894">
        <ele>707.1870117</ele>
        <time>2013-08-09T06:18:37Z</time>
      </trkpt>
      <trkpt lat="43.99281" lon="3.06893">
        <ele>707.6677246</ele>
        <time>2013-08-09T06:18:43Z</time>
      </trkpt>
      <trkpt lat="43.99279" lon="3.06893">
        <ele>707.6677246</ele>
        <time>2013-08-09T06:18:45Z</time>
      </trkpt>
      <trkpt lat="43.9927" lon="3.06891">
        <ele>708.1484375</ele>
        <time>2013-08-09T06:18:53Z</time>
      </trkpt>
      <trkpt lat="43.99261" lon="3.0689">
        <ele>710.0708008</ele>
        <time>2013-08-09T06:19:02Z</time>
      </trkpt>
      <trkpt lat="43.99254" lon="3.0689">
        <ele>711.9936523</ele>
        <time>2013-08-09T06:19:10Z</time>
      </trkpt>
      <trkpt lat="43.99247" lon="3.0689">
        <ele>714.3967285</ele>
        <time>2013-08-09T06:19:17Z</time>
      </trkpt>
      <trkpt lat="43.99239" lon="3.06893">
        <ele>716.3195801</ele>
        <time>2013-08-09T06:19:25Z</time>
      </trkpt>
      <trkpt lat="43.99233" lon="3.06896">
        <ele>718.2421875</ele>
        <time>2013-08-09T06:19:31Z</time>
      </trkpt>
      <trkpt lat="43.99228" lon="3.06899">
        <ele>719.6843262</ele>
        <time>2013-08-09T06:19:38Z</time>
      </trkpt>
      <trkpt lat="43.99221" lon="3.06902">
        <ele>721.1262207</ele>
        <time>2013-08-09T06:19:45Z</time>
      </trkpt>
      <trkpt lat="43.99215" lon="3.06902">
        <ele>722.5681152</ele>
        <time>2013-08-09T06:19:51Z</time>
      </trkpt>
      <trkpt lat="43.99211" lon="3.06901">
        <ele>723.0488281</ele>
        <time>2013-08-09T06:19:57Z</time>
      </trkpt>
      <trkpt lat="43.99211" lon="3.06901">
        <ele>723.529541</ele>
        <time>2013-08-09T06:20:02Z</time>
      </trkpt>
      <trkpt lat="43.9921" lon="3.06902">
        <ele>724.0100098</ele>
        <time>2013-08-09T06:20:07Z</time>
      </trkpt>
      <trkpt lat="43.99205" lon="3.06901">
        <ele>724.9714355</ele>
        <time>2013-08-09T06:20:14Z</time>
      </trkpt>
      <trkpt lat="43.99201" lon="3.069">
        <ele>725.9326172</ele>
        <time>2013-08-09T06:20:20Z</time>
      </trkpt>
      <trkpt lat="43.99196" lon="3.06899">
        <ele>727.3747559</ele>
        <time>2013-08-09T06:20:28Z</time>
      </trkpt>
      <trkpt lat="43.99191" lon="3.06898">
        <ele>729.777832</ele>
        <time>2013-08-09T06:20:35Z</time>
      </trkpt>
      <trkpt lat="43.99186" lon="3.06898">
        <ele>731.2199707</ele>
        <time>2013-08-09T06:20:42Z</time>
      </trkpt>
      <trkpt lat="43.99181" lon="3.06898">
        <ele>732.6621094</ele>
        <time>2013-08-09T06:20:49Z</time>
      </trkpt>
      <trkpt lat="43.99175" lon="3.06899">
        <ele>735.0654297</ele>
        <time>2013-08-09T06:20:56Z</time>
      </trkpt>
      <trkpt lat="43.99169" lon="3.06898">
        <ele>736.0266113</ele>
        <time>2013-08-09T06:21:04Z</time>
      </trkpt>
      <trkpt lat="43.99165" lon="3.06898">
        <ele>736.987793</ele>
        <time>2013-08-09T06:21:09Z</time>
      </trkpt>
      <trkpt lat="43.99161" lon="3.06897">
        <ele>738.9106445</ele>
        <time>2013-08-09T06:21:15Z</time>
      </trkpt>
      <trkpt lat="43.99158" lon="3.06897">
        <ele>739.3911133</ele>
        <time>2013-08-09T06:21:22Z</time>
      </trkpt>
      <trkpt lat="43.99156" lon="3.06894">
        <ele>739.3911133</ele>
        <time>2013-08-09T06:21:28Z</time>
      </trkpt>
      <trkpt lat="43.99153" lon="3.06893">
        <ele>738.4299316</ele>
        <time>2013-08-09T06:21:31Z</time>
      </trkpt>
      <trkpt lat="43.99147" lon="3.06891">
        <ele>737.4685059</ele>
        <time>2013-08-09T06:21:37Z</time>
      </trkpt>
      <trkpt lat="43.99139" lon="3.06891">
        <ele>736.987793</ele>
        <time>2013-08-09T06:21:44Z</time>
      </trkpt>
      <trkpt lat="43.99136" lon="3.0689">
        <ele>736.5073242</ele>
        <time>2013-08-09T06:21:47Z</time>
      </trkpt>
      <trkpt lat="43.99131" lon="3.0689">
        <ele>733.1425781</ele>
        <time>2013-08-09T06:21:55Z</time>
      </trkpt>
      <trkpt lat="43.99125" lon="3.06887">
        <ele>732.6621094</ele>
        <time>2013-08-09T06:21:59Z</time>
      </trkpt>
      <trkpt lat="43.99122" lon="3.06885">
        <ele>733.623291</ele>
        <time>2013-08-09T06:22:02Z</time>
      </trkpt>
      <trkpt lat="43.99114" lon="3.0688">
        <ele>733.623291</ele>
        <time>2013-08-09T06:22:08Z</time>
      </trkpt>
      <trkpt lat="43.99108" lon="3.06874">
        <ele>734.1040039</ele>
        <time>2013-08-09T06:22:12Z</time>
      </trkpt>
      <trkpt lat="43.99106" lon="3.06874">
        <ele>735.0654297</ele>
        <time>2013-08-09T06:22:13Z</time>
      </trkpt>
      <trkpt lat="43.99098" lon="3.06869">
        <ele>737.4685059</ele>
        <time>2013-08-09T06:22:21Z</time>
      </trkpt>
      <trkpt lat="43.99094" lon="3.06867">
        <ele>738.4299316</ele>
        <time>2013-08-09T06:22:24Z</time>
      </trkpt>
      <trkpt lat="43.99086" lon="3.06861">
        <ele>742.2751465</ele>
        <time>2013-08-09T06:22:30Z</time>
      </trkpt>
      <trkpt lat="43.99081" lon="3.06858">
        <ele>741.7944336</ele>
        <time>2013-08-09T06:22:36Z</time>
      </trkpt>
      <trkpt lat="43.99074" lon="3.06852">
        <ele>740.8330078</ele>
        <time>2013-08-09T06:22:42Z</time>
      </trkpt>
      <trkpt lat="43.9907" lon="3.0685">
        <ele>741.3137207</ele>
        <time>2013-08-09T06:22:47Z</time>
      </trkpt>
      <trkpt lat="43.99066" lon="3.06845">
        <ele>743.717041</ele>
        <time>2013-08-09T06:22:53Z</time>
      </trkpt>
      <trkpt lat="43.9906" lon="3.06837">
        <ele>743.717041</ele>
        <time>2013-08-09T06:23:01Z</time>
      </trkpt>
      <trkpt lat="43.99059" lon="3.06836">
        <ele>744.1977539</ele>
        <time>2013-08-09T06:23:02Z</time>
      </trkpt>
      <trkpt lat="43.99057" lon="3.06832">
        <ele>745.1589355</ele>
        <time>2013-08-09T06:23:06Z</time>
      </trkpt>
      <trkpt lat="43.99051" lon="3.06828">
        <ele>745.1589355</ele>
        <time>2013-08-09T06:23:11Z</time>
      </trkpt>
      <trkpt lat="43.99042" lon="3.0682">
        <ele>744.1977539</ele>
        <time>2013-08-09T06:23:18Z</time>
      </trkpt>
      <trkpt lat="43.99036" lon="3.06814">
        <ele>743.717041</ele>
        <time>2013-08-09T06:23:23Z</time>
      </trkpt>
      <trkpt lat="43.99029" lon="3.06807">
        <ele>741.3137207</ele>
        <time>2013-08-09T06:23:29Z</time>
      </trkpt>
      <trkpt lat="43.99027" lon="3.06802">
        <ele>742.2751465</ele>
        <time>2013-08-09T06:23:33Z</time>
      </trkpt>
      <trkpt lat="43.99026" lon="3.06799">
        <ele>742.2751465</ele>
        <time>2013-08-09T06:23:35Z</time>
      </trkpt>
      <trkpt lat="43.99023" lon="3.06799">
        <ele>740.8330078</ele>
        <time>2013-08-09T06:23:37Z</time>
      </trkpt>
      <trkpt lat="43.99019" lon="3.0679">
        <ele>739.8718262</ele>
        <time>2013-08-09T06:23:43Z</time>
      </trkpt>
      <trkpt lat="43.99013" lon="3.06781">
        <ele>739.3911133</ele>
        <time>2013-08-09T06:23:49Z</time>
      </trkpt>
      <trkpt lat="43.99011" lon="3.06778">
        <ele>736.987793</ele>
        <time>2013-08-09T06:23:52Z</time>
      </trkpt>
      <trkpt lat="43.99005" lon="3.0677">
        <ele>735.0654297</ele>
        <time>2013-08-09T06:23:57Z</time>
      </trkpt>
      <trkpt lat="43.99004" lon="3.06765">
        <ele>734.5847168</ele>
        <time>2013-08-09T06:24:00Z</time>
      </trkpt>
      <trkpt lat="43.99003" lon="3.06758">
        <ele>735.0654297</ele>
        <time>2013-08-09T06:24:05Z</time>
      </trkpt>
      <trkpt lat="43.99001" lon="3.06752">
        <ele>736.0266113</ele>
        <time>2013-08-09T06:24:09Z</time>
      </trkpt>
      <trkpt lat="43.98997" lon="3.06745">
        <ele>736.5073242</ele>
        <time>2013-08-09T06:24:13Z</time>
      </trkpt>
      <trkpt lat="43.98996" lon="3.0674">
        <ele>737.9492188</ele>
        <time>2013-08-09T06:24:17Z</time>
      </trkpt>
      <trkpt lat="43.98992" lon="3.06733">
        <ele>736.5073242</ele>
        <time>2013-08-09T06:24:22Z</time>
      </trkpt>
      <trkpt lat="43.9899" lon="3.06727">
        <ele>735.5458984</ele>
        <time>2013-08-09T06:24:26Z</time>
      </trkpt>
      <trkpt lat="43.98985" lon="3.0672">
        <ele>733.1425781</ele>
        <time>2013-08-09T06:24:31Z</time>
      </trkpt>
      <trkpt lat="43.98982" lon="3.06712">
        <ele>729.777832</ele>
        <time>2013-08-09T06:24:35Z</time>
      </trkpt>
      <trkpt lat="43.98983" lon="3.06705">
        <ele>732.1813965</ele>
        <time>2013-08-09T06:24:40Z</time>
      </trkpt>
      <trkpt lat="43.98981" lon="3.067">
        <ele>733.1425781</ele>
        <time>2013-08-09T06:24:54Z</time>
      </trkpt>
      <trkpt lat="43.9898" lon="3.06698">
        <ele>732.6621094</ele>
        <time>2013-08-09T06:24:55Z</time>
      </trkpt>
      <trkpt lat="43.98976" lon="3.06693">
        <ele>733.1425781</ele>
        <time>2013-08-09T06:24:59Z</time>
      </trkpt>
      <trkpt lat="43.98975" lon="3.06687">
        <ele>734.5847168</ele>
        <time>2013-08-09T06:25:03Z</time>
      </trkpt>
      <trkpt lat="43.98974" lon="3.06684">
        <ele>735.5458984</ele>
        <time>2013-08-09T06:25:05Z</time>
      </trkpt>
      <trkpt lat="43.9897" lon="3.06674">
        <ele>736.5073242</ele>
        <time>2013-08-09T06:25:13Z</time>
      </trkpt>
      <trkpt lat="43.98967" lon="3.06668">
        <ele>736.987793</ele>
        <time>2013-08-09T06:25:16Z</time>
      </trkpt>
      <trkpt lat="43.98961" lon="3.06657">
        <ele>737.9492188</ele>
        <time>2013-08-09T06:25:24Z</time>
      </trkpt>
      <trkpt lat="43.98961" lon="3.06654">
        <ele>738.4299316</ele>
        <time>2013-08-09T06:25:26Z</time>
      </trkpt>
      <trkpt lat="43.98958" lon="3.06648">
        <ele>736.987793</ele>
        <time>2013-08-09T06:25:30Z</time>
      </trkpt>
      <trkpt lat="43.98954" lon="3.06639">
        <ele>736.5073242</ele>
        <time>2013-08-09T06:25:36Z</time>
      </trkpt>
      <trkpt lat="43.9895" lon="3.06634">
        <ele>736.0266113</ele>
        <time>2013-08-09T06:25:40Z</time>
      </trkpt>
      <trkpt lat="43.98946" lon="3.06627">
        <ele>737.4685059</ele>
        <time>2013-08-09T06:25:46Z</time>
      </trkpt>
      <trkpt lat="43.98945" lon="3.06624">
        <ele>736.987793</ele>
        <time>2013-08-09T06:25:51Z</time>
      </trkpt>
      <trkpt lat="43.98942" lon="3.06617">
        <ele>740.3525391</ele>
        <time>2013-08-09T06:26:01Z</time>
      </trkpt>
      <trkpt lat="43.98939" lon="3.0661">
        <ele>741.3137207</ele>
        <time>2013-08-09T06:26:06Z</time>
      </trkpt>
      <trkpt lat="43.98939" lon="3.06606">
        <ele>742.7558594</ele>
        <time>2013-08-09T06:26:09Z</time>
      </trkpt>
      <trkpt lat="43.98936" lon="3.066">
        <ele>742.7558594</ele>
        <time>2013-08-09T06:26:15Z</time>
      </trkpt>
      <trkpt lat="43.98935" lon="3.06597">
        <ele>742.7558594</ele>
        <time>2013-08-09T06:26:17Z</time>
      </trkpt>
      <trkpt lat="43.98927" lon="3.06589">
        <ele>744.1977539</ele>
        <time>2013-08-09T06:26:24Z</time>
      </trkpt>
      <trkpt lat="43.98924" lon="3.06585">
        <ele>743.2363281</ele>
        <time>2013-08-09T06:26:27Z</time>
      </trkpt>
      <trkpt lat="43.98917" lon="3.06577">
        <ele>742.7558594</ele>
        <time>2013-08-09T06:26:33Z</time>
      </trkpt>
      <trkpt lat="43.98914" lon="3.06571">
        <ele>742.7558594</ele>
        <time>2013-08-09T06:26:37Z</time>
      </trkpt>
      <trkpt lat="43.98909" lon="3.06561">
        <ele>741.3137207</ele>
        <time>2013-08-09T06:26:45Z</time>
      </trkpt>
      <trkpt lat="43.98907" lon="3.06559">
        <ele>739.8718262</ele>
        <time>2013-08-09T06:26:47Z</time>
      </trkpt>
      <trkpt lat="43.98906" lon="3.06555">
        <ele>739.3911133</ele>
        <time>2013-08-09T06:26:49Z</time>
      </trkpt>
      <trkpt lat="43.98903" lon="3.0655">
        <ele>737.9492188</ele>
        <time>2013-08-09T06:26:53Z</time>
      </trkpt>
      <trkpt lat="43.98896" lon="3.06541">
        <ele>736.5073242</ele>
        <time>2013-08-09T06:27:00Z</time>
      </trkpt>
      <trkpt lat="43.98895" lon="3.0654">
        <ele>736.5073242</ele>
        <time>2013-08-09T06:27:01Z</time>
      </trkpt>
      <trkpt lat="43.98891" lon="3.06533">
        <ele>735.5458984</ele>
        <time>2013-08-09T06:27:06Z</time>
      </trkpt>
      <trkpt lat="43.98885" lon="3.06528">
        <ele>733.1425781</ele>
        <time>2013-08-09T06:27:11Z</time>
      </trkpt>
      <trkpt lat="43.98879" lon="3.0652">
        <ele>732.6621094</ele>
        <time>2013-08-09T06:27:17Z</time>
      </trkpt>
      <trkpt lat="43.98871" lon="3.06511">
        <ele>734.1040039</ele>
        <time>2013-08-09T06:27:24Z</time>
      </trkpt>
      <trkpt lat="43.98869" lon="3.06509">
        <ele>735.0654297</ele>
        <time>2013-08-09T06:27:26Z</time>
      </trkpt>
      <trkpt lat="43.98865" lon="3.06501">
        <ele>732.6621094</ele>
        <time>2013-08-09T06:27:32Z</time>
      </trkpt>
      <trkpt lat="43.98861" lon="3.06496">
        <ele>733.1425781</ele>
        <time>2013-08-09T06:27:35Z</time>
      </trkpt>
      <trkpt lat="43.98857" lon="3.06492">
        <ele>734.5847168</ele>
        <time>2013-08-09T06:27:40Z</time>
      </trkpt>
      <trkpt lat="43.98849" lon="3.06488">
        <ele>735.5458984</ele>
        <time>2013-08-09T06:27:45Z</time>
      </trkpt>
      <trkpt lat="43.98846" lon="3.06485">
        <ele>735.5458984</ele>
        <time>2013-08-09T06:27:48Z</time>
      </trkpt>
      <trkpt lat="43.98841" lon="3.06482">
        <ele>736.5073242</ele>
        <time>2013-08-09T06:27:53Z</time>
      </trkpt>
      <trkpt lat="43.98833" lon="3.06477">
        <ele>737.9492188</ele>
        <time>2013-08-09T06:27:59Z</time>
      </trkpt>
      <trkpt lat="43.98827" lon="3.06474">
        <ele>736.987793</ele>
        <time>2013-08-09T06:28:04Z</time>
      </trkpt>
      <trkpt lat="43.98826" lon="3.06473">
        <ele>736.987793</ele>
        <time>2013-08-09T06:28:05Z</time>
      </trkpt>
      <trkpt lat="43.98818" lon="3.06465">
        <ele>736.0266113</ele>
        <time>2013-08-09T06:28:11Z</time>
      </trkpt>
      <trkpt lat="43.98817" lon="3.06464">
        <ele>735.5458984</ele>
        <time>2013-08-09T06:28:12Z</time>
      </trkpt>
      <trkpt lat="43.98808" lon="3.06456">
        <ele>734.5847168</ele>
        <time>2013-08-09T06:28:18Z</time>
      </trkpt>
      <trkpt lat="43.98804" lon="3.06456">
        <ele>733.1425781</ele>
        <time>2013-08-09T06:28:21Z</time>
      </trkpt>
      <trkpt lat="43.98794" lon="3.0645">
        <ele>732.1813965</ele>
        <time>2013-08-09T06:28:28Z</time>
      </trkpt>
      <trkpt lat="43.98791" lon="3.06449">
        <ele>732.1813965</ele>
        <time>2013-08-09T06:28:30Z</time>
      </trkpt>
      <trkpt lat="43.98782" lon="3.06446">
        <ele>731.7004395</ele>
        <time>2013-08-09T06:28:37Z</time>
      </trkpt>
      <trkpt lat="43.98778" lon="3.06446">
        <ele>731.2199707</ele>
        <time>2013-08-09T06:28:41Z</time>
      </trkpt>
      <trkpt lat="43.98772" lon="3.06446">
        <ele>730.2585449</ele>
        <time>2013-08-09T06:28:45Z</time>
      </trkpt>
      <trkpt lat="43.98763" lon="3.06446">
        <ele>728.8166504</ele>
        <time>2013-08-09T06:28:51Z</time>
      </trkpt>
      <trkpt lat="43.98755" lon="3.0645">
        <ele>730.7392578</ele>
        <time>2013-08-09T06:28:57Z</time>
      </trkpt>
      <trkpt lat="43.98751" lon="3.06453">
        <ele>730.2585449</ele>
        <time>2013-08-09T06:29:01Z</time>
      </trkpt>
      <trkpt lat="43.98745" lon="3.06454">
        <ele>732.1813965</ele>
        <time>2013-08-09T06:29:05Z</time>
      </trkpt>
      <trkpt lat="43.9874" lon="3.06456">
        <ele>730.2585449</ele>
        <time>2013-08-09T06:29:13Z</time>
      </trkpt>
      <trkpt lat="43.98732" lon="3.06451">
        <ele>724.9714355</ele>
        <time>2013-08-09T06:29:23Z</time>
      </trkpt>
      <trkpt lat="43.98729" lon="3.06447">
        <ele>721.1262207</ele>
        <time>2013-08-09T06:29:28Z</time>
      </trkpt>
      <trkpt lat="43.98726" lon="3.06443">
        <ele>717.2810059</ele>
        <time>2013-08-09T06:29:33Z</time>
      </trkpt>
      <trkpt lat="43.98724" lon="3.0644">
        <ele>718.2421875</ele>
        <time>2013-08-09T06:29:38Z</time>
      </trkpt>
      <trkpt lat="43.98727" lon="3.0643">
        <ele>722.5681152</ele>
        <time>2013-08-09T06:29:46Z</time>
      </trkpt>
      <trkpt lat="43.98728" lon="3.06427">
        <ele>722.0874023</ele>
        <time>2013-08-09T06:29:49Z</time>
      </trkpt>
      <trkpt lat="43.98728" lon="3.06424">
        <ele>721.6066895</ele>
        <time>2013-08-09T06:29:51Z</time>
      </trkpt>
      <trkpt lat="43.98725" lon="3.06416">
        <ele>721.6066895</ele>
        <time>2013-08-09T06:29:57Z</time>
      </trkpt>
      <trkpt lat="43.98729" lon="3.06411">
        <ele>725.9326172</ele>
        <time>2013-08-09T06:30:00Z</time>
      </trkpt>
      <trkpt lat="43.98732" lon="3.06407">
        <ele>725.4519043</ele>
        <time>2013-08-09T06:30:05Z</time>
      </trkpt>
      <trkpt lat="43.98736" lon="3.06404">
        <ele>726.4133301</ele>
        <time>2013-08-09T06:30:09Z</time>
      </trkpt>
      <trkpt lat="43.98737" lon="3.06403">
        <ele>726.894043</ele>
        <time>2013-08-09T06:30:10Z</time>
      </trkpt>
      <trkpt lat="43.98739" lon="3.06401">
        <ele>726.894043</ele>
        <time>2013-08-09T06:30:12Z</time>
      </trkpt>
      <trkpt lat="43.98744" lon="3.06399">
        <ele>725.9326172</ele>
        <time>2013-08-09T06:30:16Z</time>
      </trkpt>
      <trkpt lat="43.98747" lon="3.06395">
        <ele>725.4519043</ele>
        <time>2013-08-09T06:30:21Z</time>
      </trkpt>
      <trkpt lat="43.98748" lon="3.06394">
        <ele>724.9714355</ele>
        <time>2013-08-09T06:30:23Z</time>
      </trkpt>
      <trkpt lat="43.98751" lon="3.06388">
        <ele>725.9326172</ele>
        <time>2013-08-09T06:30:28Z</time>
      </trkpt>
      <trkpt lat="43.98757" lon="3.06383">
        <ele>731.2199707</ele>
        <time>2013-08-09T06:30:34Z</time>
      </trkpt>
      <trkpt lat="43.98758" lon="3.06383">
        <ele>731.2199707</ele>
        <time>2013-08-09T06:30:35Z</time>
      </trkpt>
      <trkpt lat="43.98761" lon="3.06376">
        <ele>733.1425781</ele>
        <time>2013-08-09T06:30:41Z</time>
      </trkpt>
      <trkpt lat="43.98763" lon="3.06374">
        <ele>733.623291</ele>
        <time>2013-08-09T06:30:43Z</time>
      </trkpt>
      <trkpt lat="43.98766" lon="3.0637">
        <ele>734.5847168</ele>
        <time>2013-08-09T06:30:48Z</time>
      </trkpt>
      <trkpt lat="43.98767" lon="3.06366">
        <ele>735.0654297</ele>
        <time>2013-08-09T06:30:52Z</time>
      </trkpt>
      <trkpt lat="43.98769" lon="3.06361">
        <ele>735.5458984</ele>
        <time>2013-08-09T06:30:58Z</time>
      </trkpt>
      <trkpt lat="43.98773" lon="3.06355">
        <ele>733.623291</ele>
        <time>2013-08-09T06:31:04Z</time>
      </trkpt>
      <trkpt lat="43.98776" lon="3.0635">
        <ele>731.2199707</ele>
        <time>2013-08-09T06:31:09Z</time>
      </trkpt>
      <trkpt lat="43.98777" lon="3.06344">
        <ele>731.7004395</ele>
        <time>2013-08-09T06:31:13Z</time>
      </trkpt>
      <trkpt lat="43.98777" lon="3.06343">
        <ele>731.7004395</ele>
        <time>2013-08-09T06:31:14Z</time>
      </trkpt>
      <trkpt lat="43.98777" lon="3.0634">
        <ele>732.6621094</ele>
        <time>2013-08-09T06:31:16Z</time>
      </trkpt>
      <trkpt lat="43.9878" lon="3.06335">
        <ele>733.623291</ele>
        <time>2013-08-09T06:31:20Z</time>
      </trkpt>
      <trkpt lat="43.98784" lon="3.06324">
        <ele>737.9492188</ele>
        <time>2013-08-09T06:31:28Z</time>
      </trkpt>
      <trkpt lat="43.98784" lon="3.06318">
        <ele>740.8330078</ele>
        <time>2013-08-09T06:31:33Z</time>
      </trkpt>
      <trkpt lat="43.98784" lon="3.06312">
        <ele>743.2363281</ele>
        <time>2013-08-09T06:31:38Z</time>
      </trkpt>
      <trkpt lat="43.98785" lon="3.06304">
        <ele>743.2363281</ele>
        <time>2013-08-09T06:31:44Z</time>
      </trkpt>
      <trkpt lat="43.98785" lon="3.06302">
        <ele>743.717041</ele>
        <time>2013-08-09T06:31:45Z</time>
      </trkpt>
      <trkpt lat="43.98785" lon="3.06296">
        <ele>744.6782227</ele>
        <time>2013-08-09T06:31:49Z</time>
      </trkpt>
      <trkpt lat="43.98784" lon="3.06286">
        <ele>744.6782227</ele>
        <time>2013-08-09T06:31:55Z</time>
      </trkpt>
      <trkpt lat="43.98781" lon="3.06282">
        <ele>744.1977539</ele>
        <time>2013-08-09T06:31:59Z</time>
      </trkpt>
      <trkpt lat="43.98779" lon="3.06276">
        <ele>743.717041</ele>
        <time>2013-08-09T06:32:03Z</time>
      </trkpt>
      <trkpt lat="43.98781" lon="3.06273">
        <ele>744.1977539</ele>
        <time>2013-08-09T06:32:05Z</time>
      </trkpt>
      <trkpt lat="43.98784" lon="3.06266">
        <ele>743.717041</ele>
        <time>2013-08-09T06:32:11Z</time>
      </trkpt>
      <trkpt lat="43.98786" lon="3.0626">
        <ele>743.717041</ele>
        <time>2013-08-09T06:32:16Z</time>
      </trkpt>
      <trkpt lat="43.98789" lon="3.06257">
        <ele>745.1589355</ele>
        <time>2013-08-09T06:32:21Z</time>
      </trkpt>
      <trkpt lat="43.98793" lon="3.06254">
        <ele>744.6782227</ele>
        <time>2013-08-09T06:32:25Z</time>
      </trkpt>
      <trkpt lat="43.98794" lon="3.06254">
        <ele>745.6396484</ele>
        <time>2013-08-09T06:32:26Z</time>
      </trkpt>
      <trkpt lat="43.98801" lon="3.06248">
        <ele>744.6782227</ele>
        <time>2013-08-09T06:32:31Z</time>
      </trkpt>
      <trkpt lat="43.98802" lon="3.06246">
        <ele>744.1977539</ele>
        <time>2013-08-09T06:32:33Z</time>
      </trkpt>
      <trkpt lat="43.98805" lon="3.06237">
        <ele>746.1203613</ele>
        <time>2013-08-09T06:32:40Z</time>
      </trkpt>
      <trkpt lat="43.98807" lon="3.06232">
        <ele>747.081543</ele>
        <time>2013-08-09T06:32:44Z</time>
      </trkpt>
      <trkpt lat="43.9881" lon="3.06226">
        <ele>748.0432129</ele>
        <time>2013-08-09T06:32:50Z</time>
      </trkpt>
      <trkpt lat="43.98811" lon="3.06222">
        <ele>749.9658203</ele>
        <time>2013-08-09T06:32:56Z</time>
      </trkpt>
      <trkpt lat="43.98814" lon="3.06219">
        <ele>751.8884277</ele>
        <time>2013-08-09T06:33:01Z</time>
      </trkpt>
      <trkpt lat="43.98815" lon="3.06216">
        <ele>752.8496094</ele>
        <time>2013-08-09T06:33:05Z</time>
      </trkpt>
      <trkpt lat="43.98819" lon="3.0621">
        <ele>756.2141113</ele>
        <time>2013-08-09T06:33:12Z</time>
      </trkpt>
      <trkpt lat="43.98817" lon="3.06203">
        <ele>758.6174316</ele>
        <time>2013-08-09T06:33:19Z</time>
      </trkpt>
      <trkpt lat="43.98814" lon="3.06198">
        <ele>761.020752</ele>
        <time>2013-08-09T06:33:25Z</time>
      </trkpt>
      <trkpt lat="43.98812" lon="3.06194">
        <ele>761.9821777</ele>
        <time>2013-08-09T06:33:30Z</time>
      </trkpt>
      <trkpt lat="43.98811" lon="3.0619">
        <ele>762.4626465</ele>
        <time>2013-08-09T06:33:34Z</time>
      </trkpt>
      <trkpt lat="43.98809" lon="3.06184">
        <ele>763.904541</ele>
        <time>2013-08-09T06:33:39Z</time>
      </trkpt>
      <trkpt lat="43.98809" lon="3.0618">
        <ele>764.8662109</ele>
        <time>2013-08-09T06:33:44Z</time>
      </trkpt>
      <trkpt lat="43.98808" lon="3.06177">
        <ele>767.2695313</ele>
        <time>2013-08-09T06:33:50Z</time>
      </trkpt>
      <trkpt lat="43.98806" lon="3.06172">
        <ele>769.1921387</ele>
        <time>2013-08-09T06:33:57Z</time>
      </trkpt>
      <trkpt lat="43.98807" lon="3.06173">
        <ele>770.1533203</ele>
        <time>2013-08-09T06:34:07Z</time>
      </trkpt>
      <trkpt lat="43.98807" lon="3.0617">
        <ele>770.6340332</ele>
        <time>2013-08-09T06:34:18Z</time>
      </trkpt>
      <trkpt lat="43.9881" lon="3.06168">
        <ele>771.1147461</ele>
        <time>2013-08-09T06:34:23Z</time>
      </trkpt>
      <trkpt lat="43.98813" lon="3.06164">
        <ele>769.1921387</ele>
        <time>2013-08-09T06:34:29Z</time>
      </trkpt>
      <trkpt lat="43.98816" lon="3.06158">
        <ele>770.1533203</ele>
        <time>2013-08-09T06:34:36Z</time>
      </trkpt>
      <trkpt lat="43.98818" lon="3.06153">
        <ele>771.5952148</ele>
        <time>2013-08-09T06:34:43Z</time>
      </trkpt>
      <trkpt lat="43.98819" lon="3.06151">
        <ele>773.5180664</ele>
        <time>2013-08-09T06:34:47Z</time>
      </trkpt>
      <trkpt lat="43.98818" lon="3.0615">
        <ele>773.5180664</ele>
        <time>2013-08-09T06:34:48Z</time>
      </trkpt>
      <trkpt lat="43.98814" lon="3.06145">
        <ele>773.9985352</ele>
        <time>2013-08-09T06:34:54Z</time>
      </trkpt>
      <trkpt lat="43.98806" lon="3.06138">
        <ele>773.0373535</ele>
        <time>2013-08-09T06:35:01Z</time>
      </trkpt>
      <trkpt lat="43.98803" lon="3.06132">
        <ele>773.5180664</ele>
        <time>2013-08-09T06:35:05Z</time>
      </trkpt>
      <trkpt lat="43.98802" lon="3.06129">
        <ele>773.9985352</ele>
        <time>2013-08-09T06:35:11Z</time>
      </trkpt>
      <trkpt lat="43.98799" lon="3.06125">
        <ele>774.479248</ele>
        <time>2013-08-09T06:35:18Z</time>
      </trkpt>
      <trkpt lat="43.98794" lon="3.06119">
        <ele>774.9599609</ele>
        <time>2013-08-09T06:35:25Z</time>
      </trkpt>
      <trkpt lat="43.9879" lon="3.06118">
        <ele>775.4404297</ele>
        <time>2013-08-09T06:35:30Z</time>
      </trkpt>
      <trkpt lat="43.98784" lon="3.06116">
        <ele>777.84375</ele>
        <time>2013-08-09T06:35:37Z</time>
      </trkpt>
      <trkpt lat="43.9878" lon="3.06113">
        <ele>779.7663574</ele>
        <time>2013-08-09T06:35:43Z</time>
      </trkpt>
      <trkpt lat="43.98779" lon="3.06108">
        <ele>778.3244629</ele>
        <time>2013-08-09T06:35:49Z</time>
      </trkpt>
      <trkpt lat="43.98776" lon="3.06104">
        <ele>776.8825684</ele>
        <time>2013-08-09T06:35:55Z</time>
      </trkpt>
      <trkpt lat="43.98776" lon="3.06103">
        <ele>776.8825684</ele>
        <time>2013-08-09T06:36:02Z</time>
      </trkpt>
      <trkpt lat="43.98772" lon="3.06102">
        <ele>776.8825684</ele>
        <time>2013-08-09T06:36:08Z</time>
      </trkpt>
      <trkpt lat="43.98767" lon="3.06099">
        <ele>778.3244629</ele>
        <time>2013-08-09T06:36:15Z</time>
      </trkpt>
      <trkpt lat="43.98765" lon="3.06098">
        <ele>781.2087402</ele>
        <time>2013-08-09T06:36:20Z</time>
      </trkpt>
      <trkpt lat="43.98762" lon="3.06094">
        <ele>782.6506348</ele>
        <time>2013-08-09T06:36:24Z</time>
      </trkpt>
      <trkpt lat="43.98757" lon="3.06087">
        <ele>782.6506348</ele>
        <time>2013-08-09T06:36:30Z</time>
      </trkpt>
      <trkpt lat="43.98752" lon="3.06079">
        <ele>783.1311035</ele>
        <time>2013-08-09T06:36:36Z</time>
      </trkpt>
      <trkpt lat="43.9875" lon="3.06076">
        <ele>782.6506348</ele>
        <time>2013-08-09T06:36:38Z</time>
      </trkpt>
      <trkpt lat="43.98749" lon="3.06071">
        <ele>782.6506348</ele>
        <time>2013-08-09T06:36:41Z</time>
      </trkpt>
      <trkpt lat="43.98749" lon="3.06067">
        <ele>783.1311035</ele>
        <time>2013-08-09T06:36:43Z</time>
      </trkpt>
      <trkpt lat="43.98749" lon="3.06061">
        <ele>783.6118164</ele>
        <time>2013-08-09T06:36:47Z</time>
      </trkpt>
      <trkpt lat="43.98749" lon="3.06056">
        <ele>783.1311035</ele>
        <time>2013-08-09T06:36:51Z</time>
      </trkpt>
      <trkpt lat="43.98746" lon="3.06044">
        <ele>782.6506348</ele>
        <time>2013-08-09T06:36:59Z</time>
      </trkpt>
      <trkpt lat="43.98743" lon="3.06036">
        <ele>779.7663574</ele>
        <time>2013-08-09T06:37:04Z</time>
      </trkpt>
      <trkpt lat="43.9874" lon="3.06031">
        <ele>780.2473145</ele>
        <time>2013-08-09T06:37:09Z</time>
      </trkpt>
      <trkpt lat="43.98735" lon="3.06025">
        <ele>784.5732422</ele>
        <time>2013-08-09T06:37:21Z</time>
      </trkpt>
      <trkpt lat="43.98734" lon="3.06024">
        <ele>789.8603516</ele>
        <time>2013-08-09T06:37:26Z</time>
      </trkpt>
      <trkpt lat="43.98728" lon="3.06011">
        <ele>793.7055664</ele>
        <time>2013-08-09T06:37:43Z</time>
      </trkpt>
      <trkpt lat="43.98738" lon="3.06015">
        <ele>797.5510254</ele>
        <time>2013-08-09T06:37:58Z</time>
      </trkpt>
      <trkpt lat="43.98736" lon="3.06013">
        <ele>797.0703125</ele>
        <time>2013-08-09T06:37:59Z</time>
      </trkpt>
      <trkpt lat="43.9873" lon="3.06015">
        <ele>800.9155273</ele>
        <time>2013-08-09T06:38:04Z</time>
      </trkpt>
      <trkpt lat="43.98727" lon="3.06012">
        <ele>801.8769531</ele>
        <time>2013-08-09T06:38:09Z</time>
      </trkpt>
      <trkpt lat="43.98723" lon="3.06003">
        <ele>801.8769531</ele>
        <time>2013-08-09T06:38:15Z</time>
      </trkpt>
      <trkpt lat="43.98729" lon="3.06003">
        <ele>807.6447754</ele>
        <time>2013-08-09T06:38:26Z</time>
      </trkpt>
      <trkpt lat="43.9873" lon="3.06003">
        <ele>808.1254883</ele>
        <time>2013-08-09T06:38:27Z</time>
      </trkpt>
      <trkpt lat="43.9873" lon="3.06003">
        <ele>811.4899902</ele>
        <time>2013-08-09T06:38:36Z</time>
      </trkpt>
      <trkpt lat="43.98729" lon="3.06">
        <ele>807.1640625</ele>
        <time>2013-08-09T06:38:41Z</time>
      </trkpt>
      <trkpt lat="43.98724" lon="3.05996">
        <ele>801.8769531</ele>
        <time>2013-08-09T06:38:45Z</time>
      </trkpt>
      <trkpt lat="43.98722" lon="3.05993">
        <ele>800.9155273</ele>
        <time>2013-08-09T06:38:48Z</time>
      </trkpt>
      <trkpt lat="43.98715" lon="3.05987">
        <ele>798.512207</ele>
        <time>2013-08-09T06:38:54Z</time>
      </trkpt>
      <trkpt lat="43.98711" lon="3.05981">
        <ele>797.5510254</ele>
        <time>2013-08-09T06:39:00Z</time>
      </trkpt>
      <trkpt lat="43.98709" lon="3.05976">
        <ele>797.5510254</ele>
        <time>2013-08-09T06:39:04Z</time>
      </trkpt>
      <trkpt lat="43.98707" lon="3.0597">
        <ele>798.0317383</ele>
        <time>2013-08-09T06:39:10Z</time>
      </trkpt>
      <trkpt lat="43.98704" lon="3.05961">
        <ele>799.4736328</ele>
        <time>2013-08-09T06:39:16Z</time>
      </trkpt>
      <trkpt lat="43.98701" lon="3.05959">
        <ele>800.4350586</ele>
        <time>2013-08-09T06:39:20Z</time>
      </trkpt>
      <trkpt lat="43.98697" lon="3.05958">
        <ele>801.3962402</ele>
        <time>2013-08-09T06:39:24Z</time>
      </trkpt>
      <trkpt lat="43.98693" lon="3.05954">
        <ele>802.3574219</ele>
        <time>2013-08-09T06:39:31Z</time>
      </trkpt>
      <trkpt lat="43.98691" lon="3.0595">
        <ele>803.3188477</ele>
        <time>2013-08-09T06:39:36Z</time>
      </trkpt>
      <trkpt lat="43.9869" lon="3.05945">
        <ele>805.2414551</ele>
        <time>2013-08-09T06:39:41Z</time>
      </trkpt>
      <trkpt lat="43.98686" lon="3.05943">
        <ele>805.722168</ele>
        <time>2013-08-09T06:39:45Z</time>
      </trkpt>
      <trkpt lat="43.98681" lon="3.05941">
        <ele>806.6833496</ele>
        <time>2013-08-09T06:39:50Z</time>
      </trkpt>
      <trkpt lat="43.98678" lon="3.0594">
        <ele>807.1640625</ele>
        <time>2013-08-09T06:39:53Z</time>
      </trkpt>
      <trkpt lat="43.98674" lon="3.05939">
        <ele>808.605957</ele>
        <time>2013-08-09T06:40:01Z</time>
      </trkpt>
      <trkpt lat="43.98672" lon="3.0594">
        <ele>810.0478516</ele>
        <time>2013-08-09T06:40:07Z</time>
      </trkpt>
      <trkpt lat="43.98668" lon="3.05941">
        <ele>811.0092773</ele>
        <time>2013-08-09T06:40:14Z</time>
      </trkpt>
      <trkpt lat="43.98665" lon="3.05941">
        <ele>811.9707031</ele>
        <time>2013-08-09T06:40:18Z</time>
      </trkpt>
      <trkpt lat="43.98661" lon="3.05939">
        <ele>813.8933105</ele>
        <time>2013-08-09T06:40:24Z</time>
      </trkpt>
      <trkpt lat="43.9866" lon="3.05943">
        <ele>814.8547363</ele>
        <time>2013-08-09T06:40:28Z</time>
      </trkpt>
      <trkpt lat="43.98657" lon="3.05943">
        <ele>816.2966309</ele>
        <time>2013-08-09T06:40:33Z</time>
      </trkpt>
      <trkpt lat="43.98656" lon="3.05947">
        <ele>818.2192383</ele>
        <time>2013-08-09T06:40:39Z</time>
      </trkpt>
      <trkpt lat="43.98653" lon="3.0595">
        <ele>820.6225586</ele>
        <time>2013-08-09T06:40:45Z</time>
      </trkpt>
      <trkpt lat="43.98651" lon="3.05948">
        <ele>823.0258789</ele>
        <time>2013-08-09T06:40:51Z</time>
      </trkpt>
      <trkpt lat="43.98647" lon="3.05946">
        <ele>825.4289551</ele>
        <time>2013-08-09T06:40:57Z</time>
      </trkpt>
      <trkpt lat="43.98644" lon="3.05945">
        <ele>827.8322754</ele>
        <time>2013-08-09T06:41:04Z</time>
      </trkpt>
      <trkpt lat="43.98641" lon="3.05946">
        <ele>828.3132324</ele>
        <time>2013-08-09T06:41:09Z</time>
      </trkpt>
      <trkpt lat="43.98639" lon="3.05949">
        <ele>831.1972656</ele>
        <time>2013-08-09T06:41:15Z</time>
      </trkpt>
      <trkpt lat="43.98637" lon="3.05949">
        <ele>832.1584473</ele>
        <time>2013-08-09T06:41:20Z</time>
      </trkpt>
      <trkpt lat="43.98634" lon="3.05949">
        <ele>833.6003418</ele>
        <time>2013-08-09T06:41:25Z</time>
      </trkpt>
      <trkpt lat="43.98632" lon="3.05945">
        <ele>834.5617676</ele>
        <time>2013-08-09T06:41:30Z</time>
      </trkpt>
      <trkpt lat="43.98629" lon="3.05942">
        <ele>836.9648438</ele>
        <time>2013-08-09T06:41:36Z</time>
      </trkpt>
      <trkpt lat="43.98626" lon="3.05943">
        <ele>839.3681641</ele>
        <time>2013-08-09T06:41:40Z</time>
      </trkpt>
      <trkpt lat="43.98624" lon="3.0594">
        <ele>840.8100586</ele>
        <time>2013-08-09T06:41:45Z</time>
      </trkpt>
      <trkpt lat="43.98624" lon="3.05936">
        <ele>840.8100586</ele>
        <time>2013-08-09T06:41:50Z</time>
      </trkpt>
      <trkpt lat="43.98621" lon="3.05938">
        <ele>841.2907715</ele>
        <time>2013-08-09T06:41:55Z</time>
      </trkpt>
      <trkpt lat="43.98618" lon="3.05942">
        <ele>842.2521973</ele>
        <time>2013-08-09T06:42:00Z</time>
      </trkpt>
      <trkpt lat="43.98617" lon="3.05948">
        <ele>843.2133789</ele>
        <time>2013-08-09T06:42:05Z</time>
      </trkpt>
      <trkpt lat="43.98615" lon="3.05945">
        <ele>843.6940918</ele>
        <time>2013-08-09T06:42:09Z</time>
      </trkpt>
      <trkpt lat="43.98612" lon="3.05946">
        <ele>844.6555176</ele>
        <time>2013-08-09T06:42:15Z</time>
      </trkpt>
      <trkpt lat="43.98608" lon="3.05949">
        <ele>846.0976563</ele>
        <time>2013-08-09T06:42:21Z</time>
      </trkpt>
      <trkpt lat="43.98605" lon="3.05941">
        <ele>847.0588379</ele>
        <time>2013-08-09T06:42:28Z</time>
      </trkpt>
      <trkpt lat="43.98603" lon="3.05935">
        <ele>847.5395508</ele>
        <time>2013-08-09T06:42:35Z</time>
      </trkpt>
      <trkpt lat="43.98603" lon="3.05933">
        <ele>848.0202637</ele>
        <time>2013-08-09T06:42:38Z</time>
      </trkpt>
      <trkpt lat="43.98602" lon="3.05934">
        <ele>848.9814453</ele>
        <time>2013-08-09T06:42:46Z</time>
      </trkpt>
      <trkpt lat="43.986" lon="3.05944">
        <ele>850.423584</ele>
        <time>2013-08-09T06:42:53Z</time>
      </trkpt>
      <trkpt lat="43.98599" lon="3.05947">
        <ele>850.9040527</ele>
        <time>2013-08-09T06:42:55Z</time>
      </trkpt>
      <trkpt lat="43.98596" lon="3.05962">
        <ele>852.8266602</ele>
        <time>2013-08-09T06:43:04Z</time>
      </trkpt>
      <trkpt lat="43.98594" lon="3.05971">
        <ele>855.2299805</ele>
        <time>2013-08-09T06:43:11Z</time>
      </trkpt>
      <trkpt lat="43.98591" lon="3.05976">
        <ele>856.1911621</ele>
        <time>2013-08-09T06:43:18Z</time>
      </trkpt>
      <trkpt lat="43.98585" lon="3.05972">
        <ele>857.6333008</ele>
        <time>2013-08-09T06:43:25Z</time>
      </trkpt>
      <trkpt lat="43.9858" lon="3.05969">
        <ele>859.0751953</ele>
        <time>2013-08-09T06:43:32Z</time>
      </trkpt>
      <trkpt lat="43.98574" lon="3.05966">
        <ele>861.4787598</ele>
        <time>2013-08-09T06:43:38Z</time>
      </trkpt>
      <trkpt lat="43.98565" lon="3.05967">
        <ele>865.3239746</ele>
        <time>2013-08-09T06:43:47Z</time>
      </trkpt>
      <trkpt lat="43.9856" lon="3.05966">
        <ele>866.2851563</ele>
        <time>2013-08-09T06:43:54Z</time>
      </trkpt>
      <trkpt lat="43.9856" lon="3.05966">
        <ele>864.8432617</ele>
        <time>2013-08-09T06:44:01Z</time>
      </trkpt>
      <trkpt lat="43.9856" lon="3.05965">
        <ele>864.8432617</ele>
        <time>2013-08-09T06:44:07Z</time>
      </trkpt>
      <trkpt lat="43.98559" lon="3.05966">
        <ele>864.8432617</ele>
        <time>2013-08-09T06:44:14Z</time>
      </trkpt>
      <trkpt lat="43.98559" lon="3.05966">
        <ele>863.8818359</ele>
        <time>2013-08-09T06:44:24Z</time>
      </trkpt>
      <trkpt lat="43.98558" lon="3.05969">
        <ele>862.9206543</ele>
        <time>2013-08-09T06:44:32Z</time>
      </trkpt>
      <trkpt lat="43.98558" lon="3.05979">
        <ele>861.4787598</ele>
        <time>2013-08-09T06:44:38Z</time>
      </trkpt>
      <trkpt lat="43.98556" lon="3.0599">
        <ele>861.9594727</ele>
        <time>2013-08-09T06:44:45Z</time>
      </trkpt>
      <trkpt lat="43.98552" lon="3.05999">
        <ele>862.9206543</ele>
        <time>2013-08-09T06:44:51Z</time>
      </trkpt>
      <trkpt lat="43.98546" lon="3.0601">
        <ele>863.8818359</ele>
        <time>2013-08-09T06:44:59Z</time>
      </trkpt>
      <trkpt lat="43.98543" lon="3.06022">
        <ele>863.4013672</ele>
        <time>2013-08-09T06:45:06Z</time>
      </trkpt>
      <trkpt lat="43.98541" lon="3.06035">
        <ele>863.8818359</ele>
        <time>2013-08-09T06:45:13Z</time>
      </trkpt>
      <trkpt lat="43.98536" lon="3.06049">
        <ele>863.8818359</ele>
        <time>2013-08-09T06:45:22Z</time>
      </trkpt>
      <trkpt lat="43.9853" lon="3.0606">
        <ele>864.8432617</ele>
        <time>2013-08-09T06:45:31Z</time>
      </trkpt>
      <trkpt lat="43.98527" lon="3.06065">
        <ele>864.8432617</ele>
        <time>2013-08-09T06:45:35Z</time>
      </trkpt>
      <trkpt lat="43.98523" lon="3.06074">
        <ele>864.8432617</ele>
        <time>2013-08-09T06:45:42Z</time>
      </trkpt>
      <trkpt lat="43.98518" lon="3.06081">
        <ele>864.3625488</ele>
        <time>2013-08-09T06:45:49Z</time>
      </trkpt>
      <trkpt lat="43.98516" lon="3.06084">
        <ele>863.8818359</ele>
        <time>2013-08-09T06:45:52Z</time>
      </trkpt>
      <trkpt lat="43.98514" lon="3.06094">
        <ele>861.9594727</ele>
        <time>2013-08-09T06:45:59Z</time>
      </trkpt>
      <trkpt lat="43.98514" lon="3.06096">
        <ele>861.9594727</ele>
        <time>2013-08-09T06:46:00Z</time>
      </trkpt>
      <trkpt lat="43.98513" lon="3.06105">
        <ele>860.517334</ele>
        <time>2013-08-09T06:46:08Z</time>
      </trkpt>
      <trkpt lat="43.98514" lon="3.06109">
        <ele>859.5559082</ele>
        <time>2013-08-09T06:46:12Z</time>
      </trkpt>
      <trkpt lat="43.98514" lon="3.06115">
        <ele>858.5944824</ele>
        <time>2013-08-09T06:46:17Z</time>
      </trkpt>
      <trkpt lat="43.98514" lon="3.0612">
        <ele>857.6333008</ele>
        <time>2013-08-09T06:46:21Z</time>
      </trkpt>
      <trkpt lat="43.98515" lon="3.06128">
        <ele>856.671875</ele>
        <time>2013-08-09T06:46:26Z</time>
      </trkpt>
      <trkpt lat="43.98514" lon="3.0614">
        <ele>856.671875</ele>
        <time>2013-08-09T06:46:34Z</time>
      </trkpt>
      <trkpt lat="43.98514" lon="3.06141">
        <ele>857.1525879</ele>
        <time>2013-08-09T06:46:35Z</time>
      </trkpt>
      <trkpt lat="43.98512" lon="3.06155">
        <ele>856.671875</ele>
        <time>2013-08-09T06:46:42Z</time>
      </trkpt>
      <trkpt lat="43.9851" lon="3.06169">
        <ele>856.671875</ele>
        <time>2013-08-09T06:46:50Z</time>
      </trkpt>
      <trkpt lat="43.98508" lon="3.06182">
        <ele>857.1525879</ele>
        <time>2013-08-09T06:46:57Z</time>
      </trkpt>
      <trkpt lat="43.98507" lon="3.06186">
        <ele>857.1525879</ele>
        <time>2013-08-09T06:47:00Z</time>
      </trkpt>
      <trkpt lat="43.98504" lon="3.062">
        <ele>857.1525879</ele>
        <time>2013-08-09T06:47:08Z</time>
      </trkpt>
      <trkpt lat="43.985" lon="3.06212">
        <ele>857.1525879</ele>
        <time>2013-08-09T06:47:16Z</time>
      </trkpt>
      <trkpt lat="43.98498" lon="3.06223">
        <ele>857.6333008</ele>
        <time>2013-08-09T06:47:23Z</time>
      </trkpt>
      <trkpt lat="43.98496" lon="3.06229">
        <ele>857.6333008</ele>
        <time>2013-08-09T06:47:27Z</time>
      </trkpt>
      <trkpt lat="43.98492" lon="3.06244">
        <ele>857.6333008</ele>
        <time>2013-08-09T06:47:36Z</time>
      </trkpt>
      <trkpt lat="43.98493" lon="3.06257">
        <ele>857.1525879</ele>
        <time>2013-08-09T06:47:43Z</time>
      </trkpt>
      <trkpt lat="43.98495" lon="3.0627">
        <ele>856.671875</ele>
        <time>2013-08-09T06:47:51Z</time>
      </trkpt>
      <trkpt lat="43.98495" lon="3.06271">
        <ele>856.671875</ele>
        <time>2013-08-09T06:47:52Z</time>
      </trkpt>
      <trkpt lat="43.98497" lon="3.06283">
        <ele>856.1911621</ele>
        <time>2013-08-09T06:48:00Z</time>
      </trkpt>
      <trkpt lat="43.98498" lon="3.06293">
        <ele>856.671875</ele>
        <time>2013-08-09T06:48:06Z</time>
      </trkpt>
      <trkpt lat="43.98496" lon="3.06307">
        <ele>856.671875</ele>
        <time>2013-08-09T06:48:14Z</time>
      </trkpt>
      <trkpt lat="43.98489" lon="3.0632">
        <ele>856.1911621</ele>
        <time>2013-08-09T06:48:23Z</time>
      </trkpt>
      <trkpt lat="43.98484" lon="3.0633">
        <ele>856.1911621</ele>
        <time>2013-08-09T06:48:30Z</time>
      </trkpt>
      <trkpt lat="43.98481" lon="3.06334">
        <ele>855.7106934</ele>
        <time>2013-08-09T06:48:33Z</time>
      </trkpt>
      <trkpt lat="43.98474" lon="3.06346">
        <ele>855.2299805</ele>
        <time>2013-08-09T06:48:42Z</time>
      </trkpt>
      <trkpt lat="43.98469" lon="3.06354">
        <ele>855.2299805</ele>
        <time>2013-08-09T06:48:48Z</time>
      </trkpt>
      <trkpt lat="43.98461" lon="3.06368">
        <ele>854.2687988</ele>
        <time>2013-08-09T06:48:57Z</time>
      </trkpt>
      <trkpt lat="43.98454" lon="3.06382">
        <ele>853.7880859</ele>
        <time>2013-08-09T06:49:06Z</time>
      </trkpt>
      <trkpt lat="43.98449" lon="3.06394">
        <ele>853.7880859</ele>
        <time>2013-08-09T06:49:13Z</time>
      </trkpt>
      <trkpt lat="43.98444" lon="3.06407">
        <ele>853.307373</ele>
        <time>2013-08-09T06:49:21Z</time>
      </trkpt>
      <trkpt lat="43.98441" lon="3.06422">
        <ele>851.3847656</ele>
        <time>2013-08-09T06:49:30Z</time>
      </trkpt>
      <trkpt lat="43.98439" lon="3.06432">
        <ele>850.9040527</ele>
        <time>2013-08-09T06:49:36Z</time>
      </trkpt>
      <trkpt lat="43.98436" lon="3.06442">
        <ele>849.4621582</ele>
        <time>2013-08-09T06:49:42Z</time>
      </trkpt>
      <trkpt lat="43.98429" lon="3.06455">
        <ele>848.0202637</ele>
        <time>2013-08-09T06:49:50Z</time>
      </trkpt>
      <trkpt lat="43.98425" lon="3.06466">
        <ele>846.5783691</ele>
        <time>2013-08-09T06:49:57Z</time>
      </trkpt>
      <trkpt lat="43.98421" lon="3.06483">
        <ele>843.2133789</ele>
        <time>2013-08-09T06:50:07Z</time>
      </trkpt>
      <trkpt lat="43.98419" lon="3.06488">
        <ele>842.2521973</ele>
        <time>2013-08-09T06:50:10Z</time>
      </trkpt>
      <trkpt lat="43.98414" lon="3.06499">
        <ele>840.8100586</ele>
        <time>2013-08-09T06:50:17Z</time>
      </trkpt>
      <trkpt lat="43.98404" lon="3.06505">
        <ele>839.3681641</ele>
        <time>2013-08-09T06:50:25Z</time>
      </trkpt>
      <trkpt lat="43.98394" lon="3.06507">
        <ele>837.9262695</ele>
        <time>2013-08-09T06:50:33Z</time>
      </trkpt>
      <trkpt lat="43.98382" lon="3.0651">
        <ele>835.0424805</ele>
        <time>2013-08-09T06:50:43Z</time>
      </trkpt>
      <trkpt lat="43.98374" lon="3.06511">
        <ele>833.1196289</ele>
        <time>2013-08-09T06:50:50Z</time>
      </trkpt>
      <trkpt lat="43.98365" lon="3.06512">
        <ele>831.6777344</ele>
        <time>2013-08-09T06:50:58Z</time>
      </trkpt>
      <trkpt lat="43.98356" lon="3.06514">
        <ele>830.7165527</ele>
        <time>2013-08-09T06:51:05Z</time>
      </trkpt>
      <trkpt lat="43.98352" lon="3.06514">
        <ele>830.7165527</ele>
        <time>2013-08-09T06:51:09Z</time>
      </trkpt>
      <trkpt lat="43.9834" lon="3.06514">
        <ele>829.2744141</ele>
        <time>2013-08-09T06:51:19Z</time>
      </trkpt>
      <trkpt lat="43.98334" lon="3.0651">
        <ele>827.8322754</ele>
        <time>2013-08-09T06:51:25Z</time>
      </trkpt>
      <trkpt lat="43.98333" lon="3.06509">
        <ele>827.8322754</ele>
        <time>2013-08-09T06:51:26Z</time>
      </trkpt>
      <trkpt lat="43.98326" lon="3.06504">
        <ele>825.4289551</ele>
        <time>2013-08-09T06:51:34Z</time>
      </trkpt>
      <trkpt lat="43.98322" lon="3.06497">
        <ele>823.5065918</ele>
        <time>2013-08-09T06:51:40Z</time>
      </trkpt>
      <trkpt lat="43.98317" lon="3.06483">
        <ele>820.1418457</ele>
        <time>2013-08-09T06:51:47Z</time>
      </trkpt>
      <trkpt lat="43.98316" lon="3.06474">
        <ele>820.1418457</ele>
        <time>2013-08-09T06:51:53Z</time>
      </trkpt>
      <trkpt lat="43.98316" lon="3.06473">
        <ele>820.1418457</ele>
        <time>2013-08-09T06:51:54Z</time>
      </trkpt>
      <trkpt lat="43.98308" lon="3.06461">
        <ele>820.1418457</ele>
        <time>2013-08-09T06:52:03Z</time>
      </trkpt>
      <trkpt lat="43.98298" lon="3.06454">
        <ele>819.661377</ele>
        <time>2013-08-09T06:52:11Z</time>
      </trkpt>
      <trkpt lat="43.98288" lon="3.06448">
        <ele>820.1418457</ele>
        <time>2013-08-09T06:52:19Z</time>
      </trkpt>
      <trkpt lat="43.98279" lon="3.06445">
        <ele>820.1418457</ele>
        <time>2013-08-09T06:52:27Z</time>
      </trkpt>
      <trkpt lat="43.98271" lon="3.06449">
        <ele>818.2192383</ele>
        <time>2013-08-09T06:52:34Z</time>
      </trkpt>
      <trkpt lat="43.98261" lon="3.06454">
        <ele>816.2966309</ele>
        <time>2013-08-09T06:52:42Z</time>
      </trkpt>
      <trkpt lat="43.98258" lon="3.06453">
        <ele>815.8161621</ele>
        <time>2013-08-09T06:52:44Z</time>
      </trkpt>
      <trkpt lat="43.98254" lon="3.06453">
        <ele>815.3354492</ele>
        <time>2013-08-09T06:52:48Z</time>
      </trkpt>
      <trkpt lat="43.98243" lon="3.06451">
        <ele>814.3740234</ele>
        <time>2013-08-09T06:52:57Z</time>
      </trkpt>
      <trkpt lat="43.98234" lon="3.06446">
        <ele>813.4128418</ele>
        <time>2013-08-09T06:53:05Z</time>
      </trkpt>
      <trkpt lat="43.9823" lon="3.06445">
        <ele>812.9321289</ele>
        <time>2013-08-09T06:53:09Z</time>
      </trkpt>
      <trkpt lat="43.98227" lon="3.06446">
        <ele>812.451416</ele>
        <time>2013-08-09T06:53:12Z</time>
      </trkpt>
      <trkpt lat="43.98226" lon="3.06458">
        <ele>812.451416</ele>
        <time>2013-08-09T06:53:20Z</time>
      </trkpt>
      <trkpt lat="43.98226" lon="3.0647">
        <ele>811.9707031</ele>
        <time>2013-08-09T06:53:27Z</time>
      </trkpt>
      <trkpt lat="43.98224" lon="3.06481">
        <ele>811.4899902</ele>
        <time>2013-08-09T06:53:33Z</time>
      </trkpt>
      <trkpt lat="43.98223" lon="3.06492">
        <ele>811.4899902</ele>
        <time>2013-08-09T06:53:39Z</time>
      </trkpt>
      <trkpt lat="43.9822" lon="3.06505">
        <ele>810.5285645</ele>
        <time>2013-08-09T06:53:46Z</time>
      </trkpt>
      <trkpt lat="43.98215" lon="3.06511">
        <ele>809.5673828</ele>
        <time>2013-08-09T06:53:51Z</time>
      </trkpt>
      <trkpt lat="43.98209" lon="3.06518">
        <ele>808.1254883</ele>
        <time>2013-08-09T06:53:57Z</time>
      </trkpt>
      <trkpt lat="43.98201" lon="3.06528">
        <ele>806.6833496</ele>
        <time>2013-08-09T06:54:05Z</time>
      </trkpt>
      <trkpt lat="43.98193" lon="3.0654">
        <ele>804.7607422</ele>
        <time>2013-08-09T06:54:13Z</time>
      </trkpt>
      <trkpt lat="43.98188" lon="3.06551">
        <ele>802.8381348</ele>
        <time>2013-08-09T06:54:20Z</time>
      </trkpt>
      <trkpt lat="43.9818" lon="3.06568">
        <ele>801.3962402</ele>
        <time>2013-08-09T06:54:30Z</time>
      </trkpt>
      <trkpt lat="43.98174" lon="3.06582">
        <ele>800.4350586</ele>
        <time>2013-08-09T06:54:38Z</time>
      </trkpt>
      <trkpt lat="43.9817" lon="3.06592">
        <ele>799.9543457</ele>
        <time>2013-08-09T06:54:44Z</time>
      </trkpt>
      <trkpt lat="43.98166" lon="3.06607">
        <ele>799.4736328</ele>
        <time>2013-08-09T06:54:52Z</time>
      </trkpt>
      <trkpt lat="43.9816" lon="3.0662">
        <ele>799.4736328</ele>
        <time>2013-08-09T06:55:00Z</time>
      </trkpt>
      <trkpt lat="43.98151" lon="3.0663">
        <ele>799.4736328</ele>
        <time>2013-08-09T06:55:08Z</time>
      </trkpt>
      <trkpt lat="43.98144" lon="3.06637">
        <ele>799.9543457</ele>
        <time>2013-08-09T06:55:15Z</time>
      </trkpt>
      <trkpt lat="43.98139" lon="3.06641">
        <ele>800.4350586</ele>
        <time>2013-08-09T06:55:20Z</time>
      </trkpt>
      <trkpt lat="43.98136" lon="3.06641">
        <ele>799.9543457</ele>
        <time>2013-08-09T06:55:26Z</time>
      </trkpt>
      <trkpt lat="43.98129" lon="3.06641">
        <ele>799.9543457</ele>
        <time>2013-08-09T06:55:32Z</time>
      </trkpt>
      <trkpt lat="43.9812" lon="3.06641">
        <ele>799.9543457</ele>
        <time>2013-08-09T06:55:39Z</time>
      </trkpt>
      <trkpt lat="43.98105" lon="3.06638">
        <ele>800.9155273</ele>
        <time>2013-08-09T06:55:49Z</time>
      </trkpt>
      <trkpt lat="43.98095" lon="3.06631">
        <ele>800.9155273</ele>
        <time>2013-08-09T06:55:57Z</time>
      </trkpt>
      <trkpt lat="43.98086" lon="3.06624">
        <ele>799.9543457</ele>
        <time>2013-08-09T06:56:04Z</time>
      </trkpt>
      <trkpt lat="43.98075" lon="3.06617">
        <ele>799.9543457</ele>
        <time>2013-08-09T06:56:12Z</time>
      </trkpt>
      <trkpt lat="43.98068" lon="3.06612">
        <ele>799.4736328</ele>
        <time>2013-08-09T06:56:18Z</time>
      </trkpt>
      <trkpt lat="43.98062" lon="3.06608">
        <ele>799.9543457</ele>
        <time>2013-08-09T06:56:22Z</time>
      </trkpt>
      <trkpt lat="43.98052" lon="3.06601">
        <ele>799.9543457</ele>
        <time>2013-08-09T06:56:30Z</time>
      </trkpt>
      <trkpt lat="43.98041" lon="3.06599">
        <ele>798.9929199</ele>
        <time>2013-08-09T06:56:38Z</time>
      </trkpt>
      <trkpt lat="43.9803" lon="3.06594">
        <ele>798.512207</ele>
        <time>2013-08-09T06:56:46Z</time>
      </trkpt>
      <trkpt lat="43.98019" lon="3.06588">
        <ele>799.9543457</ele>
        <time>2013-08-09T06:56:55Z</time>
      </trkpt>
      <trkpt lat="43.9801" lon="3.06583">
        <ele>801.3962402</ele>
        <time>2013-08-09T06:57:03Z</time>
      </trkpt>
      <trkpt lat="43.97996" lon="3.06578">
        <ele>802.8381348</ele>
        <time>2013-08-09T06:57:13Z</time>
      </trkpt>
      <trkpt lat="43.97981" lon="3.06575">
        <ele>802.3574219</ele>
        <time>2013-08-09T06:57:23Z</time>
      </trkpt>
      <trkpt lat="43.97966" lon="3.06576">
        <ele>802.3574219</ele>
        <time>2013-08-09T06:57:33Z</time>
      </trkpt>
      <trkpt lat="43.97956" lon="3.06581">
        <ele>803.7995605</ele>
        <time>2013-08-09T06:57:41Z</time>
      </trkpt>
      <trkpt lat="43.97948" lon="3.06588">
        <ele>805.2414551</ele>
        <time>2013-08-09T06:57:49Z</time>
      </trkpt>
      <trkpt lat="43.97939" lon="3.06598">
        <ele>807.1640625</ele>
        <time>2013-08-09T06:57:57Z</time>
      </trkpt>
      <trkpt lat="43.97929" lon="3.06609">
        <ele>808.1254883</ele>
        <time>2013-08-09T06:58:07Z</time>
      </trkpt>
      <trkpt lat="43.97918" lon="3.06622">
        <ele>808.605957</ele>
        <time>2013-08-09T06:58:18Z</time>
      </trkpt>
      <trkpt lat="43.9791" lon="3.06631">
        <ele>808.605957</ele>
        <time>2013-08-09T06:58:26Z</time>
      </trkpt>
      <trkpt lat="43.97899" lon="3.0664">
        <ele>809.0866699</ele>
        <time>2013-08-09T06:58:36Z</time>
      </trkpt>
      <trkpt lat="43.97885" lon="3.06647">
        <ele>809.0866699</ele>
        <time>2013-08-09T06:58:46Z</time>
      </trkpt>
      <trkpt lat="43.97872" lon="3.06652">
        <ele>808.605957</ele>
        <time>2013-08-09T06:58:56Z</time>
      </trkpt>
      <trkpt lat="43.97862" lon="3.06656">
        <ele>807.6447754</ele>
        <time>2013-08-09T06:59:04Z</time>
      </trkpt>
      <trkpt lat="43.97852" lon="3.06661">
        <ele>807.1640625</ele>
        <time>2013-08-09T06:59:12Z</time>
      </trkpt>
      <trkpt lat="43.97841" lon="3.06668">
        <ele>806.2026367</ele>
        <time>2013-08-09T06:59:21Z</time>
      </trkpt>
      <trkpt lat="43.97832" lon="3.06681">
        <ele>806.2026367</ele>
        <time>2013-08-09T06:59:31Z</time>
      </trkpt>
      <trkpt lat="43.97827" lon="3.06694">
        <ele>805.722168</ele>
        <time>2013-08-09T06:59:39Z</time>
      </trkpt>
      <trkpt lat="43.97821" lon="3.0671">
        <ele>806.6833496</ele>
        <time>2013-08-09T06:59:48Z</time>
      </trkpt>
      <trkpt lat="43.97819" lon="3.06725">
        <ele>807.1640625</ele>
        <time>2013-08-09T06:59:57Z</time>
      </trkpt>
      <trkpt lat="43.97818" lon="3.06741">
        <ele>807.1640625</ele>
        <time>2013-08-09T07:00:06Z</time>
      </trkpt>
      <trkpt lat="43.97819" lon="3.06756">
        <ele>809.0866699</ele>
        <time>2013-08-09T07:00:15Z</time>
      </trkpt>
      <trkpt lat="43.97819" lon="3.06772">
        <ele>811.0092773</ele>
        <time>2013-08-09T07:00:25Z</time>
      </trkpt>
      <trkpt lat="43.9782" lon="3.06788">
        <ele>811.9707031</ele>
        <time>2013-08-09T07:00:34Z</time>
      </trkpt>
      <trkpt lat="43.9782" lon="3.06803">
        <ele>812.9321289</ele>
        <time>2013-08-09T07:00:42Z</time>
      </trkpt>
      <trkpt lat="43.97817" lon="3.06822">
        <ele>813.8933105</ele>
        <time>2013-08-09T07:00:53Z</time>
      </trkpt>
      <trkpt lat="43.97814" lon="3.06839">
        <ele>812.9321289</ele>
        <time>2013-08-09T07:01:02Z</time>
      </trkpt>
      <trkpt lat="43.9781" lon="3.06859">
        <ele>812.9321289</ele>
        <time>2013-08-09T07:01:13Z</time>
      </trkpt>
      <trkpt lat="43.97811" lon="3.06876">
        <ele>812.9321289</ele>
        <time>2013-08-09T07:01:23Z</time>
      </trkpt>
      <trkpt lat="43.97816" lon="3.0689">
        <ele>813.4128418</ele>
        <time>2013-08-09T07:01:31Z</time>
      </trkpt>
      <trkpt lat="43.9782" lon="3.06904">
        <ele>815.3354492</ele>
        <time>2013-08-09T07:01:39Z</time>
      </trkpt>
      <trkpt lat="43.97819" lon="3.0692">
        <ele>815.3354492</ele>
        <time>2013-08-09T07:01:48Z</time>
      </trkpt>
      <trkpt lat="43.97821" lon="3.06936">
        <ele>815.3354492</ele>
        <time>2013-08-09T07:01:57Z</time>
      </trkpt>
      <trkpt lat="43.97824" lon="3.06953">
        <ele>814.8547363</ele>
        <time>2013-08-09T07:02:06Z</time>
      </trkpt>
      <trkpt lat="43.97828" lon="3.06972">
        <ele>812.9321289</ele>
        <time>2013-08-09T07:02:16Z</time>
      </trkpt>
      <trkpt lat="43.97831" lon="3.06991">
        <ele>811.4899902</ele>
        <time>2013-08-09T07:02:26Z</time>
      </trkpt>
      <trkpt lat="43.97837" lon="3.07004">
        <ele>811.0092773</ele>
        <time>2013-08-09T07:02:34Z</time>
      </trkpt>
      <trkpt lat="43.97846" lon="3.0701">
        <ele>811.4899902</ele>
        <time>2013-08-09T07:02:41Z</time>
      </trkpt>
      <trkpt lat="43.97847" lon="3.07012">
        <ele>811.4899902</ele>
        <time>2013-08-09T07:02:42Z</time>
      </trkpt>
      <trkpt lat="43.97847" lon="3.07022">
        <ele>810.5285645</ele>
        <time>2013-08-09T07:02:48Z</time>
      </trkpt>
      <trkpt lat="43.97839" lon="3.07024">
        <ele>809.5673828</ele>
        <time>2013-08-09T07:02:54Z</time>
      </trkpt>
      <trkpt lat="43.97835" lon="3.07024">
        <ele>809.0866699</ele>
        <time>2013-08-09T07:02:57Z</time>
      </trkpt>
      <trkpt lat="43.97824" lon="3.07022">
        <ele>803.7995605</ele>
        <time>2013-08-09T07:03:07Z</time>
      </trkpt>
      <trkpt lat="43.97821" lon="3.07022">
        <ele>802.3574219</ele>
        <time>2013-08-09T07:03:10Z</time>
      </trkpt>
      <trkpt lat="43.97816" lon="3.07019">
        <ele>800.9155273</ele>
        <time>2013-08-09T07:03:15Z</time>
      </trkpt>
      <trkpt lat="43.97806" lon="3.07019">
        <ele>796.5898438</ele>
        <time>2013-08-09T07:03:24Z</time>
      </trkpt>
      <trkpt lat="43.97795" lon="3.07017">
        <ele>794.666748</ele>
        <time>2013-08-09T07:03:32Z</time>
      </trkpt>
      <trkpt lat="43.97794" lon="3.07017">
        <ele>794.666748</ele>
        <time>2013-08-09T07:03:33Z</time>
      </trkpt>
      <trkpt lat="43.9779" lon="3.07023">
        <ele>796.1091309</ele>
        <time>2013-08-09T07:03:39Z</time>
      </trkpt>
      <trkpt lat="43.97786" lon="3.07042">
        <ele>798.0317383</ele>
        <time>2013-08-09T07:03:49Z</time>
      </trkpt>
      <trkpt lat="43.97783" lon="3.07063">
        <ele>798.9929199</ele>
        <time>2013-08-09T07:03:59Z</time>
      </trkpt>
      <trkpt lat="43.97777" lon="3.07076">
        <ele>798.512207</ele>
        <time>2013-08-09T07:04:06Z</time>
      </trkpt>
      <trkpt lat="43.97769" lon="3.07088">
        <ele>797.0703125</ele>
        <time>2013-08-09T07:04:15Z</time>
      </trkpt>
      <trkpt lat="43.97764" lon="3.07102">
        <ele>798.0317383</ele>
        <time>2013-08-09T07:04:23Z</time>
      </trkpt>
      <trkpt lat="43.9776" lon="3.07117">
        <ele>799.9543457</ele>
        <time>2013-08-09T07:04:32Z</time>
      </trkpt>
      <trkpt lat="43.97759" lon="3.0712">
        <ele>800.4350586</ele>
        <time>2013-08-09T07:04:34Z</time>
      </trkpt>
      <trkpt lat="43.97758" lon="3.07124">
        <ele>800.9155273</ele>
        <time>2013-08-09T07:04:37Z</time>
      </trkpt>
      <trkpt lat="43.97757" lon="3.07126">
        <ele>800.4350586</ele>
        <time>2013-08-09T07:04:43Z</time>
      </trkpt>
      <trkpt lat="43.97763" lon="3.07127">
        <ele>800.4350586</ele>
        <time>2013-08-09T07:04:50Z</time>
      </trkpt>
      <trkpt lat="43.97764" lon="3.07132">
        <ele>801.3962402</ele>
        <time>2013-08-09T07:04:57Z</time>
      </trkpt>
      <trkpt lat="43.9777" lon="3.07139">
        <ele>815.3354492</ele>
        <time>2013-08-09T07:05:45Z</time>
      </trkpt>
      <trkpt lat="43.97769" lon="3.07131">
        <ele>811.9707031</ele>
        <time>2013-08-09T07:05:52Z</time>
      </trkpt>
      <trkpt lat="43.97767" lon="3.07129">
        <ele>810.0478516</ele>
        <time>2013-08-09T07:06:05Z</time>
      </trkpt>
      <trkpt lat="43.97772" lon="3.0713">
        <ele>808.605957</ele>
        <time>2013-08-09T07:06:10Z</time>
      </trkpt>
      <trkpt lat="43.97774" lon="3.0713">
        <ele>808.605957</ele>
        <time>2013-08-09T07:06:12Z</time>
      </trkpt>
      <trkpt lat="43.97781" lon="3.0713">
        <ele>808.605957</ele>
        <time>2013-08-09T07:06:18Z</time>
      </trkpt>
      <trkpt lat="43.97788" lon="3.0713">
        <ele>808.605957</ele>
        <time>2013-08-09T07:06:24Z</time>
      </trkpt>
      <trkpt lat="43.97794" lon="3.07132">
        <ele>808.1254883</ele>
        <time>2013-08-09T07:06:29Z</time>
      </trkpt>
      <trkpt lat="43.97801" lon="3.07137">
        <ele>808.1254883</ele>
        <time>2013-08-09T07:06:35Z</time>
      </trkpt>
      <trkpt lat="43.97811" lon="3.07138">
        <ele>810.0478516</ele>
        <time>2013-08-09T07:06:42Z</time>
      </trkpt>
      <trkpt lat="43.97819" lon="3.07138">
        <ele>811.4899902</ele>
        <time>2013-08-09T07:06:48Z</time>
      </trkpt>
      <trkpt lat="43.9783" lon="3.07138">
        <ele>814.3740234</ele>
        <time>2013-08-09T07:06:55Z</time>
      </trkpt>
      <trkpt lat="43.97834" lon="3.07139">
        <ele>813.4128418</ele>
        <time>2013-08-09T07:06:58Z</time>
      </trkpt>
      <trkpt lat="43.97842" lon="3.07142">
        <ele>811.0092773</ele>
        <time>2013-08-09T07:07:03Z</time>
      </trkpt>
      <trkpt lat="43.97849" lon="3.07147">
        <ele>811.0092773</ele>
        <time>2013-08-09T07:07:08Z</time>
      </trkpt>
      <trkpt lat="43.97855" lon="3.07147">
        <ele>811.9707031</ele>
        <time>2013-08-09T07:07:12Z</time>
      </trkpt>
      <trkpt lat="43.97857" lon="3.07147">
        <ele>811.9707031</ele>
        <time>2013-08-09T07:07:14Z</time>
      </trkpt>
      <trkpt lat="43.97866" lon="3.07147">
        <ele>811.0092773</ele>
        <time>2013-08-09T07:07:20Z</time>
      </trkpt>
      <trkpt lat="43.97876" lon="3.07147">
        <ele>810.0478516</ele>
        <time>2013-08-09T07:07:28Z</time>
      </trkpt>
      <trkpt lat="43.97885" lon="3.07148">
        <ele>812.451416</ele>
        <time>2013-08-09T07:07:32Z</time>
      </trkpt>
      <trkpt lat="43.9789" lon="3.07149">
        <ele>812.451416</ele>
        <time>2013-08-09T07:07:38Z</time>
      </trkpt>
      <trkpt lat="43.97896" lon="3.0715">
        <ele>813.8933105</ele>
        <time>2013-08-09T07:07:42Z</time>
      </trkpt>
      <trkpt lat="43.97902" lon="3.0715">
        <ele>812.9321289</ele>
        <time>2013-08-09T07:07:48Z</time>
      </trkpt>
      <trkpt lat="43.97907" lon="3.07151">
        <ele>812.9321289</ele>
        <time>2013-08-09T07:07:51Z</time>
      </trkpt>
      <trkpt lat="43.97911" lon="3.07153">
        <ele>813.4128418</ele>
        <time>2013-08-09T07:07:54Z</time>
      </trkpt>
      <trkpt lat="43.97915" lon="3.07154">
        <ele>813.4128418</ele>
        <time>2013-08-09T07:07:57Z</time>
      </trkpt>
      <trkpt lat="43.97924" lon="3.07159">
        <ele>810.5285645</ele>
        <time>2013-08-09T07:08:03Z</time>
      </trkpt>
      <trkpt lat="43.97931" lon="3.07168">
        <ele>809.0866699</ele>
        <time>2013-08-09T07:08:09Z</time>
      </trkpt>
      <trkpt lat="43.97939" lon="3.07177">
        <ele>805.722168</ele>
        <time>2013-08-09T07:08:16Z</time>
      </trkpt>
      <trkpt lat="43.97942" lon="3.07182">
        <ele>802.8381348</ele>
        <time>2013-08-09T07:08:21Z</time>
      </trkpt>
      <trkpt lat="43.97946" lon="3.07187">
        <ele>801.3962402</ele>
        <time>2013-08-09T07:08:25Z</time>
      </trkpt>
      <trkpt lat="43.97952" lon="3.07197">
        <ele>802.3574219</ele>
        <time>2013-08-09T07:08:32Z</time>
      </trkpt>
      <trkpt lat="43.97952" lon="3.07198">
        <ele>801.8769531</ele>
        <time>2013-08-09T07:08:33Z</time>
      </trkpt>
      <trkpt lat="43.97954" lon="3.07202">
        <ele>802.3574219</ele>
        <time>2013-08-09T07:08:36Z</time>
      </trkpt>
      <trkpt lat="43.97962" lon="3.07209">
        <ele>803.7995605</ele>
        <time>2013-08-09T07:08:43Z</time>
      </trkpt>
      <trkpt lat="43.97973" lon="3.07217">
        <ele>802.8381348</ele>
        <time>2013-08-09T07:08:51Z</time>
      </trkpt>
      <trkpt lat="43.97982" lon="3.07219">
        <ele>801.8769531</ele>
        <time>2013-08-09T07:08:57Z</time>
      </trkpt>
      <trkpt lat="43.97993" lon="3.07224">
        <ele>805.722168</ele>
        <time>2013-08-09T07:09:04Z</time>
      </trkpt>
      <trkpt lat="43.98003" lon="3.07228">
        <ele>807.1640625</ele>
        <time>2013-08-09T07:09:10Z</time>
      </trkpt>
      <trkpt lat="43.9801" lon="3.07233">
        <ele>806.2026367</ele>
        <time>2013-08-09T07:09:16Z</time>
      </trkpt>
      <trkpt lat="43.98015" lon="3.07237">
        <ele>805.2414551</ele>
        <time>2013-08-09T07:09:20Z</time>
      </trkpt>
      <trkpt lat="43.9802" lon="3.07244">
        <ele>805.2414551</ele>
        <time>2013-08-09T07:09:26Z</time>
      </trkpt>
      <trkpt lat="43.98022" lon="3.07247">
        <ele>804.2802734</ele>
        <time>2013-08-09T07:09:28Z</time>
      </trkpt>
      <trkpt lat="43.98024" lon="3.0725">
        <ele>803.3188477</ele>
        <time>2013-08-09T07:09:30Z</time>
      </trkpt>
      <trkpt lat="43.98033" lon="3.07256">
        <ele>802.8381348</ele>
        <time>2013-08-09T07:09:37Z</time>
      </trkpt>
      <trkpt lat="43.9804" lon="3.07262">
        <ele>804.2802734</ele>
        <time>2013-08-09T07:09:43Z</time>
      </trkpt>
      <trkpt lat="43.98047" lon="3.0727">
        <ele>805.2414551</ele>
        <time>2013-08-09T07:09:49Z</time>
      </trkpt>
      <trkpt lat="43.98048" lon="3.07271">
        <ele>805.722168</ele>
        <time>2013-08-09T07:09:50Z</time>
      </trkpt>
      <trkpt lat="43.98051" lon="3.07278">
        <ele>806.6833496</ele>
        <time>2013-08-09T07:09:54Z</time>
      </trkpt>
      <trkpt lat="43.98057" lon="3.07284">
        <ele>805.2414551</ele>
        <time>2013-08-09T07:10:00Z</time>
      </trkpt>
      <trkpt lat="43.98061" lon="3.07289">
        <ele>804.7607422</ele>
        <time>2013-08-09T07:10:05Z</time>
      </trkpt>
      <trkpt lat="43.98061" lon="3.07305">
        <ele>805.2414551</ele>
        <time>2013-08-09T07:10:14Z</time>
      </trkpt>
      <trkpt lat="43.9806" lon="3.07319">
        <ele>806.6833496</ele>
        <time>2013-08-09T07:10:23Z</time>
      </trkpt>
      <trkpt lat="43.9806" lon="3.07332">
        <ele>808.1254883</ele>
        <time>2013-08-09T07:10:31Z</time>
      </trkpt>
      <trkpt lat="43.98062" lon="3.07341">
        <ele>810.5285645</ele>
        <time>2013-08-09T07:10:38Z</time>
      </trkpt>
      <trkpt lat="43.98062" lon="3.07349">
        <ele>811.4899902</ele>
        <time>2013-08-09T07:10:45Z</time>
      </trkpt>
      <trkpt lat="43.98062" lon="3.07357">
        <ele>812.9321289</ele>
        <time>2013-08-09T07:10:52Z</time>
      </trkpt>
      <trkpt lat="43.9806" lon="3.07366">
        <ele>814.8547363</ele>
        <time>2013-08-09T07:11:00Z</time>
      </trkpt>
      <trkpt lat="43.98059" lon="3.07374">
        <ele>816.7773438</ele>
        <time>2013-08-09T07:11:07Z</time>
      </trkpt>
      <trkpt lat="43.98058" lon="3.07383">
        <ele>818.6999512</ele>
        <time>2013-08-09T07:11:15Z</time>
      </trkpt>
      <trkpt lat="43.98056" lon="3.07391">
        <ele>819.661377</ele>
        <time>2013-08-09T07:11:22Z</time>
      </trkpt>
      <trkpt lat="43.98055" lon="3.07398">
        <ele>820.1418457</ele>
        <time>2013-08-09T07:11:29Z</time>
      </trkpt>
      <trkpt lat="43.98056" lon="3.07406">
        <ele>821.1032715</ele>
        <time>2013-08-09T07:11:36Z</time>
      </trkpt>
      <trkpt lat="43.98059" lon="3.07412">
        <ele>823.0258789</ele>
        <time>2013-08-09T07:11:42Z</time>
      </trkpt>
      <trkpt lat="43.98059" lon="3.07421">
        <ele>824.9484863</ele>
        <time>2013-08-09T07:11:49Z</time>
      </trkpt>
      <trkpt lat="43.98056" lon="3.07427">
        <ele>826.8710938</ele>
        <time>2013-08-09T07:11:56Z</time>
      </trkpt>
      <trkpt lat="43.98052" lon="3.07429">
        <ele>826.8710938</ele>
        <time>2013-08-09T07:12:01Z</time>
      </trkpt>
      <trkpt lat="43.98046" lon="3.07429">
        <ele>827.8322754</ele>
        <time>2013-08-09T07:12:06Z</time>
      </trkpt>
      <trkpt lat="43.98039" lon="3.07435">
        <ele>829.2744141</ele>
        <time>2013-08-09T07:12:14Z</time>
      </trkpt>
      <trkpt lat="43.98032" lon="3.07442">
        <ele>831.1972656</ele>
        <time>2013-08-09T07:12:21Z</time>
      </trkpt>
      <trkpt lat="43.98027" lon="3.07447">
        <ele>832.6391602</ele>
        <time>2013-08-09T07:12:28Z</time>
      </trkpt>
      <trkpt lat="43.98021" lon="3.07459">
        <ele>834.5617676</ele>
        <time>2013-08-09T07:12:37Z</time>
      </trkpt>
      <trkpt lat="43.98017" lon="3.07471">
        <ele>836.0036621</ele>
        <time>2013-08-09T07:12:46Z</time>
      </trkpt>
      <trkpt lat="43.98014" lon="3.07478">
        <ele>836.484375</ele>
        <time>2013-08-09T07:12:52Z</time>
      </trkpt>
      <trkpt lat="43.98008" lon="3.07483">
        <ele>836.9648438</ele>
        <time>2013-08-09T07:12:57Z</time>
      </trkpt>
      <trkpt lat="43.98002" lon="3.0749">
        <ele>837.4455566</ele>
        <time>2013-08-09T07:13:05Z</time>
      </trkpt>
      <trkpt lat="43.97992" lon="3.07498">
        <ele>836.484375</ele>
        <time>2013-08-09T07:13:14Z</time>
      </trkpt>
      <trkpt lat="43.97986" lon="3.07504">
        <ele>835.5229492</ele>
        <time>2013-08-09T07:13:20Z</time>
      </trkpt>
      <trkpt lat="43.97981" lon="3.0751">
        <ele>835.5229492</ele>
        <time>2013-08-09T07:13:26Z</time>
      </trkpt>
      <trkpt lat="43.97974" lon="3.07519">
        <ele>835.5229492</ele>
        <time>2013-08-09T07:13:33Z</time>
      </trkpt>
      <trkpt lat="43.97968" lon="3.07528">
        <ele>837.4455566</ele>
        <time>2013-08-09T07:13:41Z</time>
      </trkpt>
      <trkpt lat="43.97961" lon="3.07537">
        <ele>838.8876953</ele>
        <time>2013-08-09T07:13:49Z</time>
      </trkpt>
      <trkpt lat="43.97957" lon="3.07543">
        <ele>838.8876953</ele>
        <time>2013-08-09T07:13:54Z</time>
      </trkpt>
      <trkpt lat="43.97949" lon="3.07551">
        <ele>840.8100586</ele>
        <time>2013-08-09T07:14:04Z</time>
      </trkpt>
      <trkpt lat="43.97946" lon="3.07552">
        <ele>840.8100586</ele>
        <time>2013-08-09T07:14:09Z</time>
      </trkpt>
      <trkpt lat="43.97936" lon="3.07556">
        <ele>842.7329102</ele>
        <time>2013-08-09T07:14:19Z</time>
      </trkpt>
      <trkpt lat="43.97928" lon="3.07554">
        <ele>844.1750488</ele>
        <time>2013-08-09T07:14:27Z</time>
      </trkpt>
      <trkpt lat="43.97921" lon="3.07552">
        <ele>845.6169434</ele>
        <time>2013-08-09T07:14:35Z</time>
      </trkpt>
      <trkpt lat="43.97914" lon="3.07556">
        <ele>847.0588379</ele>
        <time>2013-08-09T07:14:44Z</time>
      </trkpt>
      <trkpt lat="43.97908" lon="3.07557">
        <ele>848.5007324</ele>
        <time>2013-08-09T07:14:51Z</time>
      </trkpt>
      <trkpt lat="43.97902" lon="3.07562">
        <ele>848.0202637</ele>
        <time>2013-08-09T07:14:58Z</time>
      </trkpt>
      <trkpt lat="43.97898" lon="3.07571">
        <ele>849.9428711</ele>
        <time>2013-08-09T07:15:07Z</time>
      </trkpt>
      <trkpt lat="43.97892" lon="3.07577">
        <ele>849.9428711</ele>
        <time>2013-08-09T07:15:14Z</time>
      </trkpt>
      <trkpt lat="43.97883" lon="3.07584">
        <ele>850.423584</ele>
        <time>2013-08-09T07:15:23Z</time>
      </trkpt>
      <trkpt lat="43.97872" lon="3.07591">
        <ele>850.9040527</ele>
        <time>2013-08-09T07:15:33Z</time>
      </trkpt>
      <trkpt lat="43.97864" lon="3.07594">
        <ele>851.8654785</ele>
        <time>2013-08-09T07:15:40Z</time>
      </trkpt>
      <trkpt lat="43.97857" lon="3.07598">
        <ele>852.8266602</ele>
        <time>2013-08-09T07:15:47Z</time>
      </trkpt>
      <trkpt lat="43.97852" lon="3.07601">
        <ele>853.307373</ele>
        <time>2013-08-09T07:15:54Z</time>
      </trkpt>
      <trkpt lat="43.97849" lon="3.07604">
        <ele>855.2299805</ele>
        <time>2013-08-09T07:15:59Z</time>
      </trkpt>
      <trkpt lat="43.97845" lon="3.07612">
        <ele>857.6333008</ele>
        <time>2013-08-09T07:16:07Z</time>
      </trkpt>
      <trkpt lat="43.97842" lon="3.0762">
        <ele>858.5944824</ele>
        <time>2013-08-09T07:16:14Z</time>
      </trkpt>
      <trkpt lat="43.97842" lon="3.07624">
        <ele>859.0751953</ele>
        <time>2013-08-09T07:16:20Z</time>
      </trkpt>
      <trkpt lat="43.97838" lon="3.07621">
        <ele>858.1140137</ele>
        <time>2013-08-09T07:16:26Z</time>
      </trkpt>
      <trkpt lat="43.97832" lon="3.07624">
        <ele>857.6333008</ele>
        <time>2013-08-09T07:16:31Z</time>
      </trkpt>
      <trkpt lat="43.97829" lon="3.07628">
        <ele>857.1525879</ele>
        <time>2013-08-09T07:16:34Z</time>
      </trkpt>
      <trkpt lat="43.97825" lon="3.07633">
        <ele>857.1525879</ele>
        <time>2013-08-09T07:16:39Z</time>
      </trkpt>
      <trkpt lat="43.97821" lon="3.07634">
        <ele>857.1525879</ele>
        <time>2013-08-09T07:16:42Z</time>
      </trkpt>
      <trkpt lat="43.97814" lon="3.07642">
        <ele>857.6333008</ele>
        <time>2013-08-09T07:16:49Z</time>
      </trkpt>
      <trkpt lat="43.97813" lon="3.07651">
        <ele>858.1140137</ele>
        <time>2013-08-09T07:16:56Z</time>
      </trkpt>
      <trkpt lat="43.97813" lon="3.07652">
        <ele>858.5944824</ele>
        <time>2013-08-09T07:16:57Z</time>
      </trkpt>
      <trkpt lat="43.97818" lon="3.07658">
        <ele>861.4787598</ele>
        <time>2013-08-09T07:17:05Z</time>
      </trkpt>
      <trkpt lat="43.97822" lon="3.07662">
        <ele>862.9206543</ele>
        <time>2013-08-09T07:17:12Z</time>
      </trkpt>
      <trkpt lat="43.97827" lon="3.07667">
        <ele>864.8432617</ele>
        <time>2013-08-09T07:17:20Z</time>
      </trkpt>
      <trkpt lat="43.97833" lon="3.07671">
        <ele>866.7658691</ele>
        <time>2013-08-09T07:17:28Z</time>
      </trkpt>
      <trkpt lat="43.9784" lon="3.07676">
        <ele>869.1691895</ele>
        <time>2013-08-09T07:17:36Z</time>
      </trkpt>
      <trkpt lat="43.97842" lon="3.07678">
        <ele>869.6499023</ele>
        <time>2013-08-09T07:17:41Z</time>
      </trkpt>
      <trkpt lat="43.97845" lon="3.0768">
        <ele>870.611084</ele>
        <time>2013-08-09T07:17:48Z</time>
      </trkpt>
      <trkpt lat="43.97849" lon="3.07684">
        <ele>870.611084</ele>
        <time>2013-08-09T07:17:54Z</time>
      </trkpt>
      <trkpt lat="43.97856" lon="3.07693">
        <ele>871.0917969</ele>
        <time>2013-08-09T07:18:02Z</time>
      </trkpt>
      <trkpt lat="43.97861" lon="3.07699">
        <ele>871.0917969</ele>
        <time>2013-08-09T07:18:08Z</time>
      </trkpt>
      <trkpt lat="43.97868" lon="3.0771">
        <ele>872.5336914</ele>
        <time>2013-08-09T07:18:17Z</time>
      </trkpt>
      <trkpt lat="43.97876" lon="3.0772">
        <ele>874.9370117</ele>
        <time>2013-08-09T07:18:25Z</time>
      </trkpt>
      <trkpt lat="43.97881" lon="3.07727">
        <ele>877.8210449</ele>
        <time>2013-08-09T07:18:32Z</time>
      </trkpt>
      <trkpt lat="43.97883" lon="3.07731">
        <ele>878.3017578</ele>
        <time>2013-08-09T07:18:35Z</time>
      </trkpt>
      <trkpt lat="43.97886" lon="3.07742">
        <ele>879.2629395</ele>
        <time>2013-08-09T07:18:42Z</time>
      </trkpt>
      <trkpt lat="43.9789" lon="3.07754">
        <ele>879.7436523</ele>
        <time>2013-08-09T07:18:50Z</time>
      </trkpt>
      <trkpt lat="43.97894" lon="3.07762">
        <ele>879.7436523</ele>
        <time>2013-08-09T07:18:56Z</time>
      </trkpt>
      <trkpt lat="43.97899" lon="3.07776">
        <ele>881.185791</ele>
        <time>2013-08-09T07:19:05Z</time>
      </trkpt>
      <trkpt lat="43.97901" lon="3.07789">
        <ele>882.1469727</ele>
        <time>2013-08-09T07:19:13Z</time>
      </trkpt>
      <trkpt lat="43.97904" lon="3.07802">
        <ele>884.0695801</ele>
        <time>2013-08-09T07:19:20Z</time>
      </trkpt>
      <trkpt lat="43.97904" lon="3.07811">
        <ele>884.0695801</ele>
        <time>2013-08-09T07:19:25Z</time>
      </trkpt>
      <trkpt lat="43.97904" lon="3.07819">
        <ele>884.0695801</ele>
        <time>2013-08-09T07:19:30Z</time>
      </trkpt>
      <trkpt lat="43.97906" lon="3.07833">
        <ele>884.550293</ele>
        <time>2013-08-09T07:19:38Z</time>
      </trkpt>
      <trkpt lat="43.97903" lon="3.07843">
        <ele>885.0310059</ele>
        <time>2013-08-09T07:19:44Z</time>
      </trkpt>
      <trkpt lat="43.97902" lon="3.07855">
        <ele>885.5114746</ele>
        <time>2013-08-09T07:19:51Z</time>
      </trkpt>
      <trkpt lat="43.97903" lon="3.07861">
        <ele>885.5114746</ele>
        <time>2013-08-09T07:19:54Z</time>
      </trkpt>
      <trkpt lat="43.97906" lon="3.07868">
        <ele>885.9921875</ele>
        <time>2013-08-09T07:19:58Z</time>
      </trkpt>
      <trkpt lat="43.97914" lon="3.07875">
        <ele>886.9533691</ele>
        <time>2013-08-09T07:20:06Z</time>
      </trkpt>
      <trkpt lat="43.97926" lon="3.07877">
        <ele>886.9533691</ele>
        <time>2013-08-09T07:20:15Z</time>
      </trkpt>
      <trkpt lat="43.97928" lon="3.07877">
        <ele>886.9533691</ele>
        <time>2013-08-09T07:20:16Z</time>
      </trkpt>
      <trkpt lat="43.97931" lon="3.07872">
        <ele>886.9533691</ele>
        <time>2013-08-09T07:20:20Z</time>
      </trkpt>
      <trkpt lat="43.97935" lon="3.07864">
        <ele>887.9147949</ele>
        <time>2013-08-09T07:20:26Z</time>
      </trkpt>
      <trkpt lat="43.97939" lon="3.07863">
        <ele>888.8762207</ele>
        <time>2013-08-09T07:20:33Z</time>
      </trkpt>
      <trkpt lat="43.97942" lon="3.07863">
        <ele>888.8762207</ele>
        <time>2013-08-09T07:20:39Z</time>
      </trkpt>
      <trkpt lat="43.97942" lon="3.07862">
        <ele>889.3566895</ele>
        <time>2013-08-09T07:20:44Z</time>
      </trkpt>
      <trkpt lat="43.97944" lon="3.07865">
        <ele>888.3955078</ele>
        <time>2013-08-09T07:20:50Z</time>
      </trkpt>
      <trkpt lat="43.97945" lon="3.07871">
        <ele>887.9147949</ele>
        <time>2013-08-09T07:20:54Z</time>
      </trkpt>
      <trkpt lat="43.97941" lon="3.07875">
        <ele>886.9533691</ele>
        <time>2013-08-09T07:20:58Z</time>
      </trkpt>
      <trkpt lat="43.97933" lon="3.07884">
        <ele>886.4729004</ele>
        <time>2013-08-09T07:21:06Z</time>
      </trkpt>
      <trkpt lat="43.97932" lon="3.07885">
        <ele>886.9533691</ele>
        <time>2013-08-09T07:21:07Z</time>
      </trkpt>
      <trkpt lat="43.97927" lon="3.07888">
        <ele>888.3955078</ele>
        <time>2013-08-09T07:21:13Z</time>
      </trkpt>
      <trkpt lat="43.97926" lon="3.07888">
        <ele>888.3955078</ele>
        <time>2013-08-09T07:21:14Z</time>
      </trkpt>
      <trkpt lat="43.97919" lon="3.07893">
        <ele>888.8762207</ele>
        <time>2013-08-09T07:21:20Z</time>
      </trkpt>
      <trkpt lat="43.97914" lon="3.07892">
        <ele>887.434082</ele>
        <time>2013-08-09T07:21:24Z</time>
      </trkpt>
      <trkpt lat="43.97908" lon="3.07902">
        <ele>885.5114746</ele>
        <time>2013-08-09T07:21:33Z</time>
      </trkpt>
      <trkpt lat="43.97907" lon="3.07911">
        <ele>884.0695801</ele>
        <time>2013-08-09T07:21:39Z</time>
      </trkpt>
      <trkpt lat="43.97908" lon="3.07924">
        <ele>882.1469727</ele>
        <time>2013-08-09T07:21:46Z</time>
      </trkpt>
      <trkpt lat="43.97908" lon="3.07926">
        <ele>882.1469727</ele>
        <time>2013-08-09T07:21:47Z</time>
      </trkpt>
      <trkpt lat="43.97912" lon="3.07939">
        <ele>882.1469727</ele>
        <time>2013-08-09T07:21:54Z</time>
      </trkpt>
      <trkpt lat="43.97916" lon="3.07943">
        <ele>881.6662598</ele>
        <time>2013-08-09T07:21:58Z</time>
      </trkpt>
      <trkpt lat="43.97925" lon="3.0795">
        <ele>880.2243652</ele>
        <time>2013-08-09T07:22:06Z</time>
      </trkpt>
      <trkpt lat="43.97929" lon="3.07953">
        <ele>879.7436523</ele>
        <time>2013-08-09T07:22:10Z</time>
      </trkpt>
      <trkpt lat="43.97931" lon="3.07965">
        <ele>877.8210449</ele>
        <time>2013-08-09T07:22:17Z</time>
      </trkpt>
      <trkpt lat="43.97927" lon="3.07977">
        <ele>875.8981934</ele>
        <time>2013-08-09T07:22:24Z</time>
      </trkpt>
      <trkpt lat="43.97927" lon="3.07981">
        <ele>875.4174805</ele>
        <time>2013-08-09T07:22:26Z</time>
      </trkpt>
      <trkpt lat="43.97929" lon="3.07993">
        <ele>873.4951172</ele>
        <time>2013-08-09T07:22:34Z</time>
      </trkpt>
      <trkpt lat="43.9793" lon="3.08004">
        <ele>872.0529785</ele>
        <time>2013-08-09T07:22:40Z</time>
      </trkpt>
      <trkpt lat="43.97926" lon="3.0801">
        <ele>870.611084</ele>
        <time>2013-08-09T07:22:45Z</time>
      </trkpt>
      <trkpt lat="43.97922" lon="3.08016">
        <ele>870.611084</ele>
        <time>2013-08-09T07:22:49Z</time>
      </trkpt>
      <trkpt lat="43.97922" lon="3.08019">
        <ele>870.1303711</ele>
        <time>2013-08-09T07:22:51Z</time>
      </trkpt>
      <trkpt lat="43.97923" lon="3.08025">
        <ele>869.1691895</ele>
        <time>2013-08-09T07:22:58Z</time>
      </trkpt>
      <trkpt lat="43.97924" lon="3.08029">
        <ele>868.6884766</ele>
        <time>2013-08-09T07:23:01Z</time>
      </trkpt>
      <trkpt lat="43.97923" lon="3.08037">
        <ele>867.246582</ele>
        <time>2013-08-09T07:23:08Z</time>
      </trkpt>
      <trkpt lat="43.97922" lon="3.08046">
        <ele>865.8046875</ele>
        <time>2013-08-09T07:23:13Z</time>
      </trkpt>
      <trkpt lat="43.97923" lon="3.08049">
        <ele>865.8046875</ele>
        <time>2013-08-09T07:23:15Z</time>
      </trkpt>
      <trkpt lat="43.97919" lon="3.08059">
        <ele>864.8432617</ele>
        <time>2013-08-09T07:23:21Z</time>
      </trkpt>
      <trkpt lat="43.97917" lon="3.08073">
        <ele>864.3625488</ele>
        <time>2013-08-09T07:23:29Z</time>
      </trkpt>
      <trkpt lat="43.97917" lon="3.0808">
        <ele>864.3625488</ele>
        <time>2013-08-09T07:23:34Z</time>
      </trkpt>
      <trkpt lat="43.97916" lon="3.08087">
        <ele>864.8432617</ele>
        <time>2013-08-09T07:23:38Z</time>
      </trkpt>
      <trkpt lat="43.97916" lon="3.08095">
        <ele>864.3625488</ele>
        <time>2013-08-09T07:23:43Z</time>
      </trkpt>
      <trkpt lat="43.97915" lon="3.08103">
        <ele>864.3625488</ele>
        <time>2013-08-09T07:23:49Z</time>
      </trkpt>
      <trkpt lat="43.97916" lon="3.08111">
        <ele>863.8818359</ele>
        <time>2013-08-09T07:23:55Z</time>
      </trkpt>
      <trkpt lat="43.97915" lon="3.08117">
        <ele>863.4013672</ele>
        <time>2013-08-09T07:23:59Z</time>
      </trkpt>
      <trkpt lat="43.97913" lon="3.08121">
        <ele>862.9206543</ele>
        <time>2013-08-09T07:24:04Z</time>
      </trkpt>
      <trkpt lat="43.97909" lon="3.08125">
        <ele>862.9206543</ele>
        <time>2013-08-09T07:24:09Z</time>
      </trkpt>
      <trkpt lat="43.97905" lon="3.08129">
        <ele>860.9980469</ele>
        <time>2013-08-09T07:24:12Z</time>
      </trkpt>
      <trkpt lat="43.97904" lon="3.0814">
        <ele>860.0366211</ele>
        <time>2013-08-09T07:24:18Z</time>
      </trkpt>
      <trkpt lat="43.979" lon="3.08155">
        <ele>858.5944824</ele>
        <time>2013-08-09T07:24:27Z</time>
      </trkpt>
      <trkpt lat="43.97898" lon="3.08169">
        <ele>859.0751953</ele>
        <time>2013-08-09T07:24:35Z</time>
      </trkpt>
      <trkpt lat="43.97895" lon="3.08182">
        <ele>860.517334</ele>
        <time>2013-08-09T07:24:43Z</time>
      </trkpt>
      <trkpt lat="43.9789" lon="3.08197">
        <ele>861.4787598</ele>
        <time>2013-08-09T07:24:52Z</time>
      </trkpt>
      <trkpt lat="43.97884" lon="3.0821">
        <ele>862.9206543</ele>
        <time>2013-08-09T07:25:00Z</time>
      </trkpt>
      <trkpt lat="43.97876" lon="3.08221">
        <ele>863.8818359</ele>
        <time>2013-08-09T07:25:08Z</time>
      </trkpt>
      <trkpt lat="43.97875" lon="3.08231">
        <ele>864.3625488</ele>
        <time>2013-08-09T07:25:15Z</time>
      </trkpt>
      <trkpt lat="43.97881" lon="3.08244">
        <ele>863.8818359</ele>
        <time>2013-08-09T07:25:23Z</time>
      </trkpt>
      <trkpt lat="43.97882" lon="3.08245">
        <ele>863.8818359</ele>
        <time>2013-08-09T07:25:24Z</time>
      </trkpt>
      <trkpt lat="43.97888" lon="3.08261">
        <ele>863.8818359</ele>
        <time>2013-08-09T07:25:33Z</time>
      </trkpt>
      <trkpt lat="43.97893" lon="3.08276">
        <ele>862.9206543</ele>
        <time>2013-08-09T07:25:42Z</time>
      </trkpt>
      <trkpt lat="43.97894" lon="3.08289">
        <ele>861.4787598</ele>
        <time>2013-08-09T07:25:49Z</time>
      </trkpt>
      <trkpt lat="43.97895" lon="3.08301">
        <ele>860.0366211</ele>
        <time>2013-08-09T07:25:55Z</time>
      </trkpt>
      <trkpt lat="43.97896" lon="3.08305">
        <ele>859.5559082</ele>
        <time>2013-08-09T07:25:57Z</time>
      </trkpt>
      <trkpt lat="43.97895" lon="3.08313">
        <ele>857.6333008</ele>
        <time>2013-08-09T07:26:02Z</time>
      </trkpt>
      <trkpt lat="43.97895" lon="3.08329">
        <ele>857.1525879</ele>
        <time>2013-08-09T07:26:10Z</time>
      </trkpt>
      <trkpt lat="43.97894" lon="3.08333">
        <ele>855.7106934</ele>
        <time>2013-08-09T07:26:13Z</time>
      </trkpt>
      <trkpt lat="43.97893" lon="3.08337">
        <ele>855.7106934</ele>
        <time>2013-08-09T07:26:20Z</time>
      </trkpt>
      <trkpt lat="43.97893" lon="3.08338">
        <ele>856.1911621</ele>
        <time>2013-08-09T07:26:25Z</time>
      </trkpt>
      <trkpt lat="43.97893" lon="3.08338">
        <ele>856.1911621</ele>
        <time>2013-08-09T07:26:27Z</time>
      </trkpt>
      <trkpt lat="43.97889" lon="3.08342">
        <ele>856.1911621</ele>
        <time>2013-08-09T07:26:32Z</time>
      </trkpt>
      <trkpt lat="43.97888" lon="3.08343">
        <ele>856.1911621</ele>
        <time>2013-08-09T07:26:33Z</time>
      </trkpt>
      <trkpt lat="43.97883" lon="3.08351">
        <ele>855.7106934</ele>
        <time>2013-08-09T07:26:39Z</time>
      </trkpt>
      <trkpt lat="43.97882" lon="3.08351">
        <ele>855.2299805</ele>
        <time>2013-08-09T07:26:40Z</time>
      </trkpt>
      <trkpt lat="43.97878" lon="3.08346">
        <ele>854.7492676</ele>
        <time>2013-08-09T07:26:45Z</time>
      </trkpt>
      <trkpt lat="43.97874" lon="3.08342">
        <ele>853.7880859</ele>
        <time>2013-08-09T07:26:52Z</time>
      </trkpt>
      <trkpt lat="43.97871" lon="3.08339">
        <ele>852.3459473</ele>
        <time>2013-08-09T07:26:58Z</time>
      </trkpt>
      <trkpt lat="43.97867" lon="3.08343">
        <ele>849.9428711</ele>
        <time>2013-08-09T07:27:03Z</time>
      </trkpt>
      <trkpt lat="43.97862" lon="3.08344">
        <ele>847.5395508</ele>
        <time>2013-08-09T07:27:08Z</time>
      </trkpt>
      <trkpt lat="43.97858" lon="3.08344">
        <ele>845.6169434</ele>
        <time>2013-08-09T07:27:13Z</time>
      </trkpt>
      <trkpt lat="43.97852" lon="3.08334">
        <ele>842.7329102</ele>
        <time>2013-08-09T07:27:21Z</time>
      </trkpt>
      <trkpt lat="43.97847" lon="3.08326">
        <ele>841.7714844</ele>
        <time>2013-08-09T07:27:28Z</time>
      </trkpt>
      <trkpt lat="43.9784" lon="3.08321">
        <ele>841.2907715</ele>
        <time>2013-08-09T07:27:36Z</time>
      </trkpt>
      <trkpt lat="43.97838" lon="3.0832">
        <ele>841.2907715</ele>
        <time>2013-08-09T07:27:38Z</time>
      </trkpt>
      <trkpt lat="43.97831" lon="3.08318">
        <ele>842.2521973</ele>
        <time>2013-08-09T07:27:44Z</time>
      </trkpt>
      <trkpt lat="43.97826" lon="3.08318">
        <ele>841.2907715</ele>
        <time>2013-08-09T07:27:48Z</time>
      </trkpt>
      <trkpt lat="43.97819" lon="3.08318">
        <ele>841.7714844</ele>
        <time>2013-08-09T07:27:54Z</time>
      </trkpt>
      <trkpt lat="43.97811" lon="3.08316">
        <ele>841.7714844</ele>
        <time>2013-08-09T07:28:01Z</time>
      </trkpt>
      <trkpt lat="43.97807" lon="3.08315">
        <ele>841.2907715</ele>
        <time>2013-08-09T07:28:04Z</time>
      </trkpt>
      <trkpt lat="43.97803" lon="3.08314">
        <ele>841.2907715</ele>
        <time>2013-08-09T07:28:08Z</time>
      </trkpt>
      <trkpt lat="43.97793" lon="3.08308">
        <ele>840.3295898</ele>
        <time>2013-08-09T07:28:18Z</time>
      </trkpt>
      <trkpt lat="43.97788" lon="3.08307">
        <ele>840.3295898</ele>
        <time>2013-08-09T07:28:22Z</time>
      </trkpt>
      <trkpt lat="43.97781" lon="3.08304">
        <ele>839.848877</ele>
        <time>2013-08-09T07:28:28Z</time>
      </trkpt>
      <trkpt lat="43.97778" lon="3.08312">
        <ele>838.8876953</ele>
        <time>2013-08-09T07:28:33Z</time>
      </trkpt>
      <trkpt lat="43.97777" lon="3.08316">
        <ele>838.4069824</ele>
        <time>2013-08-09T07:28:35Z</time>
      </trkpt>
      <trkpt lat="43.97772" lon="3.08328">
        <ele>836.484375</ele>
        <time>2013-08-09T07:28:42Z</time>
      </trkpt>
      <trkpt lat="43.97769" lon="3.08339">
        <ele>834.5617676</ele>
        <time>2013-08-09T07:28:49Z</time>
      </trkpt>
      <trkpt lat="43.97769" lon="3.08351">
        <ele>835.5229492</ele>
        <time>2013-08-09T07:28:56Z</time>
      </trkpt>
      <trkpt lat="43.97768" lon="3.08362">
        <ele>835.0424805</ele>
        <time>2013-08-09T07:29:03Z</time>
      </trkpt>
      <trkpt lat="43.97767" lon="3.0837">
        <ele>834.0810547</ele>
        <time>2013-08-09T07:29:07Z</time>
      </trkpt>
      <trkpt lat="43.97766" lon="3.08375">
        <ele>833.6003418</ele>
        <time>2013-08-09T07:29:10Z</time>
      </trkpt>
      <trkpt lat="43.97764" lon="3.08384">
        <ele>832.6391602</ele>
        <time>2013-08-09T07:29:17Z</time>
      </trkpt>
      <trkpt lat="43.97762" lon="3.08393">
        <ele>830.7165527</ele>
        <time>2013-08-09T07:29:24Z</time>
      </trkpt>
      <trkpt lat="43.97761" lon="3.08402">
        <ele>827.8322754</ele>
        <time>2013-08-09T07:29:30Z</time>
      </trkpt>
      <trkpt lat="43.97756" lon="3.08409">
        <ele>825.4289551</ele>
        <time>2013-08-09T07:29:36Z</time>
      </trkpt>
      <trkpt lat="43.97757" lon="3.08417">
        <ele>823.9870605</ele>
        <time>2013-08-09T07:29:42Z</time>
      </trkpt>
      <trkpt lat="43.97758" lon="3.0842">
        <ele>823.5065918</ele>
        <time>2013-08-09T07:29:44Z</time>
      </trkpt>
      <trkpt lat="43.97761" lon="3.08426">
        <ele>822.545166</ele>
        <time>2013-08-09T07:29:48Z</time>
      </trkpt>
      <trkpt lat="43.97761" lon="3.08443">
        <ele>819.661377</ele>
        <time>2013-08-09T07:29:57Z</time>
      </trkpt>
      <trkpt lat="43.97761" lon="3.08446">
        <ele>819.661377</ele>
        <time>2013-08-09T07:29:59Z</time>
      </trkpt>
      <trkpt lat="43.97756" lon="3.08449">
        <ele>819.1806641</ele>
        <time>2013-08-09T07:30:04Z</time>
      </trkpt>
      <trkpt lat="43.97751" lon="3.08444">
        <ele>819.661377</ele>
        <time>2013-08-09T07:30:09Z</time>
      </trkpt>
      <trkpt lat="43.97751" lon="3.08443">
        <ele>819.661377</ele>
        <time>2013-08-09T07:30:10Z</time>
      </trkpt>
      <trkpt lat="43.97749" lon="3.0844">
        <ele>819.661377</ele>
        <time>2013-08-09T07:30:12Z</time>
      </trkpt>
      <trkpt lat="43.97742" lon="3.0843">
        <ele>820.6225586</ele>
        <time>2013-08-09T07:30:19Z</time>
      </trkpt>
      <trkpt lat="43.97734" lon="3.08424">
        <ele>820.1418457</ele>
        <time>2013-08-09T07:30:25Z</time>
      </trkpt>
      <trkpt lat="43.97727" lon="3.0842">
        <ele>820.1418457</ele>
        <time>2013-08-09T07:30:30Z</time>
      </trkpt>
      <trkpt lat="43.9772" lon="3.08417">
        <ele>818.6999512</ele>
        <time>2013-08-09T07:30:36Z</time>
      </trkpt>
      <trkpt lat="43.97711" lon="3.0842">
        <ele>817.2580566</ele>
        <time>2013-08-09T07:30:43Z</time>
      </trkpt>
      <trkpt lat="43.977" lon="3.08427">
        <ele>815.3354492</ele>
        <time>2013-08-09T07:30:52Z</time>
      </trkpt>
      <trkpt lat="43.97696" lon="3.08437">
        <ele>814.8547363</ele>
        <time>2013-08-09T07:30:58Z</time>
      </trkpt>
      <trkpt lat="43.97696" lon="3.08445">
        <ele>814.8547363</ele>
        <time>2013-08-09T07:31:02Z</time>
      </trkpt>
      <trkpt lat="43.97699" lon="3.08464">
        <ele>814.8547363</ele>
        <time>2013-08-09T07:31:12Z</time>
      </trkpt>
      <trkpt lat="43.97704" lon="3.08479">
        <ele>815.3354492</ele>
        <time>2013-08-09T07:31:21Z</time>
      </trkpt>
      <trkpt lat="43.97709" lon="3.08493">
        <ele>814.8547363</ele>
        <time>2013-08-09T07:31:29Z</time>
      </trkpt>
      <trkpt lat="43.97714" lon="3.08508">
        <ele>814.3740234</ele>
        <time>2013-08-09T07:31:38Z</time>
      </trkpt>
      <trkpt lat="43.97719" lon="3.08525">
        <ele>815.3354492</ele>
        <time>2013-08-09T07:31:48Z</time>
      </trkpt>
      <trkpt lat="43.97717" lon="3.08533">
        <ele>814.8547363</ele>
        <time>2013-08-09T07:31:52Z</time>
      </trkpt>
      <trkpt lat="43.97711" lon="3.08544">
        <ele>812.9321289</ele>
        <time>2013-08-09T07:32:01Z</time>
      </trkpt>
      <trkpt lat="43.97706" lon="3.08555">
        <ele>810.0478516</ele>
        <time>2013-08-09T07:32:10Z</time>
      </trkpt>
      <trkpt lat="43.97699" lon="3.08564">
        <ele>808.1254883</ele>
        <time>2013-08-09T07:32:17Z</time>
      </trkpt>
      <trkpt lat="43.97693" lon="3.0858">
        <ele>809.5673828</ele>
        <time>2013-08-09T07:32:27Z</time>
      </trkpt>
      <trkpt lat="43.97691" lon="3.08593">
        <ele>810.0478516</ele>
        <time>2013-08-09T07:32:35Z</time>
      </trkpt>
      <trkpt lat="43.97692" lon="3.08607">
        <ele>809.5673828</ele>
        <time>2013-08-09T07:32:43Z</time>
      </trkpt>
      <trkpt lat="43.97692" lon="3.0862">
        <ele>807.6447754</ele>
        <time>2013-08-09T07:32:50Z</time>
      </trkpt>
      <trkpt lat="43.97691" lon="3.08638">
        <ele>808.1254883</ele>
        <time>2013-08-09T07:32:59Z</time>
      </trkpt>
      <trkpt lat="43.97691" lon="3.08655">
        <ele>808.605957</ele>
        <time>2013-08-09T07:33:08Z</time>
      </trkpt>
      <trkpt lat="43.97687" lon="3.08667">
        <ele>809.0866699</ele>
        <time>2013-08-09T07:33:16Z</time>
      </trkpt>
      <trkpt lat="43.97682" lon="3.08679">
        <ele>808.605957</ele>
        <time>2013-08-09T07:33:23Z</time>
      </trkpt>
      <trkpt lat="43.97674" lon="3.08691">
        <ele>809.0866699</ele>
        <time>2013-08-09T07:33:31Z</time>
      </trkpt>
      <trkpt lat="43.97666" lon="3.08698">
        <ele>809.5673828</ele>
        <time>2013-08-09T07:33:38Z</time>
      </trkpt>
      <trkpt lat="43.97655" lon="3.08702">
        <ele>810.0478516</ele>
        <time>2013-08-09T07:33:47Z</time>
      </trkpt>
      <trkpt lat="43.97643" lon="3.08707">
        <ele>810.5285645</ele>
        <time>2013-08-09T07:33:56Z</time>
      </trkpt>
      <trkpt lat="43.97631" lon="3.08713">
        <ele>811.0092773</ele>
        <time>2013-08-09T07:34:05Z</time>
      </trkpt>
      <trkpt lat="43.97619" lon="3.0871">
        <ele>812.451416</ele>
        <time>2013-08-09T07:34:14Z</time>
      </trkpt>
      <trkpt lat="43.97606" lon="3.08706">
        <ele>812.9321289</ele>
        <time>2013-08-09T07:34:24Z</time>
      </trkpt>
      <trkpt lat="43.97595" lon="3.08703">
        <ele>812.9321289</ele>
        <time>2013-08-09T07:34:33Z</time>
      </trkpt>
      <trkpt lat="43.97581" lon="3.08702">
        <ele>812.451416</ele>
        <time>2013-08-09T07:34:43Z</time>
      </trkpt>
      <trkpt lat="43.9757" lon="3.08696">
        <ele>812.451416</ele>
        <time>2013-08-09T07:34:51Z</time>
      </trkpt>
      <trkpt lat="43.97561" lon="3.08691">
        <ele>811.9707031</ele>
        <time>2013-08-09T07:34:58Z</time>
      </trkpt>
      <trkpt lat="43.97547" lon="3.08688">
        <ele>811.9707031</ele>
        <time>2013-08-09T07:35:08Z</time>
      </trkpt>
      <trkpt lat="43.97533" lon="3.08683">
        <ele>812.9321289</ele>
        <time>2013-08-09T07:35:18Z</time>
      </trkpt>
      <trkpt lat="43.97524" lon="3.08681">
        <ele>812.9321289</ele>
        <time>2013-08-09T07:35:25Z</time>
      </trkpt>
      <trkpt lat="43.97514" lon="3.08687">
        <ele>812.451416</ele>
        <time>2013-08-09T07:35:33Z</time>
      </trkpt>
      <trkpt lat="43.97513" lon="3.08689">
        <ele>812.451416</ele>
        <time>2013-08-09T07:35:34Z</time>
      </trkpt>
      <trkpt lat="43.97505" lon="3.08696">
        <ele>811.9707031</ele>
        <time>2013-08-09T07:35:41Z</time>
      </trkpt>
      <trkpt lat="43.97497" lon="3.08698">
        <ele>811.9707031</ele>
        <time>2013-08-09T07:35:47Z</time>
      </trkpt>
      <trkpt lat="43.97487" lon="3.08698">
        <ele>812.9321289</ele>
        <time>2013-08-09T07:35:54Z</time>
      </trkpt>
      <trkpt lat="43.97474" lon="3.08694">
        <ele>812.9321289</ele>
        <time>2013-08-09T07:36:03Z</time>
      </trkpt>
      <trkpt lat="43.97464" lon="3.08692">
        <ele>812.9321289</ele>
        <time>2013-08-09T07:36:10Z</time>
      </trkpt>
      <trkpt lat="43.97456" lon="3.08692">
        <ele>812.451416</ele>
        <time>2013-08-09T07:36:16Z</time>
      </trkpt>
      <trkpt lat="43.97442" lon="3.08689">
        <ele>812.9321289</ele>
        <time>2013-08-09T07:36:27Z</time>
      </trkpt>
      <trkpt lat="43.9744" lon="3.08694">
        <ele>813.4128418</ele>
        <time>2013-08-09T07:36:32Z</time>
      </trkpt>
      <trkpt lat="43.97447" lon="3.08707">
        <ele>813.8933105</ele>
        <time>2013-08-09T07:36:41Z</time>
      </trkpt>
      <trkpt lat="43.97452" lon="3.0872">
        <ele>813.8933105</ele>
        <time>2013-08-09T07:36:49Z</time>
      </trkpt>
      <trkpt lat="43.97457" lon="3.08734">
        <ele>814.3740234</ele>
        <time>2013-08-09T07:36:58Z</time>
      </trkpt>
      <trkpt lat="43.97463" lon="3.08744">
        <ele>814.8547363</ele>
        <time>2013-08-09T07:37:05Z</time>
      </trkpt>
      <trkpt lat="43.97469" lon="3.08755">
        <ele>815.3354492</ele>
        <time>2013-08-09T07:37:13Z</time>
      </trkpt>
      <trkpt lat="43.97476" lon="3.08767">
        <ele>815.8161621</ele>
        <time>2013-08-09T07:37:21Z</time>
      </trkpt>
      <trkpt lat="43.97481" lon="3.08781">
        <ele>816.2966309</ele>
        <time>2013-08-09T07:37:30Z</time>
      </trkpt>
      <trkpt lat="43.97483" lon="3.08799">
        <ele>816.7773438</ele>
        <time>2013-08-09T07:37:40Z</time>
      </trkpt>
      <trkpt lat="43.97482" lon="3.08811">
        <ele>816.7773438</ele>
        <time>2013-08-09T07:37:47Z</time>
      </trkpt>
      <trkpt lat="43.97481" lon="3.08827">
        <ele>816.7773438</ele>
        <time>2013-08-09T07:37:56Z</time>
      </trkpt>
      <trkpt lat="43.97481" lon="3.08844">
        <ele>816.7773438</ele>
        <time>2013-08-09T07:38:05Z</time>
      </trkpt>
      <trkpt lat="43.97481" lon="3.0886">
        <ele>815.8161621</ele>
        <time>2013-08-09T07:38:14Z</time>
      </trkpt>
      <trkpt lat="43.97481" lon="3.08875">
        <ele>815.8161621</ele>
        <time>2013-08-09T07:38:22Z</time>
      </trkpt>
      <trkpt lat="43.97481" lon="3.08889">
        <ele>816.2966309</ele>
        <time>2013-08-09T07:38:30Z</time>
      </trkpt>
      <trkpt lat="43.97479" lon="3.08899">
        <ele>816.2966309</ele>
        <time>2013-08-09T07:38:36Z</time>
      </trkpt>
      <trkpt lat="43.97479" lon="3.0891">
        <ele>816.2966309</ele>
        <time>2013-08-09T07:38:43Z</time>
      </trkpt>
      <trkpt lat="43.97478" lon="3.08923">
        <ele>816.7773438</ele>
        <time>2013-08-09T07:38:52Z</time>
      </trkpt>
      <trkpt lat="43.97478" lon="3.08926">
        <ele>817.2580566</ele>
        <time>2013-08-09T07:38:56Z</time>
      </trkpt>
      <trkpt lat="43.97477" lon="3.08936">
        <ele>816.7773438</ele>
        <time>2013-08-09T07:39:02Z</time>
      </trkpt>
      <trkpt lat="43.97474" lon="3.08949">
        <ele>817.7385254</ele>
        <time>2013-08-09T07:39:10Z</time>
      </trkpt>
      <trkpt lat="43.9747" lon="3.08964">
        <ele>819.1806641</ele>
        <time>2013-08-09T07:39:19Z</time>
      </trkpt>
      <trkpt lat="43.97473" lon="3.08978">
        <ele>819.661377</ele>
        <time>2013-08-09T07:39:27Z</time>
      </trkpt>
      <trkpt lat="43.9748" lon="3.08988">
        <ele>819.661377</ele>
        <time>2013-08-09T07:39:34Z</time>
      </trkpt>
      <trkpt lat="43.97491" lon="3.09003">
        <ele>819.1806641</ele>
        <time>2013-08-09T07:39:45Z</time>
      </trkpt>
      <trkpt lat="43.97501" lon="3.09017">
        <ele>819.1806641</ele>
        <time>2013-08-09T07:39:55Z</time>
      </trkpt>
      <trkpt lat="43.97509" lon="3.09028">
        <ele>819.1806641</ele>
        <time>2013-08-09T07:40:03Z</time>
      </trkpt>
      <trkpt lat="43.9752" lon="3.09042">
        <ele>819.1806641</ele>
        <time>2013-08-09T07:40:13Z</time>
      </trkpt>
      <trkpt lat="43.97527" lon="3.09055">
        <ele>819.661377</ele>
        <time>2013-08-09T07:40:21Z</time>
      </trkpt>
      <trkpt lat="43.97534" lon="3.09065">
        <ele>819.661377</ele>
        <time>2013-08-09T07:40:28Z</time>
      </trkpt>
      <trkpt lat="43.97542" lon="3.09076">
        <ele>819.661377</ele>
        <time>2013-08-09T07:40:36Z</time>
      </trkpt>
      <trkpt lat="43.97549" lon="3.09087">
        <ele>819.661377</ele>
        <time>2013-08-09T07:40:44Z</time>
      </trkpt>
      <trkpt lat="43.97557" lon="3.091">
        <ele>820.6225586</ele>
        <time>2013-08-09T07:40:53Z</time>
      </trkpt>
      <trkpt lat="43.97564" lon="3.09108">
        <ele>821.1032715</ele>
        <time>2013-08-09T07:41:00Z</time>
      </trkpt>
      <trkpt lat="43.97573" lon="3.09119">
        <ele>821.1032715</ele>
        <time>2013-08-09T07:41:09Z</time>
      </trkpt>
      <trkpt lat="43.97583" lon="3.09127">
        <ele>821.5837402</ele>
        <time>2013-08-09T07:41:18Z</time>
      </trkpt>
      <trkpt lat="43.97591" lon="3.09133">
        <ele>821.5837402</ele>
        <time>2013-08-09T07:41:25Z</time>
      </trkpt>
      <trkpt lat="43.97601" lon="3.09142">
        <ele>820.6225586</ele>
        <time>2013-08-09T07:41:34Z</time>
      </trkpt>
      <trkpt lat="43.9761" lon="3.09154">
        <ele>821.1032715</ele>
        <time>2013-08-09T07:41:43Z</time>
      </trkpt>
      <trkpt lat="43.97616" lon="3.09163">
        <ele>821.5837402</ele>
        <time>2013-08-09T07:41:50Z</time>
      </trkpt>
      <trkpt lat="43.97621" lon="3.09174">
        <ele>821.1032715</ele>
        <time>2013-08-09T07:41:57Z</time>
      </trkpt>
      <trkpt lat="43.97626" lon="3.09185">
        <ele>820.6225586</ele>
        <time>2013-08-09T07:42:05Z</time>
      </trkpt>
      <trkpt lat="43.9763" lon="3.09195">
        <ele>820.6225586</ele>
        <time>2013-08-09T07:42:11Z</time>
      </trkpt>
      <trkpt lat="43.97634" lon="3.09206">
        <ele>820.1418457</ele>
        <time>2013-08-09T07:42:18Z</time>
      </trkpt>
      <trkpt lat="43.97635" lon="3.09209">
        <ele>820.1418457</ele>
        <time>2013-08-09T07:42:20Z</time>
      </trkpt>
      <trkpt lat="43.97637" lon="3.09217">
        <ele>819.661377</ele>
        <time>2013-08-09T07:42:25Z</time>
      </trkpt>
      <trkpt lat="43.97642" lon="3.09229">
        <ele>820.1418457</ele>
        <time>2013-08-09T07:42:33Z</time>
      </trkpt>
      <trkpt lat="43.97651" lon="3.09242">
        <ele>819.661377</ele>
        <time>2013-08-09T07:42:43Z</time>
      </trkpt>
      <trkpt lat="43.97657" lon="3.0925">
        <ele>820.6225586</ele>
        <time>2013-08-09T07:42:50Z</time>
      </trkpt>
      <trkpt lat="43.97662" lon="3.09256">
        <ele>821.1032715</ele>
        <time>2013-08-09T07:42:56Z</time>
      </trkpt>
      <trkpt lat="43.97671" lon="3.09264">
        <ele>821.5837402</ele>
        <time>2013-08-09T07:43:04Z</time>
      </trkpt>
      <trkpt lat="43.97678" lon="3.09271">
        <ele>821.5837402</ele>
        <time>2013-08-09T07:43:11Z</time>
      </trkpt>
      <trkpt lat="43.97684" lon="3.09277">
        <ele>822.545166</ele>
        <time>2013-08-09T07:43:18Z</time>
      </trkpt>
      <trkpt lat="43.97694" lon="3.09275">
        <ele>823.0258789</ele>
        <time>2013-08-09T07:43:26Z</time>
      </trkpt>
      <trkpt lat="43.97703" lon="3.09275">
        <ele>823.5065918</ele>
        <time>2013-08-09T07:43:33Z</time>
      </trkpt>
      <trkpt lat="43.97706" lon="3.09276">
        <ele>823.5065918</ele>
        <time>2013-08-09T07:43:36Z</time>
      </trkpt>
      <trkpt lat="43.97712" lon="3.09279">
        <ele>823.5065918</ele>
        <time>2013-08-09T07:43:43Z</time>
      </trkpt>
      <trkpt lat="43.97719" lon="3.09282">
        <ele>823.9870605</ele>
        <time>2013-08-09T07:43:50Z</time>
      </trkpt>
      <trkpt lat="43.97722" lon="3.09285">
        <ele>824.4677734</ele>
        <time>2013-08-09T07:43:54Z</time>
      </trkpt>
      <trkpt lat="43.97723" lon="3.09285">
        <ele>824.4677734</ele>
        <time>2013-08-09T07:43:55Z</time>
      </trkpt>
      <trkpt lat="43.97728" lon="3.09292">
        <ele>825.909668</ele>
        <time>2013-08-09T07:44:01Z</time>
      </trkpt>
      <trkpt lat="43.97731" lon="3.09296">
        <ele>826.8710938</ele>
        <time>2013-08-09T07:44:05Z</time>
      </trkpt>
      <trkpt lat="43.97736" lon="3.09307">
        <ele>827.8322754</ele>
        <time>2013-08-09T07:44:13Z</time>
      </trkpt>
      <trkpt lat="43.97737" lon="3.09316">
        <ele>827.8322754</ele>
        <time>2013-08-09T07:44:19Z</time>
      </trkpt>
      <trkpt lat="43.97738" lon="3.0933">
        <ele>828.7939453</ele>
        <time>2013-08-09T07:44:27Z</time>
      </trkpt>
      <trkpt lat="43.97741" lon="3.09339">
        <ele>828.7939453</ele>
        <time>2013-08-09T07:44:33Z</time>
      </trkpt>
      <trkpt lat="43.97744" lon="3.09349">
        <ele>827.8322754</ele>
        <time>2013-08-09T07:44:40Z</time>
      </trkpt>
      <trkpt lat="43.97745" lon="3.09356">
        <ele>827.3518066</ele>
        <time>2013-08-09T07:44:44Z</time>
      </trkpt>
      <trkpt lat="43.97748" lon="3.0936">
        <ele>826.8710938</ele>
        <time>2013-08-09T07:44:48Z</time>
      </trkpt>
      <trkpt lat="43.97751" lon="3.0936">
        <ele>826.3903809</ele>
        <time>2013-08-09T07:44:51Z</time>
      </trkpt>
      <trkpt lat="43.97753" lon="3.09359">
        <ele>827.3518066</ele>
        <time>2013-08-09T07:44:53Z</time>
      </trkpt>
      <trkpt lat="43.9776" lon="3.09357">
        <ele>827.3518066</ele>
        <time>2013-08-09T07:44:58Z</time>
      </trkpt>
      <trkpt lat="43.97765" lon="3.0935">
        <ele>827.8322754</ele>
        <time>2013-08-09T07:45:04Z</time>
      </trkpt>
      <trkpt lat="43.97766" lon="3.09347">
        <ele>828.3132324</ele>
        <time>2013-08-09T07:45:06Z</time>
      </trkpt>
      <trkpt lat="43.97771" lon="3.09338">
        <ele>827.8322754</ele>
        <time>2013-08-09T07:45:12Z</time>
      </trkpt>
      <trkpt lat="43.97775" lon="3.09331">
        <ele>828.3132324</ele>
        <time>2013-08-09T07:45:17Z</time>
      </trkpt>
      <trkpt lat="43.9778" lon="3.09323">
        <ele>828.3132324</ele>
        <time>2013-08-09T07:45:23Z</time>
      </trkpt>
      <trkpt lat="43.97782" lon="3.0932">
        <ele>828.3132324</ele>
        <time>2013-08-09T07:45:26Z</time>
      </trkpt>
      <trkpt lat="43.9779" lon="3.09321">
        <ele>827.8322754</ele>
        <time>2013-08-09T07:45:32Z</time>
      </trkpt>
      <trkpt lat="43.97791" lon="3.09321">
        <ele>827.8322754</ele>
        <time>2013-08-09T07:45:33Z</time>
      </trkpt>
      <trkpt lat="43.97793" lon="3.09326">
        <ele>827.3518066</ele>
        <time>2013-08-09T07:45:40Z</time>
      </trkpt>
      <trkpt lat="43.97795" lon="3.09325">
        <ele>827.3518066</ele>
        <time>2013-08-09T07:45:44Z</time>
      </trkpt>
      <trkpt lat="43.97798" lon="3.09332">
        <ele>825.909668</ele>
        <time>2013-08-09T07:45:49Z</time>
      </trkpt>
      <trkpt lat="43.978" lon="3.09335">
        <ele>824.4677734</ele>
        <time>2013-08-09T07:45:51Z</time>
      </trkpt>
      <trkpt lat="43.97806" lon="3.09347">
        <ele>823.5065918</ele>
        <time>2013-08-09T07:45:58Z</time>
      </trkpt>
      <trkpt lat="43.97812" lon="3.09354">
        <ele>823.0258789</ele>
        <time>2013-08-09T07:46:03Z</time>
      </trkpt>
      <trkpt lat="43.97814" lon="3.09356">
        <ele>822.545166</ele>
        <time>2013-08-09T07:46:05Z</time>
      </trkpt>
      <trkpt lat="43.97817" lon="3.09359">
        <ele>820.6225586</ele>
        <time>2013-08-09T07:46:08Z</time>
      </trkpt>
      <trkpt lat="43.97822" lon="3.09362">
        <ele>819.661377</ele>
        <time>2013-08-09T07:46:13Z</time>
      </trkpt>
      <trkpt lat="43.97827" lon="3.09358">
        <ele>819.1806641</ele>
        <time>2013-08-09T07:46:19Z</time>
      </trkpt>
      <trkpt lat="43.97828" lon="3.09357">
        <ele>819.1806641</ele>
        <time>2013-08-09T07:46:20Z</time>
      </trkpt>
      <trkpt lat="43.9783" lon="3.09355">
        <ele>819.1806641</ele>
        <time>2013-08-09T07:46:22Z</time>
      </trkpt>
      <trkpt lat="43.97835" lon="3.09353">
        <ele>818.2192383</ele>
        <time>2013-08-09T07:46:26Z</time>
      </trkpt>
      <trkpt lat="43.9784" lon="3.09352">
        <ele>817.2580566</ele>
        <time>2013-08-09T07:46:30Z</time>
      </trkpt>
      <trkpt lat="43.97847" lon="3.09347">
        <ele>816.7773438</ele>
        <time>2013-08-09T07:46:36Z</time>
      </trkpt>
      <trkpt lat="43.97853" lon="3.09345">
        <ele>815.8161621</ele>
        <time>2013-08-09T07:46:42Z</time>
      </trkpt>
      <trkpt lat="43.97862" lon="3.09347">
        <ele>814.8547363</ele>
        <time>2013-08-09T07:46:49Z</time>
      </trkpt>
      <trkpt lat="43.97868" lon="3.09345">
        <ele>813.8933105</ele>
        <time>2013-08-09T07:46:54Z</time>
      </trkpt>
      <trkpt lat="43.97875" lon="3.09341">
        <ele>813.8933105</ele>
        <time>2013-08-09T07:47:01Z</time>
      </trkpt>
      <trkpt lat="43.97878" lon="3.09338">
        <ele>813.8933105</ele>
        <time>2013-08-09T07:47:04Z</time>
      </trkpt>
      <trkpt lat="43.97882" lon="3.09337">
        <ele>813.8933105</ele>
        <time>2013-08-09T07:47:08Z</time>
      </trkpt>
      <trkpt lat="43.97887" lon="3.0934">
        <ele>812.9321289</ele>
        <time>2013-08-09T07:47:14Z</time>
      </trkpt>
      <trkpt lat="43.97892" lon="3.09342">
        <ele>811.4899902</ele>
        <time>2013-08-09T07:47:20Z</time>
      </trkpt>
      <trkpt lat="43.97898" lon="3.09344">
        <ele>809.5673828</ele>
        <time>2013-08-09T07:47:25Z</time>
      </trkpt>
      <trkpt lat="43.979" lon="3.09345">
        <ele>808.605957</ele>
        <time>2013-08-09T07:47:28Z</time>
      </trkpt>
      <trkpt lat="43.97905" lon="3.09344">
        <ele>807.6447754</ele>
        <time>2013-08-09T07:47:32Z</time>
      </trkpt>
      <trkpt lat="43.97913" lon="3.09344">
        <ele>808.605957</ele>
        <time>2013-08-09T07:47:40Z</time>
      </trkpt>
      <trkpt lat="43.97915" lon="3.09342">
        <ele>810.5285645</ele>
        <time>2013-08-09T07:47:46Z</time>
      </trkpt>
      <trkpt lat="43.97918" lon="3.09342">
        <ele>811.0092773</ele>
        <time>2013-08-09T07:47:51Z</time>
      </trkpt>
      <trkpt lat="43.97921" lon="3.09343">
        <ele>811.9707031</ele>
        <time>2013-08-09T07:48:02Z</time>
      </trkpt>
      <trkpt lat="43.97926" lon="3.09346">
        <ele>811.9707031</ele>
        <time>2013-08-09T07:48:08Z</time>
      </trkpt>
      <trkpt lat="43.97929" lon="3.09348">
        <ele>811.0092773</ele>
        <time>2013-08-09T07:48:14Z</time>
      </trkpt>
      <trkpt lat="43.97932" lon="3.0935">
        <ele>810.5285645</ele>
        <time>2013-08-09T07:48:19Z</time>
      </trkpt>
      <trkpt lat="43.97934" lon="3.09351">
        <ele>810.0478516</ele>
        <time>2013-08-09T07:48:23Z</time>
      </trkpt>
      <trkpt lat="43.97938" lon="3.09361">
        <ele>809.0866699</ele>
        <time>2013-08-09T07:48:30Z</time>
      </trkpt>
      <trkpt lat="43.97938" lon="3.09368">
        <ele>808.605957</ele>
        <time>2013-08-09T07:48:34Z</time>
      </trkpt>
      <trkpt lat="43.97937" lon="3.09377">
        <ele>808.605957</ele>
        <time>2013-08-09T07:48:39Z</time>
      </trkpt>
      <trkpt lat="43.97936" lon="3.09392">
        <ele>808.605957</ele>
        <time>2013-08-09T07:48:48Z</time>
      </trkpt>
      <trkpt lat="43.97936" lon="3.09404">
        <ele>808.1254883</ele>
        <time>2013-08-09T07:48:55Z</time>
      </trkpt>
      <trkpt lat="43.97938" lon="3.09419">
        <ele>806.6833496</ele>
        <time>2013-08-09T07:49:03Z</time>
      </trkpt>
      <trkpt lat="43.97938" lon="3.09433">
        <ele>807.1640625</ele>
        <time>2013-08-09T07:49:11Z</time>
      </trkpt>
      <trkpt lat="43.97938" lon="3.09438">
        <ele>807.1640625</ele>
        <time>2013-08-09T07:49:14Z</time>
      </trkpt>
      <trkpt lat="43.97941" lon="3.09451">
        <ele>804.7607422</ele>
        <time>2013-08-09T07:49:22Z</time>
      </trkpt>
      <trkpt lat="43.97942" lon="3.09466">
        <ele>803.3188477</ele>
        <time>2013-08-09T07:49:31Z</time>
      </trkpt>
      <trkpt lat="43.97941" lon="3.09481">
        <ele>802.8381348</ele>
        <time>2013-08-09T07:49:39Z</time>
      </trkpt>
      <trkpt lat="43.97941" lon="3.09483">
        <ele>802.3574219</ele>
        <time>2013-08-09T07:49:40Z</time>
      </trkpt>
      <trkpt lat="43.97946" lon="3.09495">
        <ele>800.4350586</ele>
        <time>2013-08-09T07:49:47Z</time>
      </trkpt>
      <trkpt lat="43.97953" lon="3.09497">
        <ele>799.4736328</ele>
        <time>2013-08-09T07:49:53Z</time>
      </trkpt>
      <trkpt lat="43.97959" lon="3.09503">
        <ele>798.0317383</ele>
        <time>2013-08-09T07:49:59Z</time>
      </trkpt>
      <trkpt lat="43.9796" lon="3.09508">
        <ele>796.5898438</ele>
        <time>2013-08-09T07:50:02Z</time>
      </trkpt>
      <trkpt lat="43.97963" lon="3.09523">
        <ele>792.2636719</ele>
        <time>2013-08-09T07:50:10Z</time>
      </trkpt>
      <trkpt lat="43.97963" lon="3.09536">
        <ele>788.8991699</ele>
        <time>2013-08-09T07:50:16Z</time>
      </trkpt>
      <trkpt lat="43.97964" lon="3.09544">
        <ele>786.4958496</ele>
        <time>2013-08-09T07:50:21Z</time>
      </trkpt>
      <trkpt lat="43.97963" lon="3.09546">
        <ele>786.0151367</ele>
        <time>2013-08-09T07:50:22Z</time>
      </trkpt>
      <trkpt lat="43.97967" lon="3.09555">
        <ele>784.5732422</ele>
        <time>2013-08-09T07:50:29Z</time>
      </trkpt>
      <trkpt lat="43.97968" lon="3.09555">
        <ele>784.5732422</ele>
        <time>2013-08-09T07:50:30Z</time>
      </trkpt>
      <trkpt lat="43.97978" lon="3.09555">
        <ele>784.0925293</ele>
        <time>2013-08-09T07:50:37Z</time>
      </trkpt>
      <trkpt lat="43.97985" lon="3.09556">
        <ele>783.6118164</ele>
        <time>2013-08-09T07:50:42Z</time>
      </trkpt>
      <trkpt lat="43.97995" lon="3.09556">
        <ele>783.1311035</ele>
        <time>2013-08-09T07:50:49Z</time>
      </trkpt>
      <trkpt lat="43.98004" lon="3.09557">
        <ele>782.1699219</ele>
        <time>2013-08-09T07:50:55Z</time>
      </trkpt>
      <trkpt lat="43.98007" lon="3.09557">
        <ele>782.1699219</ele>
        <time>2013-08-09T07:50:57Z</time>
      </trkpt>
      <trkpt lat="43.98016" lon="3.09556">
        <ele>781.689209</ele>
        <time>2013-08-09T07:51:04Z</time>
      </trkpt>
      <trkpt lat="43.98023" lon="3.09556">
        <ele>781.689209</ele>
        <time>2013-08-09T07:51:09Z</time>
      </trkpt>
      <trkpt lat="43.98033" lon="3.09557">
        <ele>779.7663574</ele>
        <time>2013-08-09T07:51:16Z</time>
      </trkpt>
      <trkpt lat="43.98039" lon="3.09559">
        <ele>777.3632813</ele>
        <time>2013-08-09T07:51:21Z</time>
      </trkpt>
      <trkpt lat="43.9804" lon="3.09559">
        <ele>777.3632813</ele>
        <time>2013-08-09T07:51:22Z</time>
      </trkpt>
      <trkpt lat="43.98047" lon="3.09561">
        <ele>774.9599609</ele>
        <time>2013-08-09T07:51:27Z</time>
      </trkpt>
      <trkpt lat="43.9805" lon="3.09562">
        <ele>774.9599609</ele>
        <time>2013-08-09T07:51:29Z</time>
      </trkpt>
      <trkpt lat="43.9806" lon="3.09565">
        <ele>774.479248</ele>
        <time>2013-08-09T07:51:36Z</time>
      </trkpt>
      <trkpt lat="43.98065" lon="3.09567">
        <ele>773.5180664</ele>
        <time>2013-08-09T07:51:39Z</time>
      </trkpt>
      <trkpt lat="43.98071" lon="3.09568">
        <ele>773.9985352</ele>
        <time>2013-08-09T07:51:43Z</time>
      </trkpt>
      <trkpt lat="43.98085" lon="3.09573">
        <ele>773.0373535</ele>
        <time>2013-08-09T07:51:52Z</time>
      </trkpt>
      <trkpt lat="43.98096" lon="3.09576">
        <ele>770.6340332</ele>
        <time>2013-08-09T07:52:00Z</time>
      </trkpt>
      <trkpt lat="43.98108" lon="3.0958">
        <ele>768.2307129</ele>
        <time>2013-08-09T07:52:09Z</time>
      </trkpt>
      <trkpt lat="43.98116" lon="3.09582">
        <ele>766.3081055</ele>
        <time>2013-08-09T07:52:16Z</time>
      </trkpt>
      <trkpt lat="43.98123" lon="3.09581">
        <ele>765.8276367</ele>
        <time>2013-08-09T07:52:21Z</time>
      </trkpt>
      <trkpt lat="43.98132" lon="3.0958">
        <ele>763.4240723</ele>
        <time>2013-08-09T07:52:28Z</time>
      </trkpt>
      <trkpt lat="43.98142" lon="3.0958">
        <ele>761.9821777</ele>
        <time>2013-08-09T07:52:35Z</time>
      </trkpt>
      <trkpt lat="43.98144" lon="3.0958">
        <ele>761.9821777</ele>
        <time>2013-08-09T07:52:36Z</time>
      </trkpt>
      <trkpt lat="43.98153" lon="3.09581">
        <ele>761.5014648</ele>
        <time>2013-08-09T07:52:44Z</time>
      </trkpt>
      <trkpt lat="43.98162" lon="3.09582">
        <ele>761.5014648</ele>
        <time>2013-08-09T07:52:50Z</time>
      </trkpt>
      <trkpt lat="43.98163" lon="3.09584">
        <ele>761.5014648</ele>
        <time>2013-08-09T07:52:52Z</time>
      </trkpt>
      <trkpt lat="43.9817" lon="3.09586">
        <ele>759.0981445</ele>
        <time>2013-08-09T07:52:57Z</time>
      </trkpt>
      <trkpt lat="43.98181" lon="3.09586">
        <ele>754.7722168</ele>
        <time>2013-08-09T07:53:05Z</time>
      </trkpt>
      <trkpt lat="43.98182" lon="3.09586">
        <ele>754.291748</ele>
        <time>2013-08-09T07:53:06Z</time>
      </trkpt>
      <trkpt lat="43.98189" lon="3.09586">
        <ele>752.3688965</ele>
        <time>2013-08-09T07:53:12Z</time>
      </trkpt>
      <trkpt lat="43.98196" lon="3.09587">
        <ele>752.3688965</ele>
        <time>2013-08-09T07:53:18Z</time>
      </trkpt>
      <trkpt lat="43.98203" lon="3.09584">
        <ele>751.4077148</ele>
        <time>2013-08-09T07:53:23Z</time>
      </trkpt>
      <trkpt lat="43.98205" lon="3.09578">
        <ele>752.3688965</ele>
        <time>2013-08-09T07:53:26Z</time>
      </trkpt>
      <trkpt lat="43.98206" lon="3.09563">
        <ele>749.9658203</ele>
        <time>2013-08-09T07:53:34Z</time>
      </trkpt>
      <trkpt lat="43.98206" lon="3.09548">
        <ele>749.9658203</ele>
        <time>2013-08-09T07:53:41Z</time>
      </trkpt>
      <trkpt lat="43.98206" lon="3.09535">
        <ele>749.9658203</ele>
        <time>2013-08-09T07:53:49Z</time>
      </trkpt>
      <trkpt lat="43.98204" lon="3.09519">
        <ele>750.927002</ele>
        <time>2013-08-09T07:53:57Z</time>
      </trkpt>
      <trkpt lat="43.98203" lon="3.0951">
        <ele>750.927002</ele>
        <time>2013-08-09T07:54:01Z</time>
      </trkpt>
      <trkpt lat="43.98201" lon="3.09497">
        <ele>751.8884277</ele>
        <time>2013-08-09T07:54:07Z</time>
      </trkpt>
      <trkpt lat="43.982" lon="3.09495">
        <ele>751.8884277</ele>
        <time>2013-08-09T07:54:08Z</time>
      </trkpt>
      <trkpt lat="43.98199" lon="3.09484">
        <ele>749.4851074</ele>
        <time>2013-08-09T07:54:15Z</time>
      </trkpt>
      <trkpt lat="43.98198" lon="3.09473">
        <ele>749.0043945</ele>
        <time>2013-08-09T07:54:21Z</time>
      </trkpt>
      <trkpt lat="43.98195" lon="3.09461">
        <ele>748.5236816</ele>
        <time>2013-08-09T07:54:28Z</time>
      </trkpt>
      <trkpt lat="43.98193" lon="3.09448">
        <ele>749.4851074</ele>
        <time>2013-08-09T07:54:35Z</time>
      </trkpt>
      <trkpt lat="43.98193" lon="3.09435">
        <ele>751.4077148</ele>
        <time>2013-08-09T07:54:42Z</time>
      </trkpt>
      <trkpt lat="43.98196" lon="3.09425">
        <ele>749.9658203</ele>
        <time>2013-08-09T07:54:47Z</time>
      </trkpt>
      <trkpt lat="43.98198" lon="3.09423">
        <ele>749.4851074</ele>
        <time>2013-08-09T07:54:49Z</time>
      </trkpt>
      <trkpt lat="43.98204" lon="3.09408">
        <ele>749.9658203</ele>
        <time>2013-08-09T07:54:58Z</time>
      </trkpt>
      <trkpt lat="43.98208" lon="3.09404">
        <ele>747.5622559</ele>
        <time>2013-08-09T07:55:03Z</time>
      </trkpt>
      <trkpt lat="43.98211" lon="3.09403">
        <ele>746.6010742</ele>
        <time>2013-08-09T07:55:06Z</time>
      </trkpt>
      <trkpt lat="43.98217" lon="3.09399">
        <ele>742.2751465</ele>
        <time>2013-08-09T07:55:13Z</time>
      </trkpt>
      <trkpt lat="43.98224" lon="3.09399">
        <ele>739.3911133</ele>
        <time>2013-08-09T07:55:18Z</time>
      </trkpt>
      <trkpt lat="43.9823" lon="3.09402">
        <ele>735.5458984</ele>
        <time>2013-08-09T07:55:23Z</time>
      </trkpt>
      <trkpt lat="43.98232" lon="3.09408">
        <ele>733.623291</ele>
        <time>2013-08-09T07:55:28Z</time>
      </trkpt>
      <trkpt lat="43.98233" lon="3.09414">
        <ele>732.1813965</ele>
        <time>2013-08-09T07:55:32Z</time>
      </trkpt>
      <trkpt lat="43.98233" lon="3.0942">
        <ele>731.7004395</ele>
        <time>2013-08-09T07:55:35Z</time>
      </trkpt>
      <trkpt lat="43.98235" lon="3.09432">
        <ele>730.7392578</ele>
        <time>2013-08-09T07:55:41Z</time>
      </trkpt>
      <trkpt lat="43.98237" lon="3.09438">
        <ele>729.777832</ele>
        <time>2013-08-09T07:55:44Z</time>
      </trkpt>
      <trkpt lat="43.98242" lon="3.09449">
        <ele>727.8552246</ele>
        <time>2013-08-09T07:55:50Z</time>
      </trkpt>
      <trkpt lat="43.98247" lon="3.09457">
        <ele>725.4519043</ele>
        <time>2013-08-09T07:55:55Z</time>
      </trkpt>
      <trkpt lat="43.98255" lon="3.09465">
        <ele>725.4519043</ele>
        <time>2013-08-09T07:56:02Z</time>
      </trkpt>
      <trkpt lat="43.98256" lon="3.09473">
        <ele>724.4907227</ele>
        <time>2013-08-09T07:56:07Z</time>
      </trkpt>
      <trkpt lat="43.98255" lon="3.09484">
        <ele>725.9326172</ele>
        <time>2013-08-09T07:56:13Z</time>
      </trkpt>
      <trkpt lat="43.98254" lon="3.09493">
        <ele>726.4133301</ele>
        <time>2013-08-09T07:56:17Z</time>
      </trkpt>
      <trkpt lat="43.98252" lon="3.09501">
        <ele>727.8552246</ele>
        <time>2013-08-09T07:56:21Z</time>
      </trkpt>
      <trkpt lat="43.98251" lon="3.09504">
        <ele>728.8166504</ele>
        <time>2013-08-09T07:56:23Z</time>
      </trkpt>
      <trkpt lat="43.98249" lon="3.09509">
        <ele>728.8166504</ele>
        <time>2013-08-09T07:56:27Z</time>
      </trkpt>
      <trkpt lat="43.98249" lon="3.09522">
        <ele>728.8166504</ele>
        <time>2013-08-09T07:56:35Z</time>
      </trkpt>
      <trkpt lat="43.98249" lon="3.09525">
        <ele>724.9714355</ele>
        <time>2013-08-09T07:56:43Z</time>
      </trkpt>
      <trkpt lat="43.98249" lon="3.09526">
        <ele>721.6066895</ele>
        <time>2013-08-09T07:56:52Z</time>
      </trkpt>
      <trkpt lat="43.9825" lon="3.09532">
        <ele>729.777832</ele>
        <time>2013-08-09T07:57:08Z</time>
      </trkpt>
      <trkpt lat="43.98252" lon="3.09539">
        <ele>730.7392578</ele>
        <time>2013-08-09T07:57:13Z</time>
      </trkpt>
      <trkpt lat="43.98258" lon="3.09549">
        <ele>730.2585449</ele>
        <time>2013-08-09T07:57:21Z</time>
      </trkpt>
      <trkpt lat="43.98262" lon="3.09554">
        <ele>730.2585449</ele>
        <time>2013-08-09T07:57:25Z</time>
      </trkpt>
      <trkpt lat="43.98265" lon="3.09561">
        <ele>728.3359375</ele>
        <time>2013-08-09T07:57:29Z</time>
      </trkpt>
      <trkpt lat="43.9827" lon="3.09569">
        <ele>727.3747559</ele>
        <time>2013-08-09T07:57:36Z</time>
      </trkpt>
      <trkpt lat="43.98274" lon="3.09572">
        <ele>726.4133301</ele>
        <time>2013-08-09T07:57:39Z</time>
      </trkpt>
      <trkpt lat="43.98279" lon="3.09578">
        <ele>725.4519043</ele>
        <time>2013-08-09T07:57:43Z</time>
      </trkpt>
      <trkpt lat="43.98282" lon="3.09584">
        <ele>724.0100098</ele>
        <time>2013-08-09T07:57:47Z</time>
      </trkpt>
      <trkpt lat="43.98285" lon="3.09597">
        <ele>724.0100098</ele>
        <time>2013-08-09T07:57:54Z</time>
      </trkpt>
      <trkpt lat="43.98288" lon="3.09606">
        <ele>723.529541</ele>
        <time>2013-08-09T07:57:59Z</time>
      </trkpt>
      <trkpt lat="43.9829" lon="3.09617">
        <ele>722.0874023</ele>
        <time>2013-08-09T07:58:05Z</time>
      </trkpt>
      <trkpt lat="43.98295" lon="3.09629">
        <ele>720.6455078</ele>
        <time>2013-08-09T07:58:12Z</time>
      </trkpt>
      <trkpt lat="43.98295" lon="3.0964">
        <ele>720.1647949</ele>
        <time>2013-08-09T07:58:18Z</time>
      </trkpt>
      <trkpt lat="43.98297" lon="3.09654">
        <ele>719.6843262</ele>
        <time>2013-08-09T07:58:25Z</time>
      </trkpt>
      <trkpt lat="43.98297" lon="3.09667">
        <ele>719.2036133</ele>
        <time>2013-08-09T07:58:32Z</time>
      </trkpt>
      <trkpt lat="43.98301" lon="3.09677">
        <ele>718.2421875</ele>
        <time>2013-08-09T07:58:39Z</time>
      </trkpt>
      <trkpt lat="43.98307" lon="3.09684">
        <ele>716.3195801</ele>
        <time>2013-08-09T07:58:45Z</time>
      </trkpt>
      <trkpt lat="43.98312" lon="3.09688">
        <ele>714.8774414</ele>
        <time>2013-08-09T07:58:49Z</time>
      </trkpt>
      <trkpt lat="43.98315" lon="3.09691">
        <ele>713.9160156</ele>
        <time>2013-08-09T07:58:52Z</time>
      </trkpt>
      <trkpt lat="43.98321" lon="3.09697">
        <ele>711.0322266</ele>
        <time>2013-08-09T07:58:58Z</time>
      </trkpt>
      <trkpt lat="43.98326" lon="3.09698">
        <ele>710.0708008</ele>
        <time>2013-08-09T07:59:02Z</time>
      </trkpt>
      <trkpt lat="43.98333" lon="3.09698">
        <ele>707.6677246</ele>
        <time>2013-08-09T07:59:08Z</time>
      </trkpt>
      <trkpt lat="43.9834" lon="3.09697">
        <ele>707.1870117</ele>
        <time>2013-08-09T07:59:13Z</time>
      </trkpt>
      <trkpt lat="43.98343" lon="3.09695">
        <ele>707.1870117</ele>
        <time>2013-08-09T07:59:16Z</time>
      </trkpt>
      <trkpt lat="43.98349" lon="3.0969">
        <ele>704.7836914</ele>
        <time>2013-08-09T07:59:22Z</time>
      </trkpt>
      <trkpt lat="43.98353" lon="3.09688">
        <ele>704.7836914</ele>
        <time>2013-08-09T07:59:25Z</time>
      </trkpt>
      <trkpt lat="43.98356" lon="3.09686">
        <ele>703.8225098</ele>
        <time>2013-08-09T07:59:28Z</time>
      </trkpt>
      <trkpt lat="43.98365" lon="3.09681">
        <ele>701.8999023</ele>
        <time>2013-08-09T07:59:36Z</time>
      </trkpt>
      <trkpt lat="43.98365" lon="3.0968">
        <ele>701.4191895</ele>
        <time>2013-08-09T07:59:37Z</time>
      </trkpt>
      <trkpt lat="43.98372" lon="3.09675">
        <ele>701.4191895</ele>
        <time>2013-08-09T07:59:43Z</time>
      </trkpt>
      <trkpt lat="43.9838" lon="3.09669">
        <ele>700.9384766</ele>
        <time>2013-08-09T07:59:50Z</time>
      </trkpt>
      <trkpt lat="43.98383" lon="3.09668">
        <ele>699.9770508</ele>
        <time>2013-08-09T07:59:52Z</time>
      </trkpt>
      <trkpt lat="43.98388" lon="3.09662">
        <ele>697.5737305</ele>
        <time>2013-08-09T07:59:57Z</time>
      </trkpt>
      <trkpt lat="43.98394" lon="3.0965">
        <ele>696.1318359</ele>
        <time>2013-08-09T08:00:04Z</time>
      </trkpt>
      <trkpt lat="43.98398" lon="3.09645">
        <ele>694.2092285</ele>
        <time>2013-08-09T08:00:09Z</time>
      </trkpt>
      <trkpt lat="43.98405" lon="3.09643">
        <ele>691.8059082</ele>
        <time>2013-08-09T08:00:15Z</time>
      </trkpt>
      <trkpt lat="43.98407" lon="3.09643">
        <ele>691.8059082</ele>
        <time>2013-08-09T08:00:17Z</time>
      </trkpt>
      <trkpt lat="43.98407" lon="3.09633">
        <ele>692.2866211</ele>
        <time>2013-08-09T08:00:23Z</time>
      </trkpt>
      <trkpt lat="43.98404" lon="3.09626">
        <ele>693.2478027</ele>
        <time>2013-08-09T08:00:27Z</time>
      </trkpt>
      <trkpt lat="43.98402" lon="3.09615">
        <ele>694.6896973</ele>
        <time>2013-08-09T08:00:35Z</time>
      </trkpt>
      <trkpt lat="43.98398" lon="3.09605">
        <ele>697.0930176</ele>
        <time>2013-08-09T08:00:42Z</time>
      </trkpt>
      <trkpt lat="43.98396" lon="3.09598">
        <ele>698.0544434</ele>
        <time>2013-08-09T08:00:47Z</time>
      </trkpt>
      <trkpt lat="43.98394" lon="3.09589">
        <ele>698.5349121</ele>
        <time>2013-08-09T08:00:52Z</time>
      </trkpt>
      <trkpt lat="43.98389" lon="3.09582">
        <ele>699.4963379</ele>
        <time>2013-08-09T08:00:58Z</time>
      </trkpt>
      <trkpt lat="43.98383" lon="3.09573">
        <ele>700.9384766</ele>
        <time>2013-08-09T08:01:05Z</time>
      </trkpt>
      <trkpt lat="43.9838" lon="3.0956">
        <ele>702.3803711</ele>
        <time>2013-08-09T08:01:13Z</time>
      </trkpt>
      <trkpt lat="43.98378" lon="3.09548">
        <ele>706.2255859</ele>
        <time>2013-08-09T08:01:19Z</time>
      </trkpt>
      <trkpt lat="43.98377" lon="3.09543">
        <ele>707.1870117</ele>
        <time>2013-08-09T08:01:21Z</time>
      </trkpt>
      <trkpt lat="43.98379" lon="3.09526">
        <ele>709.590332</ele>
        <time>2013-08-09T08:01:30Z</time>
      </trkpt>
      <trkpt lat="43.9838" lon="3.09513">
        <ele>709.590332</ele>
        <time>2013-08-09T08:01:37Z</time>
      </trkpt>
      <trkpt lat="43.98381" lon="3.0951">
        <ele>709.590332</ele>
        <time>2013-08-09T08:01:39Z</time>
      </trkpt>
      <trkpt lat="43.98382" lon="3.09496">
        <ele>707.1870117</ele>
        <time>2013-08-09T08:01:47Z</time>
      </trkpt>
      <trkpt lat="43.98382" lon="3.09489">
        <ele>708.1484375</ele>
        <time>2013-08-09T08:01:51Z</time>
      </trkpt>
      <trkpt lat="43.98382" lon="3.09482">
        <ele>707.1870117</ele>
        <time>2013-08-09T08:01:55Z</time>
      </trkpt>
      <trkpt lat="43.98379" lon="3.09471">
        <ele>707.6677246</ele>
        <time>2013-08-09T08:02:01Z</time>
      </trkpt>
      <trkpt lat="43.98376" lon="3.09459">
        <ele>705.7451172</ele>
        <time>2013-08-09T08:02:09Z</time>
      </trkpt>
      <trkpt lat="43.98377" lon="3.09456">
        <ele>705.2644043</ele>
        <time>2013-08-09T08:02:11Z</time>
      </trkpt>
      <trkpt lat="43.9838" lon="3.09445">
        <ele>705.7451172</ele>
        <time>2013-08-09T08:02:17Z</time>
      </trkpt>
      <trkpt lat="43.98383" lon="3.09434">
        <ele>705.2644043</ele>
        <time>2013-08-09T08:02:24Z</time>
      </trkpt>
      <trkpt lat="43.98382" lon="3.0943">
        <ele>705.2644043</ele>
        <time>2013-08-09T08:02:26Z</time>
      </trkpt>
      <trkpt lat="43.98381" lon="3.09425">
        <ele>704.7836914</ele>
        <time>2013-08-09T08:02:30Z</time>
      </trkpt>
      <trkpt lat="43.98381" lon="3.09419">
        <ele>704.3032227</ele>
        <time>2013-08-09T08:02:34Z</time>
      </trkpt>
      <trkpt lat="43.98383" lon="3.09405">
        <ele>705.7451172</ele>
        <time>2013-08-09T08:02:42Z</time>
      </trkpt>
      <trkpt lat="43.98388" lon="3.09393">
        <ele>705.7451172</ele>
        <time>2013-08-09T08:02:50Z</time>
      </trkpt>
      <trkpt lat="43.98389" lon="3.09379">
        <ele>707.6677246</ele>
        <time>2013-08-09T08:02:56Z</time>
      </trkpt>
      <trkpt lat="43.98389" lon="3.09376">
        <ele>707.6677246</ele>
        <time>2013-08-09T08:02:58Z</time>
      </trkpt>
      <trkpt lat="43.98387" lon="3.09373">
        <ele>708.1484375</ele>
        <time>2013-08-09T08:03:00Z</time>
      </trkpt>
      <trkpt lat="43.98382" lon="3.09364">
        <ele>708.1484375</ele>
        <time>2013-08-09T08:03:09Z</time>
      </trkpt>
      <trkpt lat="43.98383" lon="3.09362">
        <ele>708.1484375</ele>
        <time>2013-08-09T08:03:11Z</time>
      </trkpt>
      <trkpt lat="43.98385" lon="3.09357">
        <ele>709.590332</ele>
        <time>2013-08-09T08:03:14Z</time>
      </trkpt>
      <trkpt lat="43.98386" lon="3.09354">
        <ele>709.590332</ele>
        <time>2013-08-09T08:03:16Z</time>
      </trkpt>
      <trkpt lat="43.98393" lon="3.09345">
        <ele>706.2255859</ele>
        <time>2013-08-09T08:03:23Z</time>
      </trkpt>
      <trkpt lat="43.98397" lon="3.09338">
        <ele>705.7451172</ele>
        <time>2013-08-09T08:03:28Z</time>
      </trkpt>
      <trkpt lat="43.98399" lon="3.09332">
        <ele>704.7836914</ele>
        <time>2013-08-09T08:03:32Z</time>
      </trkpt>
      <trkpt lat="43.98401" lon="3.09329">
        <ele>704.7836914</ele>
        <time>2013-08-09T08:03:34Z</time>
      </trkpt>
      <trkpt lat="43.98403" lon="3.09326">
        <ele>703.8225098</ele>
        <time>2013-08-09T08:03:37Z</time>
      </trkpt>
      <trkpt lat="43.9841" lon="3.09323">
        <ele>701.4191895</ele>
        <time>2013-08-09T08:03:44Z</time>
      </trkpt>
      <trkpt lat="43.98418" lon="3.09319">
        <ele>699.015625</ele>
        <time>2013-08-09T08:03:52Z</time>
      </trkpt>
      <trkpt lat="43.98424" lon="3.09318">
        <ele>696.6125488</ele>
        <time>2013-08-09T08:03:57Z</time>
      </trkpt>
      <trkpt lat="43.98426" lon="3.09317">
        <ele>695.651123</ele>
        <time>2013-08-09T08:04:00Z</time>
      </trkpt>
      <trkpt lat="43.98436" lon="3.09317">
        <ele>693.7285156</ele>
        <time>2013-08-09T08:04:07Z</time>
      </trkpt>
      <trkpt lat="43.98437" lon="3.09317">
        <ele>693.2478027</ele>
        <time>2013-08-09T08:04:08Z</time>
      </trkpt>
      <trkpt lat="43.98447" lon="3.09315">
        <ele>690.8444824</ele>
        <time>2013-08-09T08:04:16Z</time>
      </trkpt>
      <trkpt lat="43.98451" lon="3.09316">
        <ele>690.3640137</ele>
        <time>2013-08-09T08:04:19Z</time>
      </trkpt>
      <trkpt lat="43.98456" lon="3.09314">
        <ele>689.4025879</ele>
        <time>2013-08-09T08:04:23Z</time>
      </trkpt>
      <trkpt lat="43.98463" lon="3.09314">
        <ele>688.4414063</ele>
        <time>2013-08-09T08:04:29Z</time>
      </trkpt>
      <trkpt lat="43.98464" lon="3.09317">
        <ele>687.4799805</ele>
        <time>2013-08-09T08:04:31Z</time>
      </trkpt>
      <trkpt lat="43.98469" lon="3.09324">
        <ele>685.0769043</ele>
        <time>2013-08-09T08:04:38Z</time>
      </trkpt>
      <trkpt lat="43.98473" lon="3.09333">
        <ele>684.1154785</ele>
        <time>2013-08-09T08:04:44Z</time>
      </trkpt>
      <trkpt lat="43.98479" lon="3.0933">
        <ele>683.1538086</ele>
        <time>2013-08-09T08:04:49Z</time>
      </trkpt>
      <trkpt lat="43.98484" lon="3.09322">
        <ele>682.192627</ele>
        <time>2013-08-09T08:04:54Z</time>
      </trkpt>
      <trkpt lat="43.98488" lon="3.09315">
        <ele>682.192627</ele>
        <time>2013-08-09T08:05:01Z</time>
      </trkpt>
      <trkpt lat="43.98489" lon="3.09314">
        <ele>681.7119141</ele>
        <time>2013-08-09T08:05:02Z</time>
      </trkpt>
      <trkpt lat="43.98494" lon="3.09312">
        <ele>680.7507324</ele>
        <time>2013-08-09T08:05:08Z</time>
      </trkpt>
      <trkpt lat="43.98499" lon="3.09319">
        <ele>677.8666992</ele>
        <time>2013-08-09T08:05:14Z</time>
      </trkpt>
      <trkpt lat="43.98503" lon="3.09323">
        <ele>676.4248047</ele>
        <time>2013-08-09T08:05:18Z</time>
      </trkpt>
      <trkpt lat="43.98507" lon="3.09327">
        <ele>675.4633789</ele>
        <time>2013-08-09T08:05:22Z</time>
      </trkpt>
      <trkpt lat="43.98508" lon="3.09327">
        <ele>674.9829102</ele>
        <time>2013-08-09T08:05:23Z</time>
      </trkpt>
      <trkpt lat="43.98513" lon="3.09328">
        <ele>674.0214844</ele>
        <time>2013-08-09T08:05:28Z</time>
      </trkpt>
      <trkpt lat="43.98517" lon="3.09324">
        <ele>672.098877</ele>
        <time>2013-08-09T08:05:34Z</time>
      </trkpt>
      <trkpt lat="43.98525" lon="3.09321">
        <ele>672.098877</ele>
        <time>2013-08-09T08:05:43Z</time>
      </trkpt>
      <trkpt lat="43.98526" lon="3.09322">
        <ele>671.6181641</ele>
        <time>2013-08-09T08:05:44Z</time>
      </trkpt>
      <trkpt lat="43.98531" lon="3.09329">
        <ele>668.734375</ele>
        <time>2013-08-09T08:05:51Z</time>
      </trkpt>
      <trkpt lat="43.98533" lon="3.09332">
        <ele>666.8115234</ele>
        <time>2013-08-09T08:05:54Z</time>
      </trkpt>
      <trkpt lat="43.98539" lon="3.09331">
        <ele>664.4082031</ele>
        <time>2013-08-09T08:06:01Z</time>
      </trkpt>
      <trkpt lat="43.98541" lon="3.09333">
        <ele>662.9663086</ele>
        <time>2013-08-09T08:06:04Z</time>
      </trkpt>
      <trkpt lat="43.98545" lon="3.09334">
        <ele>661.0437012</ele>
        <time>2013-08-09T08:06:09Z</time>
      </trkpt>
      <trkpt lat="43.9855" lon="3.09328">
        <ele>659.6018066</ele>
        <time>2013-08-09T08:06:16Z</time>
      </trkpt>
      <trkpt lat="43.98556" lon="3.09327">
        <ele>658.6403809</ele>
        <time>2013-08-09T08:06:21Z</time>
      </trkpt>
      <trkpt lat="43.9856" lon="3.09331">
        <ele>657.6791992</ele>
        <time>2013-08-09T08:06:26Z</time>
      </trkpt>
      <trkpt lat="43.98565" lon="3.09339">
        <ele>655.2758789</ele>
        <time>2013-08-09T08:06:32Z</time>
      </trkpt>
      <trkpt lat="43.98565" lon="3.09341">
        <ele>655.2758789</ele>
        <time>2013-08-09T08:06:33Z</time>
      </trkpt>
      <trkpt lat="43.98568" lon="3.09343">
        <ele>654.795166</ele>
        <time>2013-08-09T08:06:35Z</time>
      </trkpt>
      <trkpt lat="43.98571" lon="3.09347">
        <ele>653.3532715</ele>
        <time>2013-08-09T08:06:39Z</time>
      </trkpt>
      <trkpt lat="43.98579" lon="3.09349">
        <ele>651.9111328</ele>
        <time>2013-08-09T08:06:45Z</time>
      </trkpt>
      <trkpt lat="43.98582" lon="3.0935">
        <ele>651.4304199</ele>
        <time>2013-08-09T08:06:47Z</time>
      </trkpt>
      <trkpt lat="43.98593" lon="3.09353">
        <ele>649.5078125</ele>
        <time>2013-08-09T08:06:55Z</time>
      </trkpt>
      <trkpt lat="43.98596" lon="3.09356">
        <ele>647.5852051</ele>
        <time>2013-08-09T08:06:59Z</time>
      </trkpt>
      <trkpt lat="43.98604" lon="3.09358">
        <ele>646.6240234</ele>
        <time>2013-08-09T08:07:05Z</time>
      </trkpt>
      <trkpt lat="43.9861" lon="3.09362">
        <ele>646.1433105</ele>
        <time>2013-08-09T08:07:10Z</time>
      </trkpt>
      <trkpt lat="43.98616" lon="3.09365">
        <ele>645.1818848</ele>
        <time>2013-08-09T08:07:16Z</time>
      </trkpt>
      <trkpt lat="43.98619" lon="3.09372">
        <ele>644.2207031</ele>
        <time>2013-08-09T08:07:21Z</time>
      </trkpt>
      <trkpt lat="43.9862" lon="3.09376">
        <ele>644.2207031</ele>
        <time>2013-08-09T08:07:24Z</time>
      </trkpt>
      <trkpt lat="43.9862" lon="3.0938">
        <ele>644.2207031</ele>
        <time>2013-08-09T08:07:26Z</time>
      </trkpt>
      <trkpt lat="43.98622" lon="3.09391">
        <ele>644.2207031</ele>
        <time>2013-08-09T08:07:32Z</time>
      </trkpt>
      <trkpt lat="43.98625" lon="3.09395">
        <ele>644.2207031</ele>
        <time>2013-08-09T08:07:36Z</time>
      </trkpt>
      <trkpt lat="43.98627" lon="3.09398">
        <ele>643.2592773</ele>
        <time>2013-08-09T08:07:38Z</time>
      </trkpt>
      <trkpt lat="43.98636" lon="3.09403">
        <ele>642.2980957</ele>
        <time>2013-08-09T08:07:45Z</time>
      </trkpt>
      <trkpt lat="43.98641" lon="3.09409">
        <ele>644.2207031</ele>
        <time>2013-08-09T08:07:49Z</time>
      </trkpt>
      <trkpt lat="43.98647" lon="3.09414">
        <ele>644.2207031</ele>
        <time>2013-08-09T08:07:54Z</time>
      </trkpt>
      <trkpt lat="43.98651" lon="3.09416">
        <ele>642.7788086</ele>
        <time>2013-08-09T08:07:57Z</time>
      </trkpt>
      <trkpt lat="43.98655" lon="3.09423">
        <ele>641.3366699</ele>
        <time>2013-08-09T08:08:02Z</time>
      </trkpt>
      <trkpt lat="43.98658" lon="3.0943">
        <ele>641.3366699</ele>
        <time>2013-08-09T08:08:08Z</time>
      </trkpt>
      <trkpt lat="43.98657" lon="3.09435">
        <ele>648.5463867</ele>
        <time>2013-08-09T08:08:17Z</time>
      </trkpt>
      <trkpt lat="43.9866" lon="3.09439">
        <ele>652.3918457</ele>
        <time>2013-08-09T08:08:21Z</time>
      </trkpt>
      <trkpt lat="43.98662" lon="3.09441">
        <ele>654.3146973</ele>
        <time>2013-08-09T08:08:23Z</time>
      </trkpt>
      <trkpt lat="43.98669" lon="3.09444">
        <ele>651.9111328</ele>
        <time>2013-08-09T08:08:28Z</time>
      </trkpt>
      <trkpt lat="43.98681" lon="3.09446">
        <ele>646.1433105</ele>
        <time>2013-08-09T08:08:35Z</time>
      </trkpt>
      <trkpt lat="43.98684" lon="3.09449">
        <ele>639.4140625</ele>
        <time>2013-08-09T08:08:41Z</time>
      </trkpt>
      <trkpt lat="43.98692" lon="3.09447">
        <ele>637.4914551</ele>
        <time>2013-08-09T08:08:46Z</time>
      </trkpt>
      <trkpt lat="43.98697" lon="3.09449">
        <ele>633.6459961</ele>
        <time>2013-08-09T08:08:51Z</time>
      </trkpt>
      <trkpt lat="43.98703" lon="3.0945">
        <ele>631.7233887</ele>
        <time>2013-08-09T08:08:57Z</time>
      </trkpt>
      <trkpt lat="43.98708" lon="3.09449">
        <ele>632.2041016</ele>
        <time>2013-08-09T08:09:02Z</time>
      </trkpt>
      <trkpt lat="43.98714" lon="3.0945">
        <ele>630.762207</ele>
        <time>2013-08-09T08:09:08Z</time>
      </trkpt>
      <trkpt lat="43.98721" lon="3.09451">
        <ele>628.8395996</ele>
        <time>2013-08-09T08:09:14Z</time>
      </trkpt>
      <trkpt lat="43.98726" lon="3.09453">
        <ele>628.3588867</ele>
        <time>2013-08-09T08:09:18Z</time>
      </trkpt>
      <trkpt lat="43.98733" lon="3.09451">
        <ele>630.762207</ele>
        <time>2013-08-09T08:09:26Z</time>
      </trkpt>
      <trkpt lat="43.98735" lon="3.0945">
        <ele>631.2429199</ele>
        <time>2013-08-09T08:09:28Z</time>
      </trkpt>
      <trkpt lat="43.98741" lon="3.09451">
        <ele>630.2814941</ele>
        <time>2013-08-09T08:09:33Z</time>
      </trkpt>
      <trkpt lat="43.98748" lon="3.0945">
        <ele>628.8395996</ele>
        <time>2013-08-09T08:09:39Z</time>
      </trkpt>
      <trkpt lat="43.98753" lon="3.09453">
        <ele>626.4362793</ele>
        <time>2013-08-09T08:09:43Z</time>
      </trkpt>
      <trkpt lat="43.98762" lon="3.09458">
        <ele>623.5524902</ele>
        <time>2013-08-09T08:09:49Z</time>
      </trkpt>
      <trkpt lat="43.98764" lon="3.09458">
        <ele>622.5910645</ele>
        <time>2013-08-09T08:09:51Z</time>
      </trkpt>
      <trkpt lat="43.98771" lon="3.09462">
        <ele>621.6296387</ele>
        <time>2013-08-09T08:09:57Z</time>
      </trkpt>
      <trkpt lat="43.9878" lon="3.09465">
        <ele>619.7070313</ele>
        <time>2013-08-09T08:10:04Z</time>
      </trkpt>
      <trkpt lat="43.98783" lon="3.09466">
        <ele>619.2263184</ele>
        <time>2013-08-09T08:10:06Z</time>
      </trkpt>
      <trkpt lat="43.98786" lon="3.09467">
        <ele>618.7456055</ele>
        <time>2013-08-09T08:10:11Z</time>
      </trkpt>
      <trkpt lat="43.9879" lon="3.09466">
        <ele>619.2263184</ele>
        <time>2013-08-09T08:10:17Z</time>
      </trkpt>
      <trkpt lat="43.98796" lon="3.09469">
        <ele>618.2648926</ele>
        <time>2013-08-09T08:10:22Z</time>
      </trkpt>
      <trkpt lat="43.98803" lon="3.09473">
        <ele>617.7841797</ele>
        <time>2013-08-09T08:10:28Z</time>
      </trkpt>
      <trkpt lat="43.98804" lon="3.09474">
        <ele>617.7841797</ele>
        <time>2013-08-09T08:10:29Z</time>
      </trkpt>
      <trkpt lat="43.98806" lon="3.09476">
        <ele>616.822998</ele>
        <time>2013-08-09T08:10:31Z</time>
      </trkpt>
      <trkpt lat="43.98811" lon="3.09479">
        <ele>615.3811035</ele>
        <time>2013-08-09T08:10:35Z</time>
      </trkpt>
      <trkpt lat="43.98821" lon="3.09485">
        <ele>613.4584961</ele>
        <time>2013-08-09T08:10:43Z</time>
      </trkpt>
      <trkpt lat="43.98828" lon="3.09489">
        <ele>612.4970703</ele>
        <time>2013-08-09T08:10:49Z</time>
      </trkpt>
      <trkpt lat="43.98839" lon="3.09492">
        <ele>610.09375</ele>
        <time>2013-08-09T08:10:57Z</time>
      </trkpt>
      <trkpt lat="43.98841" lon="3.09493">
        <ele>609.6132813</ele>
        <time>2013-08-09T08:10:59Z</time>
      </trkpt>
      <trkpt lat="43.98846" lon="3.09501">
        <ele>607.6906738</ele>
        <time>2013-08-09T08:11:05Z</time>
      </trkpt>
      <trkpt lat="43.98847" lon="3.09506">
        <ele>606.2485352</ele>
        <time>2013-08-09T08:11:08Z</time>
      </trkpt>
      <trkpt lat="43.98849" lon="3.09518">
        <ele>602.8837891</ele>
        <time>2013-08-09T08:11:15Z</time>
      </trkpt>
      <trkpt lat="43.9885" lon="3.0952">
        <ele>602.4030762</ele>
        <time>2013-08-09T08:11:16Z</time>
      </trkpt>
      <trkpt lat="43.98854" lon="3.09526">
        <ele>599.5192871</ele>
        <time>2013-08-09T08:11:21Z</time>
      </trkpt>
      <trkpt lat="43.98862" lon="3.09528">
        <ele>598.0773926</ele>
        <time>2013-08-09T08:11:27Z</time>
      </trkpt>
      <trkpt lat="43.98863" lon="3.09529">
        <ele>597.5966797</ele>
        <time>2013-08-09T08:11:29Z</time>
      </trkpt>
      <trkpt lat="43.98868" lon="3.09529">
        <ele>596.1547852</ele>
        <time>2013-08-09T08:11:34Z</time>
      </trkpt>
      <trkpt lat="43.98874" lon="3.09529">
        <ele>595.1933594</ele>
        <time>2013-08-09T08:11:40Z</time>
      </trkpt>
      <trkpt lat="43.98882" lon="3.09529">
        <ele>594.2321777</ele>
        <time>2013-08-09T08:11:45Z</time>
      </trkpt>
      <trkpt lat="43.98886" lon="3.0953">
        <ele>593.7514648</ele>
        <time>2013-08-09T08:11:47Z</time>
      </trkpt>
      <trkpt lat="43.98886" lon="3.0954">
        <ele>592.7902832</ele>
        <time>2013-08-09T08:11:52Z</time>
      </trkpt>
      <trkpt lat="43.98886" lon="3.09542">
        <ele>592.3095703</ele>
        <time>2013-08-09T08:11:53Z</time>
      </trkpt>
      <trkpt lat="43.98884" lon="3.0955">
        <ele>590.3869629</ele>
        <time>2013-08-09T08:11:58Z</time>
      </trkpt>
      <trkpt lat="43.98884" lon="3.09562">
        <ele>587.5026855</ele>
        <time>2013-08-09T08:12:04Z</time>
      </trkpt>
      <trkpt lat="43.98886" lon="3.09569">
        <ele>587.0219727</ele>
        <time>2013-08-09T08:12:09Z</time>
      </trkpt>
      <trkpt lat="43.98887" lon="3.09584">
        <ele>588.4643555</ele>
        <time>2013-08-09T08:12:17Z</time>
      </trkpt>
      <trkpt lat="43.9889" lon="3.09594">
        <ele>588.9450684</ele>
        <time>2013-08-09T08:12:23Z</time>
      </trkpt>
      <trkpt lat="43.98891" lon="3.09597">
        <ele>589.4255371</ele>
        <time>2013-08-09T08:12:24Z</time>
      </trkpt>
      <trkpt lat="43.98897" lon="3.0961">
        <ele>590.8674316</ele>
        <time>2013-08-09T08:12:32Z</time>
      </trkpt>
      <trkpt lat="43.98904" lon="3.09618">
        <ele>589.4255371</ele>
        <time>2013-08-09T08:12:38Z</time>
      </trkpt>
      <trkpt lat="43.9891" lon="3.09627">
        <ele>589.90625</ele>
        <time>2013-08-09T08:12:44Z</time>
      </trkpt>
      <trkpt lat="43.98916" lon="3.09638">
        <ele>589.4255371</ele>
        <time>2013-08-09T08:12:51Z</time>
      </trkpt>
      <trkpt lat="43.9892" lon="3.09648">
        <ele>587.9833984</ele>
        <time>2013-08-09T08:12:57Z</time>
      </trkpt>
      <trkpt lat="43.98923" lon="3.09658">
        <ele>586.5415039</ele>
        <time>2013-08-09T08:13:02Z</time>
      </trkpt>
      <trkpt lat="43.98923" lon="3.09668">
        <ele>584.6188965</ele>
        <time>2013-08-09T08:13:07Z</time>
      </trkpt>
      <trkpt lat="43.98926" lon="3.09682">
        <ele>582.2155762</ele>
        <time>2013-08-09T08:13:15Z</time>
      </trkpt>
      <trkpt lat="43.98927" lon="3.09686">
        <ele>580.7736816</ele>
        <time>2013-08-09T08:13:17Z</time>
      </trkpt>
      <trkpt lat="43.98935" lon="3.09692">
        <ele>580.7736816</ele>
        <time>2013-08-09T08:13:22Z</time>
      </trkpt>
      <trkpt lat="43.98936" lon="3.09693">
        <ele>581.2543945</ele>
        <time>2013-08-09T08:13:23Z</time>
      </trkpt>
      <trkpt lat="43.98937" lon="3.09696">
        <ele>581.7348633</ele>
        <time>2013-08-09T08:13:25Z</time>
      </trkpt>
      <trkpt lat="43.98941" lon="3.09709">
        <ele>580.7736816</ele>
        <time>2013-08-09T08:13:32Z</time>
      </trkpt>
      <trkpt lat="43.98946" lon="3.09718">
        <ele>579.8122559</ele>
        <time>2013-08-09T08:13:38Z</time>
      </trkpt>
      <trkpt lat="43.98947" lon="3.09725">
        <ele>578.8510742</ele>
        <time>2013-08-09T08:13:42Z</time>
      </trkpt>
      <trkpt lat="43.98949" lon="3.09733">
        <ele>579.8122559</ele>
        <time>2013-08-09T08:13:46Z</time>
      </trkpt>
      <trkpt lat="43.98951" lon="3.09736">
        <ele>579.8122559</ele>
        <time>2013-08-09T08:13:48Z</time>
      </trkpt>
      <trkpt lat="43.98953" lon="3.09747">
        <ele>579.8122559</ele>
        <time>2013-08-09T08:13:54Z</time>
      </trkpt>
      <trkpt lat="43.98959" lon="3.0976">
        <ele>578.3703613</ele>
        <time>2013-08-09T08:14:02Z</time>
      </trkpt>
      <trkpt lat="43.98961" lon="3.09763">
        <ele>577.8896484</ele>
        <time>2013-08-09T08:14:04Z</time>
      </trkpt>
      <trkpt lat="43.98963" lon="3.09772">
        <ele>576.4477539</ele>
        <time>2013-08-09T08:14:09Z</time>
      </trkpt>
      <trkpt lat="43.98967" lon="3.09783">
        <ele>575.967041</ele>
        <time>2013-08-09T08:14:16Z</time>
      </trkpt>
      <trkpt lat="43.98969" lon="3.09792">
        <ele>574.5251465</ele>
        <time>2013-08-09T08:14:21Z</time>
      </trkpt>
      <trkpt lat="43.98973" lon="3.09805">
        <ele>575.0058594</ele>
        <time>2013-08-09T08:14:29Z</time>
      </trkpt>
      <trkpt lat="43.98976" lon="3.09814">
        <ele>576.9284668</ele>
        <time>2013-08-09T08:14:34Z</time>
      </trkpt>
      <trkpt lat="43.98977" lon="3.09825">
        <ele>577.4091797</ele>
        <time>2013-08-09T08:14:39Z</time>
      </trkpt>
      <trkpt lat="43.9898" lon="3.09831">
        <ele>577.8896484</ele>
        <time>2013-08-09T08:14:43Z</time>
      </trkpt>
      <trkpt lat="43.98988" lon="3.09837">
        <ele>578.8510742</ele>
        <time>2013-08-09T08:14:49Z</time>
      </trkpt>
      <trkpt lat="43.98989" lon="3.09838">
        <ele>578.8510742</ele>
        <time>2013-08-09T08:14:50Z</time>
      </trkpt>
      <trkpt lat="43.98996" lon="3.09848">
        <ele>579.8122559</ele>
        <time>2013-08-09T08:14:58Z</time>
      </trkpt>
      <trkpt lat="43.99002" lon="3.09856">
        <ele>580.2929688</ele>
        <time>2013-08-09T08:15:04Z</time>
      </trkpt>
      <trkpt lat="43.99007" lon="3.09864">
        <ele>580.2929688</ele>
        <time>2013-08-09T08:15:10Z</time>
      </trkpt>
      <trkpt lat="43.99011" lon="3.09868">
        <ele>580.2929688</ele>
        <time>2013-08-09T08:15:14Z</time>
      </trkpt>
      <trkpt lat="43.99014" lon="3.0987">
        <ele>580.7736816</ele>
        <time>2013-08-09T08:15:16Z</time>
      </trkpt>
      <trkpt lat="43.99022" lon="3.09875">
        <ele>582.2155762</ele>
        <time>2013-08-09T08:15:22Z</time>
      </trkpt>
      <trkpt lat="43.99028" lon="3.09882">
        <ele>581.7348633</ele>
        <time>2013-08-09T08:15:29Z</time>
      </trkpt>
      <trkpt lat="43.99035" lon="3.09893">
        <ele>581.2543945</ele>
        <time>2013-08-09T08:15:38Z</time>
      </trkpt>
      <trkpt lat="43.99041" lon="3.099">
        <ele>580.2929688</ele>
        <time>2013-08-09T08:15:45Z</time>
      </trkpt>
      <trkpt lat="43.99045" lon="3.09902">
        <ele>579.8122559</ele>
        <time>2013-08-09T08:15:48Z</time>
      </trkpt>
      <trkpt lat="43.99053" lon="3.09907">
        <ele>577.8896484</ele>
        <time>2013-08-09T08:15:55Z</time>
      </trkpt>
      <trkpt lat="43.9906" lon="3.09912">
        <ele>576.9284668</ele>
        <time>2013-08-09T08:16:02Z</time>
      </trkpt>
      <trkpt lat="43.99062" lon="3.09912">
        <ele>577.4091797</ele>
        <time>2013-08-09T08:16:03Z</time>
      </trkpt>
      <trkpt lat="43.99071" lon="3.0992">
        <ele>575.0058594</ele>
        <time>2013-08-09T08:16:11Z</time>
      </trkpt>
      <trkpt lat="43.99077" lon="3.09925">
        <ele>574.5251465</ele>
        <time>2013-08-09T08:16:16Z</time>
      </trkpt>
      <trkpt lat="43.99085" lon="3.0993">
        <ele>573.083252</ele>
        <time>2013-08-09T08:16:22Z</time>
      </trkpt>
      <trkpt lat="43.99092" lon="3.09937">
        <ele>571.6408691</ele>
        <time>2013-08-09T08:16:29Z</time>
      </trkpt>
      <trkpt lat="43.99101" lon="3.09943">
        <ele>571.6408691</ele>
        <time>2013-08-09T08:16:36Z</time>
      </trkpt>
      <trkpt lat="43.99108" lon="3.09949">
        <ele>569.7185059</ele>
        <time>2013-08-09T08:16:43Z</time>
      </trkpt>
      <trkpt lat="43.99113" lon="3.09956">
        <ele>567.3151855</ele>
        <time>2013-08-09T08:16:48Z</time>
      </trkpt>
      <trkpt lat="43.99119" lon="3.0996">
        <ele>565.3925781</ele>
        <time>2013-08-09T08:16:53Z</time>
      </trkpt>
      <trkpt lat="43.99127" lon="3.09965">
        <ele>565.3925781</ele>
        <time>2013-08-09T08:16:59Z</time>
      </trkpt>
      <trkpt lat="43.99137" lon="3.0997">
        <ele>566.3537598</ele>
        <time>2013-08-09T08:17:06Z</time>
      </trkpt>
      <trkpt lat="43.99145" lon="3.09975">
        <ele>566.3537598</ele>
        <time>2013-08-09T08:17:12Z</time>
      </trkpt>
      <trkpt lat="43.99152" lon="3.0998">
        <ele>565.3925781</ele>
        <time>2013-08-09T08:17:18Z</time>
      </trkpt>
      <trkpt lat="43.99159" lon="3.09987">
        <ele>563.9504395</ele>
        <time>2013-08-09T08:17:24Z</time>
      </trkpt>
      <trkpt lat="43.99164" lon="3.09995">
        <ele>561.0666504</ele>
        <time>2013-08-09T08:17:31Z</time>
      </trkpt>
      <trkpt lat="43.99166" lon="3.09996">
        <ele>561.0666504</ele>
        <time>2013-08-09T08:17:32Z</time>
      </trkpt>
      <trkpt lat="43.99175" lon="3.10005">
        <ele>560.5859375</ele>
        <time>2013-08-09T08:17:40Z</time>
      </trkpt>
      <trkpt lat="43.99181" lon="3.10013">
        <ele>559.144043</ele>
        <time>2013-08-09T08:17:47Z</time>
      </trkpt>
      <trkpt lat="43.99183" lon="3.10015">
        <ele>558.6633301</ele>
        <time>2013-08-09T08:17:49Z</time>
      </trkpt>
      <trkpt lat="43.99191" lon="3.10021">
        <ele>558.1828613</ele>
        <time>2013-08-09T08:17:55Z</time>
      </trkpt>
      <trkpt lat="43.99199" lon="3.10029">
        <ele>558.1828613</ele>
        <time>2013-08-09T08:18:02Z</time>
      </trkpt>
      <trkpt lat="43.99206" lon="3.10036">
        <ele>558.1828613</ele>
        <time>2013-08-09T08:18:08Z</time>
      </trkpt>
      <trkpt lat="43.99209" lon="3.10038">
        <ele>557.7021484</ele>
        <time>2013-08-09T08:18:11Z</time>
      </trkpt>
      <trkpt lat="43.99218" lon="3.10044">
        <ele>556.2600098</ele>
        <time>2013-08-09T08:18:18Z</time>
      </trkpt>
      <trkpt lat="43.99225" lon="3.10051">
        <ele>554.3374023</ele>
        <time>2013-08-09T08:18:25Z</time>
      </trkpt>
      <trkpt lat="43.99232" lon="3.10058">
        <ele>553.8566895</ele>
        <time>2013-08-09T08:18:31Z</time>
      </trkpt>
      <trkpt lat="43.99237" lon="3.10062">
        <ele>554.3374023</ele>
        <time>2013-08-09T08:18:35Z</time>
      </trkpt>
      <trkpt lat="43.99247" lon="3.10069">
        <ele>553.3759766</ele>
        <time>2013-08-09T08:18:43Z</time>
      </trkpt>
      <trkpt lat="43.99255" lon="3.10075">
        <ele>553.3759766</ele>
        <time>2013-08-09T08:18:50Z</time>
      </trkpt>
      <trkpt lat="43.99266" lon="3.1008">
        <ele>553.8566895</ele>
        <time>2013-08-09T08:18:58Z</time>
      </trkpt>
      <trkpt lat="43.99274" lon="3.10084">
        <ele>553.8566895</ele>
        <time>2013-08-09T08:19:04Z</time>
      </trkpt>
      <trkpt lat="43.9928" lon="3.10089">
        <ele>552.8952637</ele>
        <time>2013-08-09T08:19:10Z</time>
      </trkpt>
      <trkpt lat="43.9929" lon="3.10095">
        <ele>551.934082</ele>
        <time>2013-08-09T08:19:18Z</time>
      </trkpt>
      <trkpt lat="43.993" lon="3.101">
        <ele>551.934082</ele>
        <time>2013-08-09T08:19:26Z</time>
      </trkpt>
      <trkpt lat="43.99309" lon="3.10104">
        <ele>550.4921875</ele>
        <time>2013-08-09T08:19:33Z</time>
      </trkpt>
      <trkpt lat="43.99316" lon="3.10109">
        <ele>549.5307617</ele>
        <time>2013-08-09T08:19:39Z</time>
      </trkpt>
      <trkpt lat="43.99325" lon="3.10114">
        <ele>547.1274414</ele>
        <time>2013-08-09T08:19:46Z</time>
      </trkpt>
      <trkpt lat="43.99333" lon="3.10123">
        <ele>544.7242432</ele>
        <time>2013-08-09T08:19:54Z</time>
      </trkpt>
      <trkpt lat="43.99339" lon="3.10127">
        <ele>543.7628174</ele>
        <time>2013-08-09T08:19:59Z</time>
      </trkpt>
      <trkpt lat="43.99349" lon="3.10133">
        <ele>543.2821045</ele>
        <time>2013-08-09T08:20:07Z</time>
      </trkpt>
      <trkpt lat="43.99362" lon="3.10134">
        <ele>543.2821045</ele>
        <time>2013-08-09T08:20:16Z</time>
      </trkpt>
      <trkpt lat="43.99373" lon="3.10129">
        <ele>543.2821045</ele>
        <time>2013-08-09T08:20:25Z</time>
      </trkpt>
      <trkpt lat="43.99381" lon="3.10119">
        <ele>542.8015137</ele>
        <time>2013-08-09T08:20:33Z</time>
      </trkpt>
      <trkpt lat="43.99388" lon="3.10106">
        <ele>541.84021</ele>
        <time>2013-08-09T08:20:42Z</time>
      </trkpt>
      <trkpt lat="43.99392" lon="3.10102">
        <ele>541.84021</ele>
        <time>2013-08-09T08:20:46Z</time>
      </trkpt>
      <trkpt lat="43.99398" lon="3.10106">
        <ele>541.3594971</ele>
        <time>2013-08-09T08:20:51Z</time>
      </trkpt>
      <trkpt lat="43.994" lon="3.10113">
        <ele>541.3594971</ele>
        <time>2013-08-09T08:20:55Z</time>
      </trkpt>
      <trkpt lat="43.99399" lon="3.10117">
        <ele>540.3983154</ele>
        <time>2013-08-09T08:20:57Z</time>
      </trkpt>
      <trkpt lat="43.99399" lon="3.10125">
        <ele>539.4368896</ele>
        <time>2013-08-09T08:21:02Z</time>
      </trkpt>
      <trkpt lat="43.99398" lon="3.10142">
        <ele>537.0336914</ele>
        <time>2013-08-09T08:21:11Z</time>
      </trkpt>
      <trkpt lat="43.99398" lon="3.10152">
        <ele>536.0723877</ele>
        <time>2013-08-09T08:21:16Z</time>
      </trkpt>
      <trkpt lat="43.994" lon="3.1016">
        <ele>535.5915527</ele>
        <time>2013-08-09T08:21:21Z</time>
      </trkpt>
      <trkpt lat="43.99406" lon="3.10174">
        <ele>531.7463379</ele>
        <time>2013-08-09T08:21:30Z</time>
      </trkpt>
      <trkpt lat="43.99409" lon="3.1018">
        <ele>530.7851563</ele>
        <time>2013-08-09T08:21:34Z</time>
      </trkpt>
      <trkpt lat="43.99414" lon="3.10185">
        <ele>530.3044434</ele>
        <time>2013-08-09T08:21:38Z</time>
      </trkpt>
      <trkpt lat="43.99422" lon="3.10197">
        <ele>528.8625488</ele>
        <time>2013-08-09T08:21:47Z</time>
      </trkpt>
      <trkpt lat="43.99427" lon="3.10208">
        <ele>528.3818359</ele>
        <time>2013-08-09T08:21:54Z</time>
      </trkpt>
      <trkpt lat="43.99433" lon="3.10221">
        <ele>527.4204102</ele>
        <time>2013-08-09T08:22:01Z</time>
      </trkpt>
      <trkpt lat="43.99442" lon="3.10229">
        <ele>526.9398193</ele>
        <time>2013-08-09T08:22:09Z</time>
      </trkpt>
      <trkpt lat="43.99454" lon="3.1023">
        <ele>527.4204102</ele>
        <time>2013-08-09T08:22:18Z</time>
      </trkpt>
      <trkpt lat="43.99465" lon="3.1023">
        <ele>527.901001</ele>
        <time>2013-08-09T08:22:26Z</time>
      </trkpt>
      <trkpt lat="43.99475" lon="3.10228">
        <ele>527.4204102</ele>
        <time>2013-08-09T08:22:34Z</time>
      </trkpt>
      <trkpt lat="43.99481" lon="3.10223">
        <ele>526.4591064</ele>
        <time>2013-08-09T08:22:41Z</time>
      </trkpt>
      <trkpt lat="43.99482" lon="3.10222">
        <ele>526.4591064</ele>
        <time>2013-08-09T08:22:42Z</time>
      </trkpt>
      <trkpt lat="43.99483" lon="3.1022">
        <ele>525.9783936</ele>
        <time>2013-08-09T08:22:47Z</time>
      </trkpt>
      <trkpt lat="43.99483" lon="3.1022">
        <ele>526.4591064</ele>
        <time>2013-08-09T08:22:55Z</time>
      </trkpt>
      <trkpt lat="43.99481" lon="3.10218">
        <ele>526.9398193</ele>
        <time>2013-08-09T08:23:17Z</time>
      </trkpt>
      <trkpt lat="43.99481" lon="3.10221">
        <ele>524.0557861</ele>
        <time>2013-08-09T08:23:29Z</time>
      </trkpt>
      <trkpt lat="43.99481" lon="3.10225">
        <ele>518.2878418</ele>
        <time>2013-08-09T08:24:17Z</time>
      </trkpt>
      <trkpt lat="43.99481" lon="3.10224">
        <ele>518.7685547</ele>
        <time>2013-08-09T08:24:32Z</time>
      </trkpt>
      <trkpt lat="43.9948" lon="3.10224">
        <ele>521.6525879</ele>
        <time>2013-08-09T08:24:53Z</time>
      </trkpt>
      <trkpt lat="43.99482" lon="3.10224">
        <ele>522.6138916</ele>
        <time>2013-08-09T08:24:59Z</time>
      </trkpt>
      <trkpt lat="43.99487" lon="3.10222">
        <ele>522.1331787</ele>
        <time>2013-08-09T08:25:03Z</time>
      </trkpt>
      <trkpt lat="43.99491" lon="3.10219">
        <ele>522.1331787</ele>
        <time>2013-08-09T08:25:06Z</time>
      </trkpt>
      <trkpt lat="43.995" lon="3.10205">
        <ele>523.0946045</ele>
        <time>2013-08-09T08:25:15Z</time>
      </trkpt>
      <trkpt lat="43.99506" lon="3.1019">
        <ele>525.0172119</ele>
        <time>2013-08-09T08:25:23Z</time>
      </trkpt>
      <trkpt lat="43.99511" lon="3.10177">
        <ele>525.9783936</ele>
        <time>2013-08-09T08:25:31Z</time>
      </trkpt>
      <trkpt lat="43.99517" lon="3.1016">
        <ele>528.3818359</ele>
        <time>2013-08-09T08:25:41Z</time>
      </trkpt>
      <trkpt lat="43.99522" lon="3.10148">
        <ele>528.8625488</ele>
        <time>2013-08-09T08:25:48Z</time>
      </trkpt>
      <trkpt lat="43.99526" lon="3.10141">
        <ele>527.901001</ele>
        <time>2013-08-09T08:25:54Z</time>
      </trkpt>
      <trkpt lat="43.99532" lon="3.10134">
        <ele>528.3818359</ele>
        <time>2013-08-09T08:26:00Z</time>
      </trkpt>
      <trkpt lat="43.99537" lon="3.1012">
        <ele>529.3431396</ele>
        <time>2013-08-09T08:26:08Z</time>
      </trkpt>
      <trkpt lat="43.99539" lon="3.10109">
        <ele>529.8237305</ele>
        <time>2013-08-09T08:26:16Z</time>
      </trkpt>
      <trkpt lat="43.99539" lon="3.10102">
        <ele>529.8237305</ele>
        <time>2013-08-09T08:26:22Z</time>
      </trkpt>
      <trkpt lat="43.99538" lon="3.10091">
        <ele>530.3044434</ele>
        <time>2013-08-09T08:26:28Z</time>
      </trkpt>
      <trkpt lat="43.99538" lon="3.10078">
        <ele>530.3044434</ele>
        <time>2013-08-09T08:26:34Z</time>
      </trkpt>
      <trkpt lat="43.99537" lon="3.10065">
        <ele>530.3044434</ele>
        <time>2013-08-09T08:26:41Z</time>
      </trkpt>
      <trkpt lat="43.99536" lon="3.10049">
        <ele>530.7851563</ele>
        <time>2013-08-09T08:26:49Z</time>
      </trkpt>
      <trkpt lat="43.99538" lon="3.10037">
        <ele>531.2657471</ele>
        <time>2013-08-09T08:26:56Z</time>
      </trkpt>
      <trkpt lat="43.99541" lon="3.10026">
        <ele>530.3044434</ele>
        <time>2013-08-09T08:27:04Z</time>
      </trkpt>
      <trkpt lat="43.99544" lon="3.10014">
        <ele>530.3044434</ele>
        <time>2013-08-09T08:27:12Z</time>
      </trkpt>
      <trkpt lat="43.99546" lon="3.1">
        <ele>534.6303711</ele>
        <time>2013-08-09T08:27:19Z</time>
      </trkpt>
      <trkpt lat="43.99552" lon="3.09982">
        <ele>535.5915527</ele>
        <time>2013-08-09T08:27:30Z</time>
      </trkpt>
      <trkpt lat="43.99557" lon="3.09969">
        <ele>537.0336914</ele>
        <time>2013-08-09T08:27:39Z</time>
      </trkpt>
      <trkpt lat="43.99561" lon="3.09962">
        <ele>537.9949951</ele>
        <time>2013-08-09T08:27:44Z</time>
      </trkpt>
      <trkpt lat="43.99565" lon="3.09951">
        <ele>537.0336914</ele>
        <time>2013-08-09T08:27:52Z</time>
      </trkpt>
      <trkpt lat="43.9957" lon="3.0994">
        <ele>537.0336914</ele>
        <time>2013-08-09T08:28:01Z</time>
      </trkpt>
      <trkpt lat="43.99574" lon="3.09929">
        <ele>539.9176025</ele>
        <time>2013-08-09T08:28:08Z</time>
      </trkpt>
      <trkpt lat="43.99576" lon="3.09913">
        <ele>544.2436523</ele>
        <time>2013-08-09T08:28:15Z</time>
      </trkpt>
      <trkpt lat="43.99579" lon="3.09903">
        <ele>545.204834</ele>
        <time>2013-08-09T08:28:21Z</time>
      </trkpt>
      <trkpt lat="43.9958" lon="3.09899">
        <ele>545.6855469</ele>
        <time>2013-08-09T08:28:24Z</time>
      </trkpt>
      <trkpt lat="43.99581" lon="3.0989">
        <ele>546.6468506</ele>
        <time>2013-08-09T08:28:30Z</time>
      </trkpt>
      <trkpt lat="43.99582" lon="3.09882">
        <ele>546.1662598</ele>
        <time>2013-08-09T08:28:35Z</time>
      </trkpt>
      <trkpt lat="43.99584" lon="3.09878">
        <ele>546.1662598</ele>
        <time>2013-08-09T08:28:38Z</time>
      </trkpt>
      <trkpt lat="43.99588" lon="3.09863">
        <ele>547.1274414</ele>
        <time>2013-08-09T08:28:46Z</time>
      </trkpt>
      <trkpt lat="43.99592" lon="3.09857">
        <ele>546.6468506</ele>
        <time>2013-08-09T08:28:50Z</time>
      </trkpt>
      <trkpt lat="43.99599" lon="3.09853">
        <ele>547.1274414</ele>
        <time>2013-08-09T08:28:56Z</time>
      </trkpt>
      <trkpt lat="43.99608" lon="3.09846">
        <ele>550.4921875</ele>
        <time>2013-08-09T08:29:04Z</time>
      </trkpt>
      <trkpt lat="43.99611" lon="3.09835">
        <ele>550.4921875</ele>
        <time>2013-08-09T08:29:11Z</time>
      </trkpt>
      <trkpt lat="43.9961" lon="3.09827">
        <ele>550.0114746</ele>
        <time>2013-08-09T08:29:15Z</time>
      </trkpt>
      <trkpt lat="43.99613" lon="3.09811">
        <ele>549.5307617</ele>
        <time>2013-08-09T08:29:23Z</time>
      </trkpt>
      <trkpt lat="43.99615" lon="3.09797">
        <ele>547.6081543</ele>
        <time>2013-08-09T08:29:30Z</time>
      </trkpt>
      <trkpt lat="43.99615" lon="3.09782">
        <ele>546.6468506</ele>
        <time>2013-08-09T08:29:38Z</time>
      </trkpt>
      <trkpt lat="43.99615" lon="3.09779">
        <ele>547.1274414</ele>
        <time>2013-08-09T08:29:39Z</time>
      </trkpt>
      <trkpt lat="43.99612" lon="3.09771">
        <ele>548.0888672</ele>
        <time>2013-08-09T08:29:43Z</time>
      </trkpt>
      <trkpt lat="43.99603" lon="3.09768">
        <ele>548.0888672</ele>
        <time>2013-08-09T08:29:49Z</time>
      </trkpt>
      <trkpt lat="43.99592" lon="3.09769">
        <ele>550.4921875</ele>
        <time>2013-08-09T08:29:56Z</time>
      </trkpt>
      <trkpt lat="43.99579" lon="3.09766">
        <ele>553.8566895</ele>
        <time>2013-08-09T08:30:04Z</time>
      </trkpt>
      <trkpt lat="43.99576" lon="3.09767">
        <ele>549.0500488</ele>
        <time>2013-08-09T08:30:08Z</time>
      </trkpt>
      <trkpt lat="43.99565" lon="3.09765">
        <ele>548.5693359</ele>
        <time>2013-08-09T08:30:15Z</time>
      </trkpt>
      <trkpt lat="43.99562" lon="3.09765">
        <ele>544.7242432</ele>
        <time>2013-08-09T08:30:19Z</time>
      </trkpt>
      <trkpt lat="43.99561" lon="3.09764">
        <ele>544.2436523</ele>
        <time>2013-08-09T08:30:20Z</time>
      </trkpt>
      <trkpt lat="43.99554" lon="3.09764">
        <ele>539.4368896</ele>
        <time>2013-08-09T08:30:27Z</time>
      </trkpt>
      <trkpt lat="43.99551" lon="3.0976">
        <ele>539.9176025</ele>
        <time>2013-08-09T08:30:33Z</time>
      </trkpt>
      <trkpt lat="43.99551" lon="3.09765">
        <ele>539.9176025</ele>
        <time>2013-08-09T08:30:37Z</time>
      </trkpt>
      <trkpt lat="43.99548" lon="3.09773">
        <ele>537.5142822</ele>
        <time>2013-08-09T08:30:42Z</time>
      </trkpt>
      <trkpt lat="43.99545" lon="3.09776">
        <ele>538.475708</ele>
        <time>2013-08-09T08:30:45Z</time>
      </trkpt>
      <trkpt lat="43.99538" lon="3.09763">
        <ele>545.204834</ele>
        <time>2013-08-09T08:30:51Z</time>
      </trkpt>
      <trkpt lat="43.99535" lon="3.09753">
        <ele>543.2821045</ele>
        <time>2013-08-09T08:30:57Z</time>
      </trkpt>
      <trkpt lat="43.99532" lon="3.09741">
        <ele>540.3983154</ele>
        <time>2013-08-09T08:31:05Z</time>
      </trkpt>
      <trkpt lat="43.99529" lon="3.09734">
        <ele>539.9176025</ele>
        <time>2013-08-09T08:31:10Z</time>
      </trkpt>
      <trkpt lat="43.99528" lon="3.09733">
        <ele>539.4368896</ele>
        <time>2013-08-09T08:31:11Z</time>
      </trkpt>
      <trkpt lat="43.99524" lon="3.09729">
        <ele>538.9562988</ele>
        <time>2013-08-09T08:31:15Z</time>
      </trkpt>
      <trkpt lat="43.99522" lon="3.09728">
        <ele>535.1109619</ele>
        <time>2013-08-09T08:31:22Z</time>
      </trkpt>
      <trkpt lat="43.99519" lon="3.09726">
        <ele>534.1496582</ele>
        <time>2013-08-09T08:31:24Z</time>
      </trkpt>
      <trkpt lat="43.99518" lon="3.0971">
        <ele>531.7463379</ele>
        <time>2013-08-09T08:31:33Z</time>
      </trkpt>
      <trkpt lat="43.99516" lon="3.09697">
        <ele>530.7851563</ele>
        <time>2013-08-09T08:31:40Z</time>
      </trkpt>
      <trkpt lat="43.99516" lon="3.09693">
        <ele>530.7851563</ele>
        <time>2013-08-09T08:31:42Z</time>
      </trkpt>
      <trkpt lat="43.99517" lon="3.09681">
        <ele>529.8237305</ele>
        <time>2013-08-09T08:31:49Z</time>
      </trkpt>
      <trkpt lat="43.99518" lon="3.09676">
        <ele>528.8625488</ele>
        <time>2013-08-09T08:31:54Z</time>
      </trkpt>
      <trkpt lat="43.99522" lon="3.09662">
        <ele>526.4591064</ele>
        <time>2013-08-09T08:32:02Z</time>
      </trkpt>
      <trkpt lat="43.99526" lon="3.09647">
        <ele>523.5751953</ele>
        <time>2013-08-09T08:32:10Z</time>
      </trkpt>
      <trkpt lat="43.9953" lon="3.09636">
        <ele>522.6138916</ele>
        <time>2013-08-09T08:32:16Z</time>
      </trkpt>
      <trkpt lat="43.99531" lon="3.09634">
        <ele>522.6138916</ele>
        <time>2013-08-09T08:32:17Z</time>
      </trkpt>
      <trkpt lat="43.99528" lon="3.09626">
        <ele>523.0946045</ele>
        <time>2013-08-09T08:32:22Z</time>
      </trkpt>
      <trkpt lat="43.9952" lon="3.09622">
        <ele>523.5751953</ele>
        <time>2013-08-09T08:32:27Z</time>
      </trkpt>
      <trkpt lat="43.99512" lon="3.0963">
        <ele>523.0946045</ele>
        <time>2013-08-09T08:32:34Z</time>
      </trkpt>
      <trkpt lat="43.99507" lon="3.09641">
        <ele>524.0557861</ele>
        <time>2013-08-09T08:32:41Z</time>
      </trkpt>
      <trkpt lat="43.99506" lon="3.09645">
        <ele>523.5751953</ele>
        <time>2013-08-09T08:32:43Z</time>
      </trkpt>
      <trkpt lat="43.99505" lon="3.09653">
        <ele>522.6138916</ele>
        <time>2013-08-09T08:32:47Z</time>
      </trkpt>
    </trkseg>
  </trk>
</gpx>